[[{"header":{"parameterUnit":"m.s-1","parameterCategory":1,"la1":30.6,"la2":28.766,"lo1":-90.7593,"lo2":-88.6598,"dy":0.0162,"dx":0.0183,"nx":116,"ny":114,"refTime":"2024-02-15T06:00:00:Z","depth":0,"parameterNumber":2,"parameterNumberName":"U-component_of_WINDS"},"data":[0.0,0.0,0.0,0.0,0.0,0.0,0.0,0.0,0.0,0.0,0.0,0.0,0.0,0.0,0.0,0.0,0.0,0.0,0.0,0.0,0.0,0.0,0.0,0.0,0.0,0.0,0.0,0.0,0.0,0.0,0.0,0.0,0.0,0.0,0.0,0.0,0.0,0.0,0.0,0.0,0.0,0.0,0.0,0.0,0.0,0.0,0.0,0.0,0.0,0.0,0.0,0.0,0.0,0.0,0.0,0.0,0.0,0.0,0.0,0.0,0.0,0.0,0.0,0.0,0.0,0.0,0.0,0.0,0.0,0.0,0.0,0.0,0.0,0.0,0.0,0.0,0.0,0.0,0.0,0.0,0.0,0.0,0.0,0.0,0.0,0.0,0.0,0.0,0.0,0.0,0.0,0.0,0.0,0.0,0.0,0.0,0.0,0.0,0.0,0.0,0.0,0.0,0.0,0.0,0.0,0.0,0.0,0.0,0.0,0.0,0.0,0.0,0.0,0.0,0.0,0.0,0.0,0.0,0.0,0.0,0.0,0.0,0.0,0.0,0.0,0.0,0.0,0.0,0.0,0.0,0.0,0.0,0.0,0.0,0.0,0.0,0.0,0.0,0.0,0.0,0.0,0.0,0.0,0.0,0.0,0.0,0.0,0.0,0.0,0.0,0.0,0.0,0.0,0.0,0.0,0.0,0.0,0.0,0.0,0.0,0.0,0.0,0.0,0.0,0.0,0.0,0.0,0.0,0.0,0.0,0.0,0.0,0.0,0.0,0.0,0.0,0.0,0.0,0.0,0.0,0.0,0.0,0.0,0.0,0.0,0.0,0.0,0.0,0.0,0.0,0.0,0.0,0.0,0.0,0.0,0.0,0.0,0.0,0.0,0.0,0.0,0.0,0.0,0.0,0.0,0.0,0.0,0.0,0.0,0.0,0.0,0.0,0.0,0.0,0.0,0.0,0.0,0.0,0.0,0.0,0.0,0.0,0.0,0.0,0.0,0.0,0.0,0.0,0.0,0.0,0.0,0.0,0.0,0.0,0.0,0.0,0.0,0.0,0.0,0.0,0.0,0.0,0.0,0.0,0.0,0.0,0.0,0.0,0.0,0.0,0.0,0.0,0.0,0.0,0.0,0.0,0.0,0.0,0.0,0.0,0.0,0.0,0.0,0.0,0.0,0.0,0.0,0.0,0.0,0.0,0.0,0.0,0.0,0.0,0.0,0.0,0.0,0.0,0.0,0.0,0.0,0.0,0.0,0.0,0.0,0.0,0.0,0.0,0.0,0.0,0.0,0.0,0.0,0.0,0.0,0.0,0.0,0.0,0.0,0.0,0.0,0.0,0.0,0.0,0.0,0.0,0.0,0.0,0.0,0.0,0.0,0.0,0.0,0.0,0.0,0.0,0.0,0.0,0.0,0.0,0.0,0.0,0.0,0.0,0.0,0.0,0.0,0.0,0.0,0.0,0.0,0.0,0.0,0.0,0.0,0.0,0.0,0.0,0.0,0.0,0.0,0.0,0.0,0.0,0.0,0.0,0.0,0.0,0.0,0.0,0.0,0.0,0.0,0.0,0.0,0.0,0.0,0.0,0.0,0.0,0.0,0.0,0.0,0.0,0.0,0.0,0.0,0.0,0.0,0.0,0.0,0.0,0.0,0.0,0.0,0.0,0.0,0.0,0.0,0.0,0.0,0.0,0.0,0.0,0.0,0.0,0.0,0.0,0.0,0.0,0.0,0.0,0.0,0.0,0.0,0.0,0.0,0.0,0.0,0.0,0.0,0.0,0.0,0.0,0.0,0.0,0.0,0.0,0.0,0.0,0.0,0.0,0.0,0.0,0.0,0.0,0.0,0.0,0.0,0.0,0.0,0.0,0.0,0.0,0.0,0.0,0.0,0.0,0.0,0.0,0.0,0.0,0.0,0.0,0.0,0.0,0.0,0.0,0.0,0.0,0.0,0.0,0.0,0.0,0.0,0.0,0.0,0.0,0.0,0.0,0.0,0.0,0.0,0.0,0.0,0.0,0.0,0.0,0.0,0.0,0.0,0.0,0.0,0.0,0.0,0.0,0.0,0.0,0.0,0.0,0.0,0.0,0.0,0.0,0.0,0.0,0.0,0.0,0.0,0.0,0.0,0.0,0.0,0.0,0.0,0.0,0.0,0.0,0.0,0.0,0.0,0.0,0.0,0.0,0.0,0.0,0.0,0.0,0.0,0.0,0.0,0.0,0.0,0.0,0.0,0.0,0.0,0.0,0.0,0.0,0.0,0.0,0.0,0.0,0.0,0.0,0.0,0.0,0.0,0.0,0.0,0.0,0.0,0.0,0.0,0.0,0.0,0.0,0.0,0.0,0.0,0.0,0.0,0.0,0.0,0.0,0.0,0.0,0.0,0.0,0.0,0.0,0.0,0.0,0.0,0.0,0.0,0.0,0.0,0.0,0.0,0.0,0.0,0.0,0.0,0.0,0.0,0.0,0.0,0.0,0.0,0.0,0.0,0.0,0.0,0.0,0.0,0.0,0.0,0.0,0.0,0.0,0.0,0.0,0.0,0.0,0.0,0.0,0.0,0.0,0.0,0.0,0.0,0.0,0.0,0.0,0.0,0.0,0.0,0.0,0.0,0.0,0.0,0.0,0.0,0.0,0.0,0.0,0.0,0.0,0.0,0.0,0.0,0.0,0.0,0.0,0.0,0.0,0.0,0.0,0.0,0.0,0.0,0.0,0.0,0.0,0.0,0.0,0.0,0.0,0.0,0.0,0.0,0.0,0.0,0.0,0.0,0.0,0.0,0.0,0.0,0.0,0.0,0.0,0.0,0.0,0.0,0.0,0.0,0.0,0.0,0.0,0.0,0.0,0.0,0.0,0.0,0.0,0.0,0.0,0.0,0.0,0.0,0.0,0.0,0.0,0.0,0.0,0.0,0.0,0.0,0.0,0.0,0.0,0.0,0.0,0.0,0.0,0.0,0.0,0.0,0.0,0.0,0.0,0.0,0.0,0.0,0.0,0.0,0.0,0.0,0.0,0.0,0.0,0.0,0.0,0.0,0.0,0.0,0.0,0.0,0.0,0.0,0.0,0.0,0.0,0.0,0.0,0.0,0.0,0.0,0.0,0.0,0.0,0.0,0.0,0.0,0.0,0.0,0.0,0.0,0.0,0.0,0.0,0.0,0.0,0.0,0.0,0.0,0.0,0.0,0.0,0.0,0.0,0.0,0.0,0.0,0.0,0.0,0.0,0.0,0.0,0.0,0.0,0.0,0.0,0.0,0.0,0.0,0.0,0.0,0.0,0.0,0.0,0.0,0.0,0.0,0.0,0.0,0.0,0.0,0.0,0.0,0.0,0.0,0.0,0.0,0.0,0.0,0.0,0.0,0.0,0.0,0.0,0.0,0.0,0.0,0.0,0.0,0.0,0.0,0.0,0.0,0.0,0.0,0.0,0.0,0.0,0.0,0.0,0.0,0.0,0.0,0.0,0.0,0.0,0.0,0.0,0.0,0.0,0.0,0.0,0.0,0.0,0.0,0.0,0.0,0.0,0.0,0.0,0.0,0.0,0.0,0.0,0.0,0.0,0.0,0.0,0.0,0.0,0.0,0.0,0.0,0.0,0.0,0.0,0.0,0.0,0.0,0.0,0.0,0.0,0.0,0.0,0.0,0.0,0.0,0.0,0.0,0.0,0.0,0.0,0.0,0.0,0.0,0.0,0.0,0.0,0.0,0.0,0.0,0.0,0.0,0.0,0.0,0.0,0.0,0.0,0.0,0.0,0.0,0.0,0.0,0.0,0.0,0.0,0.0,0.0,0.0,0.0,0.0,0.0,0.0,0.0,0.0,0.0,0.0,0.0,0.0,0.0,0.0,0.0,0.0,0.0,0.0,0.0,0.0,0.0,0.0,0.0,0.0,0.0,0.0,0.0,0.0,0.0,0.0,0.0,0.0,0.0,0.0,0.0,0.0,0.0,0.0,0.0,0.0,0.0,0.0,0.0,0.0,0.0,0.0,0.0,0.0,0.0,0.0,0.0,0.0,0.0,0.0,0.0,0.0,0.0,0.0,0.0,0.0,0.0,0.0,0.0,0.0,0.0,0.0,0.0,0.0,0.0,0.0,0.0,0.0,0.0,0.0,0.0,0.0,0.0,0.0,0.0,0.0,0.0,0.0,0.0,0.0,0.0,0.0,0.0,0.0,0.0,0.0,0.0,0.0,0.0,0.0,0.0,0.0,0.0,0.0,0.0,0.0,0.0,0.0,0.0,0.0,0.0,0.0,0.0,0.0,0.0,0.0,0.0,0.0,0.0,0.0,0.0,0.0,0.0,0.0,0.0,0.0,0.0,0.0,0.0,0.0,0.0,0.0,0.0,0.0,0.0,0.0,0.0,0.0,0.0,0.0,0.0,0.0,0.0,0.0,0.0,0.0,0.0,0.0,0.0,0.0,0.0,0.0,0.0,0.0,0.0,0.0,0.0,0.0,0.0,0.0,0.0,0.0,0.0,0.0,0.0,0.0,0.0,0.0,0.0,0.0,0.0,0.0,0.0,0.0,0.0,0.0,0.0,0.0,0.0,0.0,0.0,0.0,0.0,0.0,0.0,0.0,0.0,0.0,0.0,0.0,0.0,0.0,0.0,0.0,0.0,0.0,0.0,0.0,0.0,0.0,0.0,0.0,0.0,0.0,0.0,0.0,0.0,0.0,0.0,0.0,0.0,0.0,0.0,0.0,0.0,0.0,0.0,0.0,0.0,0.0,0.0,0.0,0.0,0.0,0.0,0.0,0.0,0.0,0.0,0.0,0.0,0.0,0.0,0.0,0.0,0.0,0.0,0.0,0.0,0.0,0.0,0.0,0.0,0.0,0.0,0.0,0.0,0.0,0.0,0.0,0.0,0.0,0.0,0.0,0.0,0.0,0.0,0.0,0.0,0.0,0.0,0.0,0.0,0.0,0.0,0.0,0.0,0.0,0.0,0.0,0.0,0.0,0.0,0.0,0.0,0.0,0.0,0.0,0.0,0.0,0.0,0.0,0.0,0.0,0.0,0.0,0.0,0.0,0.0,0.0,0.0,0.0,0.0,0.0,0.0,0.0,0.0,0.0,0.0,0.0,0.0,0.0,0.0,0.0,0.0,0.0,0.0,0.0,0.0,0.0,0.0,0.0,0.0,0.0,0.0,0.0,0.0,0.0,0.0,0.0,0.0,0.0,0.0,0.0,0.0,0.0,0.0,0.0,0.0,0.0,0.0,0.0,0.0,0.0,0.0,0.0,0.0,0.0,0.0,0.0,0.0,0.0,0.0,0.0,0.0,0.0,0.0,0.0,0.0,0.0,0.0,0.0,0.0,0.0,0.0,0.0,0.0,0.0,0.0,0.0,0.0,0.0,0.0,0.0,0.0,0.0,0.0,0.0,0.0,0.0,0.0,0.0,0.0,0.0,0.0,0.0,0.0,0.0,0.0,0.0,0.0,0.0,0.0,0.0,0.0,0.0,0.0,0.0,0.0,0.0,0.0,0.0,0.0,0.0,0.0,0.0,0.0,0.0,0.0,0.0,0.0,0.0,0.0,0.0,0.0,0.0,0.0,0.0,0.0,0.0,0.0,0.0,0.0,0.0,0.0,0.0,0.0,0.0,0.0,0.0,0.0,0.0,0.0,0.0,0.0,0.0,0.0,0.0,0.0,0.0,0.0,0.0,0.0,0.0,0.0,0.0,0.0,0.0,0.0,0.0,0.0,0.0,0.0,0.0,0.0,0.0,0.0,0.0,0.0,0.0,0.0,0.0,0.0,0.0,0.0,0.0,0.0,0.0,0.0,0.0,0.0,0.0,0.0,0.0,0.0,0.0,0.0,0.0,0.0,0.0,0.0,0.0,0.0,0.0,0.0,0.0,0.0,0.0,0.0,0.0,0.0,0.0,0.0,0.0,0.0,0.0,0.0,0.0,0.0,0.0,0.0,0.0,0.0,0.0,0.0,0.0,0.0,0.0,0.0,0.0,0.0,0.0,0.0,0.0,0.0,0.0,0.0,0.0,0.0,0.0,0.0,0.0,0.0,0.0,0.0,0.0,0.0,0.0,0.0,0.0,0.0,0.0,0.0,0.0,0.0,0.0,0.0,0.0,0.0,-2.6415,-2.6677,0.0,0.0,0.0,0.0,0.0,0.0,0.0,0.0,0.0,0.0,0.0,0.0,0.0,0.0,0.0,0.0,0.0,0.0,0.0,0.0,0.0,0.0,0.0,0.0,0.0,0.0,-1.6325,-1.6623,-1.7056,-1.7527,-1.8181,-1.9035,-1.9821,-2.0714,-2.1754,-2.2546,-2.325,-2.3865,-2.4512,-2.4938,-2.515,-2.4961,-2.4844,-2.4774,0.0,0.0,0.0,0.0,0.0,0.0,0.0,0.0,0.0,0.0,0.0,0.0,0.0,0.0,0.0,0.0,0.0,0.0,0.0,0.0,0.0,0.0,0.0,0.0,0.0,0.0,0.0,0.0,0.0,0.0,0.0,0.0,0.0,0.0,0.0,0.0,0.0,0.0,0.0,0.0,0.0,0.0,0.0,0.0,0.0,0.0,0.0,0.0,0.0,0.0,0.0,0.0,0.0,0.0,0.0,0.0,0.0,0.0,0.0,0.0,0.0,0.0,0.0,0.0,0.0,0.0,0.0,0.0,0.0,0.0,-2.6858,-2.7159,0.0,0.0,0.0,0.0,0.0,0.0,0.0,0.0,0.0,0.0,0.0,0.0,0.0,0.0,0.0,0.0,0.0,0.0,0.0,0.0,0.0,0.0,0.0,-1.8448,-1.9496,-1.9984,-2.0209,-2.0418,-2.0722,-2.1095,-2.1512,-2.1941,-2.2266,-2.2795,-2.3631,-2.3467,-2.3727,-2.4425,-2.4473,-2.4685,-2.5023,-2.5232,-2.5317,0.0,0.0,0.0,0.0,0.0,0.0,0.0,0.0,0.0,0.0,0.0,0.0,0.0,0.0,0.0,0.0,0.0,0.0,0.0,0.0,0.0,0.0,0.0,0.0,0.0,0.0,0.0,0.0,0.0,0.0,0.0,0.0,0.0,0.0,0.0,0.0,0.0,0.0,0.0,0.0,0.0,0.0,0.0,0.0,0.0,0.0,0.0,0.0,0.0,0.0,0.0,0.0,0.0,0.0,0.0,0.0,0.0,0.0,0.0,0.0,0.0,0.0,0.0,0.0,0.0,-2.6045,-2.5961,-2.5799,-2.5773,-2.6092,-2.6686,-2.7009,-2.7333,-2.7604,-2.7535,0.0,0.0,0.0,0.0,0.0,0.0,0.0,0.0,0.0,0.0,0.0,0.0,0.0,0.0,0.0,0.0,0.0,0.0,0.0,0.0,0.0,-2.1632,-2.276,-2.3625,-2.3775,-2.3917,-2.4143,-2.4361,-2.4534,-2.4592,-2.4549,-2.4408,-2.4189,-2.3897,-2.3737,-2.3723,-2.4025,-2.4329,-2.4662,-2.4927,0.0,0.0,0.0,0.0,0.0,0.0,0.0,0.0,0.0,0.0,0.0,0.0,0.0,0.0,0.0,0.0,0.0,0.0,0.0,0.0,0.0,0.0,0.0,0.0,0.0,0.0,0.0,0.0,0.0,0.0,0.0,0.0,0.0,0.0,0.0,0.0,0.0,0.0,0.0,0.0,0.0,0.0,0.0,0.0,0.0,0.0,-2.6154,-2.6976,0.0,0.0,0.0,0.0,0.0,0.0,0.0,0.0,0.0,0.0,0.0,0.0,0.0,-2.3833,-2.3719,-2.5114,-2.5843,-2.5843,-2.6402,-2.6622,-2.6559,-2.6512,-2.6531,-2.6631,-2.6844,0.0,-2.8404,-2.7827,0.0,0.0,0.0,0.0,0.0,0.0,0.0,0.0,0.0,0.0,0.0,0.0,0.0,0.0,0.0,0.0,0.0,0.0,0.0,0.0,0.0,-2.3567,-2.4466,-2.4929,-2.4993,-2.5065,-2.5181,-2.5246,-2.5195,-2.5047,-2.4771,-2.4412,-2.3931,-2.3472,-2.3212,-2.3141,-2.3512,-2.3888,-2.4208,-2.452,0.0,0.0,0.0,0.0,0.0,0.0,0.0,0.0,0.0,0.0,0.0,0.0,0.0,0.0,0.0,0.0,0.0,0.0,0.0,0.0,0.0,0.0,0.0,0.0,0.0,0.0,0.0,0.0,0.0,0.0,0.0,0.0,0.0,0.0,0.0,0.0,0.0,0.0,0.0,0.0,0.0,0.0,0.0,0.0,0.0,-2.5668,-2.6391,-2.6848,-2.6962,-2.6779,0.0,0.0,0.0,0.0,0.0,0.0,0.0,0.0,0.0,-2.2245,-2.276,-2.2999,-2.2999,-2.3993,-2.4528,-2.456,-2.4813,-2.4846,-2.4674,-2.464,-2.457,-2.4484,-2.4608,-2.4975,-2.5617,-2.6905,-2.7525,-2.7638,0.0,0.0,0.0,0.0,-2.677,-2.6788,0.0,0.0,0.0,0.0,0.0,0.0,0.0,0.0,0.0,0.0,0.0,0.0,-2.3384,-2.4507,-2.5238,-2.5332,-2.5398,-2.5453,-2.5519,-2.5442,-2.5278,-2.4956,-2.4517,-2.4003,-2.341,-2.2838,-2.2565,-2.2591,-2.2947,-2.3305,0.0,0.0,0.0,0.0,0.0,0.0,0.0,0.0,0.0,0.0,0.0,0.0,0.0,0.0,0.0,0.0,0.0,0.0,0.0,0.0,0.0,0.0,0.0,0.0,0.0,0.0,0.0,0.0,0.0,0.0,0.0,0.0,0.0,0.0,0.0,0.0,0.0,0.0,0.0,0.0,0.0,0.0,0.0,0.0,0.0,0.0,0.0,-2.5778,-2.6291,-2.6741,-2.7063,-2.6934,0.0,0.0,0.0,0.0,0.0,0.0,-2.2754,-2.2519,-2.2051,-2.1243,-2.1794,-2.2098,-2.2115,-2.2753,-2.3122,-2.3176,-2.3122,-2.2996,-2.2776,-2.2776,-2.265,-2.2502,-2.2582,-2.264,-2.2905,-2.5225,-2.626,-2.6393,-2.6273,-2.6243,-2.626,-2.6096,-2.6068,-2.6036,0.0,0.0,0.0,0.0,0.0,0.0,0.0,0.0,0.0,0.0,0.0,-2.1676,-2.3065,-2.4228,-2.5001,-2.5185,-2.5386,-2.5517,-2.5586,-2.5466,-2.5224,-2.4822,-2.4231,-2.3575,-2.286,-2.2241,-2.1969,-2.2039,0.0,0.0,0.0,0.0,0.0,0.0,0.0,0.0,0.0,0.0,0.0,0.0,0.0,0.0,0.0,0.0,0.0,0.0,0.0,0.0,0.0,0.0,0.0,0.0,0.0,0.0,0.0,0.0,0.0,0.0,0.0,0.0,0.0,0.0,0.0,0.0,0.0,0.0,0.0,0.0,0.0,0.0,0.0,0.0,0.0,0.0,0.0,0.0,0.0,0.0,0.0,-2.7452,-2.6834,0.0,0.0,0.0,0.0,-2.3423,-2.2908,-2.2263,-2.1448,-2.1198,-2.0763,-2.0004,-2.0552,-2.0842,-2.0805,-2.1584,-2.1972,-2.201,-2.1972,-2.1972,-2.1972,-2.184,-2.1747,-2.1762,-2.1747,-2.1723,-2.1738,-2.2728,-2.3227,-2.3383,-2.3195,-2.3178,-2.3199,-2.3023,-2.2933,-2.2933,0.0,0.0,0.0,0.0,0.0,0.0,0.0,0.0,-1.6538,-1.7711,-1.8876,-2.0483,-2.2761,-2.3511,-2.4073,-2.4572,-2.4879,-2.5108,-2.5272,-2.507,-2.47,-2.4185,-2.3488,-2.2583,-2.142,-2.1054,-2.0894,-2.0927,0.0,0.0,0.0,0.0,0.0,0.0,0.0,0.0,0.0,0.0,0.0,0.0,0.0,0.0,0.0,0.0,0.0,0.0,0.0,0.0,0.0,0.0,0.0,0.0,0.0,0.0,0.0,0.0,0.0,0.0,0.0,0.0,0.0,0.0,0.0,0.0,0.0,0.0,0.0,0.0,0.0,0.0,0.0,0.0,0.0,0.0,0.0,0.0,0.0,0.0,0.0,-2.6353,-2.5933,0.0,-2.5138,-2.442,-2.3705,-2.3025,-2.2583,-2.1853,-2.0655,-2.0489,-2.0108,-1.942,-1.9501,-1.9618,-1.9685,-1.9853,-2.0009,-2.01,-2.01,-2.0062,-1.9956,-1.9918,-1.9879,-1.9832,-1.9701,-1.9623,-1.9584,-1.959,-2.0584,-2.2018,-2.1942,-2.1942,-2.195,-2.1889,-2.1865,-2.1865,0.0,0.0,0.0,0.0,0.0,0.0,0.0,0.0,-1.4547,-1.5938,-1.6967,-1.8487,-2.0916,-2.1859,-2.2656,-2.3437,-2.3939,-2.4298,-2.4537,-2.4327,-2.3934,-2.3318,-2.226,-2.1193,-2.0131,-1.9854,-1.9763,0.0,0.0,0.0,0.0,0.0,0.0,0.0,0.0,0.0,0.0,0.0,0.0,0.0,0.0,0.0,-2.412,0.0,0.0,0.0,0.0,0.0,0.0,0.0,0.0,0.0,0.0,0.0,0.0,0.0,0.0,0.0,0.0,0.0,0.0,0.0,0.0,0.0,0.0,0.0,0.0,0.0,0.0,0.0,0.0,0.0,0.0,0.0,0.0,0.0,0.0,-2.4221,-2.4523,-2.511,-2.483,-2.4358,-2.386,-2.3436,-2.282,-2.196,-2.1596,-2.0839,-1.9618,-1.9523,-1.9188,-1.8489,-1.8369,-1.8355,-1.8408,-1.8302,-1.8302,-1.8408,-1.8408,-1.8369,-1.8316,-1.8263,-1.8224,-1.8173,-1.8001,-1.7921,-1.7854,-1.7544,-1.8372,-1.9845,-2.0062,-2.0171,-2.0226,-2.0117,-2.0076,-2.0076,0.0,0.0,0.0,0.0,0.0,0.0,0.0,-1.1595,-1.1818,-1.29,-1.4199,-1.5703,-1.7427,-1.919,-2.0675,-2.1764,-2.2503,-2.3012,-2.3379,-2.322,-2.2821,-2.2175,-2.0512,-1.9415,-1.9016,-1.8731,0.0,0.0,0.0,0.0,0.0,0.0,0.0,0.0,0.0,0.0,0.0,0.0,0.0,0.0,0.0,0.0,-2.486,0.0,0.0,0.0,0.0,0.0,0.0,0.0,0.0,0.0,0.0,0.0,0.0,0.0,0.0,0.0,0.0,0.0,0.0,0.0,0.0,0.0,0.0,0.0,0.0,0.0,0.0,0.0,0.0,0.0,0.0,0.0,0.0,0.0,-2.3503,-2.3367,-2.3299,-2.3808,-2.3473,-2.2861,-2.2087,-2.1512,-2.089,-2.01,-1.9693,-1.9128,-1.8309,-1.8226,-1.7932,-1.7212,-1.7199,-1.7102,-1.6993,-1.6993,-1.6993,-1.6993,-1.6993,-1.7047,-1.7157,-1.7047,-1.6993,-1.6951,-1.6841,-1.6727,-1.668,-1.668,-1.668,-1.6752,-1.7421,-1.7733,-1.7842,-1.757,-1.7475,-1.7434,0.0,0.0,0.0,0.0,0.0,0.0,0.0,-0.771,-0.8079,-0.9211,-1.0791,-1.233,-1.3708,-1.5737,-1.7551,-1.8994,-1.975,-2.043,-2.1011,-2.0898,-2.0268,-1.9021,-1.8035,0.0,-1.6881,0.0,0.0,0.0,0.0,0.0,0.0,0.0,0.0,0.0,0.0,0.0,0.0,0.0,0.0,0.0,0.0,0.0,-2.5093,0.0,0.0,0.0,0.0,0.0,0.0,0.0,0.0,0.0,0.0,0.0,0.0,0.0,0.0,0.0,0.0,0.0,0.0,0.0,0.0,0.0,0.0,0.0,0.0,0.0,0.0,0.0,0.0,0.0,0.0,0.0,-2.05,-2.0762,-2.1828,-2.1801,-2.157,-2.1372,-2.0754,-2.0124,-1.966,-1.9402,-1.8963,-1.8208,-1.8048,-1.7727,-1.7033,-1.6995,-1.6888,-1.6693,-1.6693,-1.6637,-1.6484,-1.6484,-1.6429,-1.633,-1.633,-1.6373,-1.6386,-1.6373,-1.633,-1.633,-1.6269,-1.6194,-1.6163,-1.5976,-1.5976,-1.6095,-1.6752,-1.706,-1.717,-1.6976,-1.6795,-1.6612,0.0,0.0,0.0,0.0,0.0,0.0,0.0,-0.3089,-0.3681,-0.5491,-0.7078,-0.8625,-1.0162,-1.181,-1.3504,-1.5156,-1.5995,-1.6859,-1.7807,-1.7885,-1.7363,0.0,0.0,0.0,0.0,0.0,0.0,0.0,0.0,0.0,0.0,0.0,0.0,0.0,0.0,0.0,0.0,0.0,0.0,0.0,0.0,0.0,-2.4953,-2.4979,-2.5011,-2.5058,-2.5094,-2.5113,-2.5149,-2.5128,0.0,0.0,0.0,0.0,0.0,0.0,0.0,0.0,0.0,0.0,0.0,0.0,0.0,0.0,0.0,0.0,0.0,0.0,0.0,0.0,0.0,0.0,0.0,0.0,-1.89,-1.8627,-1.9166,-1.9793,-2.0034,-1.9469,-1.889,-1.8421,-1.7987,-1.7777,-1.738,-1.6712,-1.663,-1.6406,-1.5925,-1.5957,-1.5901,-1.5744,-1.58,-1.5712,-1.5522,-1.5478,-1.5478,-1.5377,-1.5377,-1.541,-1.5487,-1.5421,-1.5377,-1.5377,-1.5209,-1.5164,-1.5164,-1.4983,-1.5028,-1.5209,0.0,0.0,0.0,0.0,-1.5832,-1.5478,0.0,0.0,0.0,0.0,0.0,0.0,0.0,0.1689,0.0894,-0.165,-0.3099,-0.4595,-0.6435,-0.7523,-0.887,-1.0572,-1.1562,-1.267,-1.4098,0.0,0.0,-1.3493,0.0,0.0,0.0,0.0,0.0,0.0,0.0,0.0,0.0,0.0,0.0,0.0,0.0,0.0,0.0,0.0,0.0,0.0,0.0,0.0,-2.4353,-2.4498,-2.4677,-2.483,-2.4911,-2.5007,-2.5086,-2.5102,0.0,0.0,0.0,0.0,0.0,0.0,0.0,0.0,0.0,0.0,0.0,0.0,0.0,0.0,0.0,0.0,0.0,0.0,0.0,0.0,0.0,0.0,0.0,0.0,-1.688,-1.6147,-1.6148,-1.7412,-1.8166,-1.7723,-1.7374,-1.7014,-1.6534,-1.6255,-1.5939,-1.539,-1.5322,-1.5187,-1.4971,-1.5074,0.0,0.0,0.0,-1.4686,-1.4384,-1.4326,-1.4326,-1.4326,-1.4326,-1.4408,-1.4571,-1.4408,-1.4326,-1.428,-1.4071,-1.3978,-1.3978,-1.3978,-1.4025,-1.4222,-1.5085,-1.5534,-1.5567,-1.5254,-1.4812,-1.4337,0.0,0.0,0.0,0.0,0.0,0.0,0.0,0.4915,0.3866,0.2623,0.1231,-0.0226,-0.1687,-0.2833,-0.4176,-0.5952,-0.7039,-0.8431,0.0,0.0,0.0,0.0,0.0,0.0,0.0,0.0,0.0,0.0,0.0,0.0,0.0,0.0,0.0,0.0,0.0,0.0,0.0,0.0,0.0,0.0,0.0,0.0,-2.2772,-2.3077,-2.34,-2.3729,-2.3907,-2.4109,-2.4343,-2.4495,-2.5208,-2.6036,-2.6119,0.0,0.0,0.0,0.0,0.0,0.0,0.0,0.0,0.0,0.0,0.0,0.0,0.0,0.0,0.0,0.0,0.0,0.0,0.0,0.0,-1.6074,-1.5517,-1.4908,-1.4443,-1.4294,-1.4438,-1.4903,-1.451,-1.4169,-1.3952,-1.3952,-1.3931,-1.3836,-1.4035,-1.4093,-1.4046,-1.428,-1.4362,-1.4305,-1.4419,-1.4384,-1.4067,-1.4067,-1.3962,-1.3752,-1.3752,0.0,-1.38,-1.3752,-1.3752,-1.3752,-1.3705,-1.3658,-1.3658,-1.3658,-1.3705,-1.3752,-1.4351,-1.4525,-1.449,-1.4305,-1.4129,-1.3905,0.0,0.0,0.0,0.0,0.0,0.0,0.0,0.8348,0.712,0.6323,0.5137,0.3921,0.2716,0.1697,0.0405,-0.1283,-0.3333,0.0,0.0,0.0,0.0,0.0,0.0,0.0,0.0,0.0,0.0,0.0,0.0,0.0,0.0,0.0,0.0,0.0,0.0,0.0,0.0,0.0,0.0,0.0,0.0,0.0,-1.6521,-1.9473,-2.0979,-2.1539,-2.1877,-2.226,-2.2682,-2.3088,-2.4031,-2.5068,-2.5432,-2.5649,-2.5774,0.0,0.0,0.0,0.0,0.0,0.0,0.0,0.0,0.0,0.0,0.0,0.0,0.0,0.0,-1.5389,-1.5204,0.0,-1.4521,-1.4316,-1.3453,-1.2629,-1.2172,-1.1629,-1.1746,-1.3155,-1.3066,-1.2851,-1.2812,-1.2861,-1.2919,-1.3016,-1.3112,-1.3218,-1.3218,-1.3399,-1.3505,-1.343,-1.3552,-1.3515,-1.3354,-1.3354,-1.3296,-1.3152,-1.32,-1.3296,-1.3286,-1.3344,-1.3354,-1.3354,-1.3296,-1.3248,-1.3248,-1.3248,-1.3248,-1.3296,-1.3525,-1.3658,-1.3789,-1.3742,-1.3573,-1.345,0.0,0.0,0.0,0.0,0.0,0.0,0.0,1.1324,1.019,0.9452,0.8642,0.7721,0.6683,0.5823,0.4481,0.2474,-0.0237,0.0,0.0,0.0,0.0,0.0,0.0,0.0,0.0,0.0,0.0,0.0,0.0,0.0,0.0,0.0,0.0,0.0,0.0,0.0,0.0,0.0,0.0,0.0,0.0,0.0,-0.9004,-1.3633,-1.6581,-1.8339,-1.8879,-1.95,-2.0202,-2.1009,-2.2277,-2.3647,-2.4334,-2.4724,-2.4995,-2.5215,-2.4482,0.0,0.0,0.0,0.0,0.0,0.0,0.0,0.0,0.0,-1.5001,-1.3766,-1.3162,-1.2987,-1.3698,-1.3177,-1.263,-1.2458,-1.1328,-1.0358,-1.0066,-0.9594,-0.9858,-1.1458,-1.1805,-1.1913,-1.1913,-1.1972,-1.207,-1.2169,-1.2276,-1.2325,-1.2325,-1.253,-1.2598,-1.2529,-1.2589,-1.2589,-1.2529,-1.2529,-1.2529,-1.2529,-1.2627,-1.2774,-1.2813,-1.2881,-1.2929,-1.2929,-1.2881,-1.2881,-1.2881,-1.2881,-1.2881,-1.2881,-1.2783,-1.2958,-1.318,-1.3276,-1.32,-1.3027,0.0,0.0,0.0,0.0,0.0,0.0,0.0,0.0,1.2506,1.1883,1.157,1.097,0.9915,0.8963,0.7146,0.403,0.0,0.0,0.0,0.0,0.0,0.0,0.0,0.0,0.0,0.0,0.0,0.0,0.0,0.0,0.0,0.0,0.0,0.0,0.0,0.0,0.0,0.0,0.0,0.0,0.0,0.0,-0.2859,-0.4125,-0.8314,-1.3583,-1.4399,-1.541,-1.6599,-1.7906,-1.9718,-2.1596,-2.2655,-2.3302,-2.3735,-2.4004,0.0,-2.2191,-2.1593,-2.0164,-1.8479,-1.7255,-1.6374,-1.5618,0.0,0.0,-1.2924,-1.1732,-1.1811,-1.198,-1.1829,-1.1374,-1.0939,-1.0572,-0.9853,-0.933,-0.9069,-0.8823,-0.8778,-0.8981,-0.9651,-1.0115,-1.0115,-1.0438,-1.0651,-1.0651,-1.1158,-1.1469,-1.1469,-1.1819,-1.2017,-1.1977,-1.2058,-1.2058,-1.1977,-1.1977,-1.1977,-1.1977,-1.1977,-1.2076,-1.2224,-1.2224,-1.2274,-1.2382,-1.2627,-1.2725,-1.2725,-1.2725,-1.2725,-1.2676,-1.248,-1.2372,-1.2471,-1.2822,-1.2881,-1.2735,0.0,0.0,0.0,0.0,0.0,0.0,0.0,0.0,0.0,1.3941,1.3744,1.3233,1.2165,1.0057,0.7787,0.0,0.0,0.0,0.0,0.0,0.0,0.0,0.0,0.0,0.0,0.0,0.0,0.0,0.0,0.0,0.0,0.0,0.0,0.0,0.0,0.0,0.0,0.0,0.0,0.0,0.0,0.0,0.2904,0.223,-0.0151,-0.3675,-0.8111,-1.066,0.0,0.0,-1.5982,-1.8079,-1.9387,-2.0639,-2.1756,-2.2322,-2.22,0.0,-1.8859,-1.7269,-1.6021,0.0,-1.4131,-1.3485,-1.2611,-1.1051,-0.9804,-0.9707,-0.9826,-0.9955,-0.9812,-0.9615,-0.9352,0.0,-0.8471,-0.7991,-0.7739,-0.7718,-0.7723,-0.7723,-0.8309,-0.8883,-0.9287,-0.9614,-0.9829,-0.9932,-1.0233,-1.0438,-1.0541,-1.0685,-1.0846,-1.1006,-1.1057,-1.1158,-1.1326,-1.1326,-1.1326,-1.1326,-1.1477,-1.1578,-1.1628,-1.1778,-1.1927,-1.2076,-1.2175,-1.2274,-1.2323,-1.2323,-1.2274,-1.2224,-1.2126,-1.2026,-1.1977,-1.2323,-1.2382,-1.2323,0.0,0.0,0.0,0.0,0.0,0.0,0.0,0.0,0.0,0.0,1.5077,1.4615,1.3249,1.0576,0.8238,0.0,0.0,0.0,0.0,0.0,0.0,0.0,0.0,0.0,0.0,0.0,0.0,0.0,0.0,0.0,0.0,0.0,0.0,0.0,0.0,0.0,0.0,0.0,0.0,0.0,0.0,0.0,0.8044,0.7388,0.6396,0.4462,-0.2228,-0.5804,0.0,0.0,-1.2393,-1.4624,-1.6339,-1.8014,-1.948,-2.0421,-2.016,-1.8857,-1.5734,-1.4302,0.0,-1.2178,-1.1501,-1.088,-0.9801,-0.8153,-0.6984,-0.7562,-0.7736,-0.7736,-0.7912,-0.7976,-0.7932,-0.7706,-0.7425,-0.709,-0.6808,-0.7023,-0.7192,-0.7144,-0.7574,-0.8103,-0.8613,-0.8988,-0.9256,-0.9361,-0.9562,-0.971,-0.9814,-0.9865,-0.9969,-1.019,-1.019,-1.03,-1.0557,-1.0557,-1.0557,-1.0608,-1.0804,-1.0905,-1.0956,-1.1217,-1.1368,-1.1519,-1.1669,-1.1778,-1.1877,-1.1877,-1.1828,-1.1728,-1.1569,-1.1418,-1.1368,-1.146,-1.166,-1.1877,0.0,0.0,0.0,0.0,0.0,0.0,0.0,0.0,0.0,0.0,0.0,0.0,0.0,0.0,0.0,0.0,0.0,0.0,0.0,0.0,0.0,0.0,0.0,0.0,0.0,0.0,0.0,0.0,0.0,0.0,0.0,0.0,0.0,0.0,0.0,0.0,0.0,0.0,0.0,0.0,0.0,0.0,1.233,1.1518,1.0366,0.8433,0.2492,0.0,0.0,0.0,-0.9333,-1.1818,-1.4173,-1.5723,0.0,-1.8391,-1.659,-1.3822,-1.2492,0.0,-1.0431,-0.9087,-0.8143,-0.7353,-0.6693,-0.5688,-0.4976,-0.5381,-0.544,-0.5609,-0.633,-0.6583,-0.6715,-0.6815,-0.6905,-0.692,-0.6747,-0.7144,-0.7413,-0.7311,-0.7634,-0.7842,0.0,-0.8374,-0.8804,-0.8804,-0.9211,-0.9413,-0.9413,-0.9562,-0.9614,-0.9614,-0.9614,-0.9614,-0.9666,-0.9666,-0.9718,-0.9814,-0.9865,-0.9917,-1.0064,-1.0344,-1.0454,-1.0506,-1.1065,-1.1326,-1.1326,-1.1326,-1.1326,-1.1276,-1.0659,-1.0454,-1.0395,-1.0174,-1.0592,-1.1326,0.0,0.0,0.0,0.0,0.0,0.0,0.0,0.0,0.0,0.0,0.0,0.0,0.0,0.0,0.0,0.0,0.0,0.0,0.0,0.0,0.0,0.0,0.0,0.0,0.0,0.0,0.0,0.0,0.0,0.0,0.0,0.0,0.0,0.0,0.0,0.0,0.0,0.0,0.0,0.0,0.0,0.0,1.5045,1.4189,1.3219,1.1911,0.0,0.0,0.0,0.0,-0.6868,-0.9521,-1.1114,-1.291,0.0,-1.0751,-0.9505,-0.8934,-0.7873,0.0,-0.6867,-0.5797,-0.4925,-0.413,-0.3502,-0.3002,-0.2812,-0.3136,-0.3675,-0.4317,-0.509,-0.5704,-0.6203,-0.6424,-0.685,-0.7231,-0.7209,-0.7723,-0.8103,-0.8055,-0.8209,0.0,0.0,0.0,0.0,-0.8533,-0.885,-0.9008,-0.9008,-0.9061,-0.9113,-0.9211,-0.9211,-0.9263,-0.9309,-0.9309,-0.9361,-0.9413,-0.951,-0.9614,-0.971,-0.9821,-0.9925,-1.0028,-1.0233,-1.0387,-1.0431,-1.0431,-1.0387,-1.0285,-1.0079,-0.9925,-0.9873,-0.9762,-0.9873,-1.0079,0.0,0.0,0.0,0.0,0.0,0.0,0.0,0.0,0.0,0.0,0.0,0.0,0.0,0.0,0.0,0.0,0.0,0.0,0.0,0.0,0.0,0.0,0.0,0.0,0.0,0.0,0.0,0.0,0.0,0.0,0.0,0.0,0.0,0.0,0.0,0.0,0.0,0.0,0.0,0.0,0.0,0.0,1.7029,1.596,1.4994,0.0,0.0,0.0,0.0,0.0,-0.439,-0.7174,-0.8699,-0.9996,-1.0276,-0.6607,-0.5596,-0.5503,-0.4854,-0.4401,-0.3826,-0.2789,-0.1924,-0.1166,-0.0528,-0.0472,-0.0613,-0.1071,-0.197,-0.3031,-0.3995,-0.4921,-0.5734,-0.6196,-0.6905,-0.7461,-0.7676,-0.8302,-0.8685,-0.8639,-0.8626,-0.8626,0.0,0.0,0.0,-0.8474,-0.8692,-0.8804,-0.8804,-0.8804,-0.8857,-0.891,-0.891,-0.8962,-0.9061,-0.9061,-0.9061,-0.9061,-0.9159,-0.9211,-0.9309,-0.9361,-0.9413,-0.951,-0.9614,-0.9718,-0.9762,-0.9762,-0.971,-0.9666,-0.9562,-0.9465,-0.9361,-0.9309,-0.9263,-0.9211,0.0,0.0,0.0,0.0,0.0,0.0,0.0,0.0,0.0,0.0,0.0,0.0,0.0,0.0,0.0,0.0,0.0,0.0,0.0,0.0,0.0,0.0,0.0,0.0,0.0,0.0,0.0,0.0,0.0,0.0,0.0,0.0,0.0,0.0,0.0,0.0,0.0,0.0,0.0,0.0,0.0,0.0,1.8349,1.6866,0.0,0.0,0.0,0.0,0.0,0.0,0.0,0.0,-0.7041,-0.7168,-0.6487,-0.5887,-0.4642,-0.3463,-0.3348,-0.2428,-0.1217,0.0,0.0834,0.1463,0.2134,0.2079,0.1594,0.0797,-0.0367,-0.1652,0.0,0.0,-0.5197,-0.6173,-0.7031,-0.7711,-0.8121,-0.8804,-0.9187,0.0,0.0,0.0,0.0,0.0,0.0,-0.8521,-0.8692,-0.8752,-0.8752,-0.8752,-0.8752,-0.8804,-0.8804,-0.8804,-0.8804,-0.8804,-0.8804,-0.8804,-0.8804,-0.8804,-0.8804,-0.8956,-0.9008,-0.9008,-0.9263,-0.9361,-0.9361,-0.9361,-0.9361,-0.9361,-0.9113,-0.9008,-0.8956,-0.8857,-0.8804,-0.8804,0.0,0.0,0.0,0.0,0.0,0.0,0.0,0.0,0.0,0.0,0.0,0.0,0.0,0.0,0.0,0.0,0.0,0.0,0.0,0.0,0.0,0.0,0.0,0.0,0.0,0.0,0.0,0.0,0.0,0.0,0.0,0.0,0.0,0.0,0.0,0.0,0.0,0.0,0.0,0.0,0.0,0.0,1.8668,0.0,0.0,0.0,0.0,0.0,0.0,0.0,0.0,0.0,0.0,-0.6206,-0.5031,-0.367,-0.2635,-0.1753,-0.0657,0.05,0.1633,0.2768,0.3561,0.4139,0.4537,0.4203,0.3539,0.2382,0.102,-0.0473,0.0,0.0,0.0,-0.6164,-0.751,0.0,-0.9326,-0.9694,0.0,-0.9663,0.0,-0.8672,-0.8268,-0.7943,0.0,-0.7783,-0.799,-0.8203,-0.8328,-0.8328,-0.8427,-0.8633,-0.8633,-0.8692,-0.8804,-0.8804,-0.8804,-0.8804,-0.8804,-0.8804,-0.8804,-0.8857,-0.8857,-0.8857,-0.891,-0.8956,-0.8956,-0.8956,-0.8956,-0.8962,-0.8857,-0.8798,-0.8685,-0.8685,-0.8533,-0.8381,0.0,0.0,0.0,0.0,0.0,0.0,0.0,0.0,0.0,0.0,0.0,0.0,0.0,0.0,0.0,0.0,0.0,0.0,0.0,0.0,0.0,0.0,0.0,0.0,0.0,0.0,0.0,0.0,0.0,0.0,0.0,0.0,0.0,0.0,0.0,0.0,0.0,0.0,0.0,0.0,0.0,0.0,0.0,0.0,0.0,0.0,0.0,0.0,0.0,0.0,0.0,-0.5238,-0.4969,-0.4375,-0.3542,-0.196,0.0,0.043,0.1866,0.3032,0.4097,0.5179,0.5827,0.6258,0.6544,0.5997,0.5078,0.3975,0.2368,0.0,-0.0973,-0.2604,0.0,0.0,0.0,0.0,-0.9078,-0.9519,-0.9646,0.0,-0.8854,0.0,-0.7848,-0.7343,-0.702,-0.6918,-0.7402,-0.7783,-0.7895,-0.7949,-0.8103,-0.8302,-0.8415,-0.858,-0.8692,-0.8593,-0.854,-0.854,-0.8427,-0.8421,-0.8421,-0.8421,-0.8421,-0.8421,-0.8487,-0.854,-0.854,-0.8593,-0.8639,-0.8639,-0.8639,-0.8586,-0.8521,-0.8521,-0.8374,-0.8168,0.0,0.0,0.0,0.0,0.0,0.0,0.0,0.0,0.0,0.0,0.0,0.0,0.0,0.0,0.0,0.0,0.0,0.0,0.0,0.0,0.0,0.0,0.0,0.0,0.0,0.0,0.0,0.0,0.0,0.0,0.0,0.0,0.0,0.0,0.0,0.0,0.0,0.0,0.0,0.0,0.0,0.0,0.0,0.0,0.0,0.0,0.0,0.0,0.0,0.0,-0.0902,-0.2918,-0.2303,-0.2101,-0.1842,-0.021,0.1289,0.2804,0.4287,0.5383,0.6362,0.7376,0.7829,0.8106,0.8285,0.7418,0.6348,0.5379,0.0,0.1712,0.0278,-0.1371,-0.2982,-0.4452,0.0,-0.7165,-0.8104,-0.8741,-0.8989,-0.8626,-0.8196,-0.7678,-0.7139,-0.6495,-0.61,-0.6046,-0.6756,-0.7246,-0.73,-0.7456,-0.761,-0.7824,-0.815,-0.8368,-0.8468,-0.8268,-0.8115,-0.8115,-0.7937,-0.7824,-0.7824,-0.7824,-0.7824,-0.7877,-0.8055,-0.8115,-0.8115,-0.8215,-0.8262,-0.8262,-0.8315,-0.8315,-0.8262,-0.8262,-0.8162,-0.8002,0.0,0.0,0.0,0.0,0.0,0.0,0.0,0.0,0.0,0.0,1.8873,1.9093,0.0,0.0,0.0,0.0,0.0,0.0,0.0,0.0,0.0,0.0,0.0,0.0,0.0,0.0,0.0,0.0,0.0,0.0,0.0,0.0,0.0,0.0,0.0,0.0,0.0,0.0,0.0,0.0,0.0,0.0,0.0,0.0,0.0,0.0,0.0,0.0,0.0,0.0,0.164,-0.0594,-0.0594,-0.0162,0.0651,0.2487,0.3971,0.5367,0.6833,0.7893,0.8677,0.9489,0.982,0.9819,0.9497,0.8534,0.0,0.0,0.4295,0.2583,0.1274,-0.0515,-0.224,-0.3618,-0.5265,-0.6742,-0.7678,-0.8048,-0.816,0.0,-0.7242,-0.6606,-0.6124,-0.5699,0.0,0.0,-0.5555,-0.5878,-0.6426,-0.6539,-0.6923,-0.7568,-0.783,-0.7931,-0.7883,-0.783,-0.7729,-0.7628,-0.7574,-0.7568,-0.7568,-0.7568,-0.7568,-0.7568,-0.7628,-0.7628,-0.7628,-0.7628,-0.7681,-0.7676,-0.7783,-0.7729,-0.7681,-0.7681,-0.7413,-0.709,0.0,0.0,0.0,0.0,0.0,0.0,0.0,1.8398,1.757,1.6741,1.7009,1.7565,1.835,1.8459,0.0,0.0,0.0,0.0,0.0,0.0,0.0,0.0,0.0,0.0,0.0,0.0,0.0,0.0,0.0,0.0,0.0,0.0,0.0,0.0,0.0,0.0,0.0,0.0,0.0,0.0,0.0,0.0,0.0,0.0,0.0,0.0,0.0,0.0,0.0,0.0,0.466,0.3542,0.2513,0.2728,0.3695,0.5366,0.6723,0.7967,0.9247,1.0124,1.0889,1.1513,1.163,1.1442,1.0767,0.0,0.0,0.0,0.5143,0.3523,0.2321,0.0687,0.0,-0.2313,-0.3817,-0.5152,-0.6094,-0.6634,0.0,-0.6509,-0.6134,-0.5701,0.0,-0.4998,-0.4846,-0.4794,-0.4846,-0.5117,-0.5714,-0.605,-0.6495,-0.7144,-0.7182,-0.7289,-0.7402,-0.7074,-0.6912,-0.681,-0.6701,-0.6593,-0.6593,-0.6593,-0.6593,-0.6647,-0.6756,-0.681,-0.681,-0.6972,-0.7025,-0.7025,-0.7074,-0.7139,-0.7198,-0.7198,-0.7036,-0.6761,0.0,0.0,0.0,0.0,0.0,0.0,0.0,1.7822,1.6605,1.5312,1.5155,1.5678,1.7131,1.8175,1.8885,0.0,0.0,0.0,0.0,0.0,0.0,0.0,0.0,0.0,0.0,0.0,0.0,0.0,0.0,0.0,0.0,0.0,0.0,0.0,0.0,0.0,0.0,0.0,0.0,0.0,0.0,0.0,0.0,0.0,0.0,0.0,0.0,0.0,0.0,0.0,0.7393,0.7588,0.625,0.6183,0.677,0.8203,0.9307,1.037,1.1446,1.225,1.284,1.329,1.3338,1.2959,1.187,1.0582,0.0,0.0,0.5955,0.433,0.3257,0.0,0.0176,0.0,-0.244,-0.3599,-0.4326,-0.5077,-0.5432,0.0,-0.5161,0.0,-0.4513,-0.4428,0.0,-0.4411,-0.4463,-0.4736,-0.5171,-0.5614,-0.6109,-0.6603,-0.6485,-0.6534,-0.6761,-0.6322,-0.6046,-0.5987,-0.5773,-0.5719,-0.5719,-0.5719,-0.5719,-0.5719,-0.5937,-0.5987,-0.6046,-0.6263,-0.6312,-0.6312,-0.6372,-0.6485,-0.6603,-0.6603,-0.6544,-0.6372,0.0,0.0,0.0,0.0,0.0,0.0,0.0,1.8001,1.6579,1.4656,1.4501,1.4601,1.4636,1.6873,1.8647,0.0,0.0,0.0,0.0,0.0,0.0,0.0,0.0,0.0,0.0,0.0,0.0,0.0,0.0,0.0,0.0,0.0,0.0,0.0,0.0,0.0,0.0,0.0,0.0,0.0,0.0,0.0,0.0,0.0,0.0,0.0,0.0,0.0,0.0,0.0,0.0,0.9843,1.0418,0.9913,0.9424,1.0739,0.0,0.0,1.3212,1.3986,1.4516,1.4664,1.471,1.4283,1.2743,0.0,0.0,0.8205,0.6347,0.4754,0.3899,0.2178,0.0,0.0,0.0,-0.2833,0.0,-0.3951,-0.4414,-0.4403,0.0,0.0,-0.3992,-0.4107,-0.4155,-0.403,-0.4353,-0.4625,-0.4897,-0.5226,-0.5449,-0.5727,-0.5832,-0.5832,-0.5727,-0.5677,-0.5559,-0.5386,-0.5336,-0.5332,-0.5332,-0.5332,-0.5332,-0.5332,-0.5386,-0.5386,-0.5386,-0.5386,-0.5441,-0.5441,-0.5614,-0.5727,-0.5732,-0.5732,-0.5614,-0.5391,0.0,0.0,0.0,0.0,0.0,0.0,1.8986,1.8021,1.6578,1.4609,1.4209,1.4088,1.4123,1.611,1.8163,1.9946,0.0,0.0,0.0,0.0,0.0,0.0,0.0,0.0,0.0,0.0,0.0,0.0,0.0,0.0,0.0,0.0,0.0,0.0,0.0,0.0,0.0,0.0,0.0,0.0,0.0,0.0,0.0,0.0,0.0,0.0,0.0,0.0,0.0,0.0,0.0,0.0,1.1392,1.1607,0.0,0.0,1.3328,1.3961,1.4744,1.5386,1.584,1.6027,1.5697,1.4952,1.3538,0.0,1.0177,0.8577,0.6693,0.5035,0.4117,0.2508,0.1022,0.0,0.0,0.0,-0.2475,0.0,-0.3489,-0.3489,-0.3666,0.0,0.0,0.0,-0.3938,-0.4092,-0.4353,-0.4574,-0.468,-0.4846,-0.5069,-0.5289,-0.5285,-0.5285,-0.5289,-0.5128,-0.5018,-0.4959,-0.4846,-0.4846,-0.4846,-0.4846,-0.4846,-0.4846,-0.4901,-0.4959,-0.4959,-0.5011,-0.5062,-0.5062,-0.512,-0.5234,-0.5289,-0.5289,-0.5234,-0.5175,0.0,0.0,0.0,0.0,0.0,1.8816,1.9158,1.8383,1.7099,1.5205,1.4567,1.4284,1.4298,1.6121,1.8217,2.039,1.9953,0.0,0.0,0.0,0.0,0.0,0.0,0.0,0.0,0.0,0.0,0.0,0.0,0.0,0.0,0.0,0.0,0.0,0.0,0.0,0.0,0.0,0.0,0.0,0.0,0.0,0.0,0.0,0.0,0.0,0.0,0.0,0.0,0.0,0.0,0.0,0.0,0.0,0.0,0.0,1.4433,1.5062,1.5876,1.6429,1.6824,1.7047,1.6484,1.556,0.0,0.0,1.0349,0.8685,0.6735,0.5031,0.4008,0.2454,0.1075,0.0,0.0,-0.1743,-0.2055,-0.2574,-0.2956,0.0,0.0,-0.3279,-0.3338,-0.3559,-0.3781,-0.4144,-0.4301,-0.4463,-0.4519,-0.4577,-0.4743,-0.4904,-0.4846,-0.4846,-0.4904,-0.4743,-0.4632,-0.4632,-0.4519,-0.4463,-0.4408,-0.4408,-0.4408,-0.4353,-0.4467,-0.4522,-0.4581,-0.4629,-0.4736,-0.4791,-0.4791,-0.4846,-0.4904,-0.4904,-0.4904,-0.4904,0.0,0.0,0.0,0.0,0.0,0.0,1.9537,1.9233,1.8251,1.6515,1.5813,1.5366,1.5026,1.7028,1.903,2.0666,1.9947,0.0,0.0,0.0,0.0,0.0,0.0,0.0,0.0,0.0,0.0,0.0,0.0,0.0,0.0,0.0,0.0,0.0,0.0,0.0,0.0,0.0,0.0,0.0,0.0,0.0,0.0,0.0,0.0,0.0,0.0,0.0,0.0,0.0,0.0,0.0,0.0,0.0,0.0,0.0,1.4858,1.5478,1.6454,1.7102,1.7557,1.776,1.7169,1.6192,0.0,0.0,1.0507,0.8434,0.6395,0.468,0.3517,0.2007,0.0735,0.0117,0.0,0.0,-0.2055,-0.2443,0.0,0.0,0.0,-0.322,-0.3221,-0.3435,-0.3694,-0.3968,-0.4138,-0.4301,-0.4463,-0.4519,-0.4519,-0.4519,-0.4519,-0.4519,-0.4519,-0.4519,-0.4519,-0.4519,-0.4519,-0.4408,-0.4193,-0.4193,-0.4138,-0.4024,-0.4024,-0.4079,-0.4193,-0.4193,-0.4301,-0.4519,-0.4519,-0.4519,-0.4519,-0.4519,-0.4519,-0.4519,0.0,0.0,0.0,0.0,0.0,0.0,0.0,1.9174,1.9003,1.7775,1.6957,1.6466,1.6317,1.7188,1.8487,2.0231,2.0497,0.0,0.0,0.0,0.0,0.0,0.0,0.0,0.0,0.0,0.0,0.0,0.0,0.0,0.0,0.0,0.0,0.0,0.0,0.0,0.0,0.0,0.0,0.0,0.0,0.0,0.0,0.0,0.0,0.0,0.0,0.0,0.0,0.0,0.0,0.0,0.0,0.0,0.0,1.0197,1.2497,1.4589,1.5405,1.6279,1.6957,1.6757,1.6009,1.4941,1.3213,0.0,0.8799,0.6886,0.4956,0.3248,0.2136,0.0947,-0.0056,-0.0626,-0.143,0.0,0.0,0.0,0.0,-0.2956,-0.3051,-0.2995,0.0,-0.3101,-0.3355,-0.358,-0.3799,-0.4021,-0.4301,-0.4301,-0.4356,-0.4519,-0.4519,-0.4519,-0.4519,-0.4519,-0.4408,-0.4301,-0.4301,-0.419,-0.391,-0.3852,-0.3744,-0.358,-0.358,-0.3688,-0.3796,-0.391,-0.4079,-0.4301,-0.4301,-0.4356,-0.4519,-0.4519,-0.4519,-0.4519,0.0,0.0,0.0,0.0,0.0,0.0,0.0,1.864,1.8746,1.8099,1.7283,1.6694,1.6636,1.7394,1.8416,1.9687,2.0131,0.0,0.0,0.0,0.0,0.0,0.0,0.0,0.0,0.0,0.0,0.0,0.0,0.0,0.0,0.0,0.0,0.0,0.0,0.0,0.0,0.0,0.0,0.0,0.0,0.0,-0.7076,0.0,0.0,0.0,0.0,0.0,0.0,0.0,0.0,0.0,0.0,0.0,0.0,0.0,0.8873,1.1407,0.0,1.4654,1.529,1.5106,1.4273,1.302,0.0,0.0,0.6803,0.5059,0.324,0.1728,0.0822,0.0,-0.0671,-0.1065,-0.1539,0.0,0.0,0.0,0.0,-0.265,0.0,0.0,0.0,-0.2567,-0.2796,-0.3023,-0.3299,-0.3574,-0.386,-0.3971,-0.4027,-0.4135,-0.4301,-0.4411,-0.4411,-0.4298,-0.4187,-0.4024,-0.3971,-0.3747,-0.3461,-0.335,-0.3128,-0.2965,-0.2965,-0.3074,0.0,-0.3405,-0.3685,-0.3965,-0.4079,-0.4245,-0.4408,-0.4463,-0.4519,-0.4519,0.0,0.0,0.0,0.0,0.0,0.0,0.0,1.7756,1.7681,1.7586,1.6729,1.6082,1.5995,1.7412,1.8512,1.8866,0.0,0.0,0.0,0.0,0.0,0.0,0.0,0.0,0.0,0.0,0.0,-0.4272,-1.3925,-1.6092,-1.1089,0.0,0.0,0.0,0.0,0.0,0.0,0.0,0.0,0.0,-0.6675,-0.8417,0.0,0.0,0.0,0.0,0.0,0.0,0.0,0.0,0.0,0.0,0.0,0.0,0.0,0.0,0.0,0.0,0.0,1.1995,1.2588,1.2699,1.1802,1.055,0.9022,0.0,0.0,0.2878,0.1382,0.0204,-0.0441,-0.095,-0.1231,-0.1182,-0.1482,0.0,0.0,-0.2145,0.0,0.0,-0.2135,0.0,-0.1887,-0.1884,-0.2073,-0.241,-0.2685,-0.2963,-0.3357,-0.3471,-0.3527,-0.3583,-0.3916,-0.4082,-0.4138,-0.391,-0.3741,-0.3741,-0.3466,-0.3188,-0.2794,-0.2681,-0.246,-0.2128,-0.2128,-0.2294,-0.2625,-0.2794,-0.3128,-0.3572,-0.3855,-0.4024,-0.4193,-0.4408,-0.4463,-0.4463,0.0,0.0,0.0,0.0,0.0,0.0,0.0,0.0,0.0,0.0,1.5148,1.418,1.3993,1.5188,1.6256,0.0,0.0,0.0,0.0,0.0,0.0,0.0,0.0,0.0,0.0,0.0,0.0,-1.2007,-1.4891,-1.6662,-1.7389,-1.7652,0.0,0.0,0.0,0.0,0.0,0.0,0.0,0.0,-0.909,-1.0058,0.0,0.0,0.0,0.0,-0.7152,-0.5864,0.0,0.0,0.0,0.0,0.0,0.0,0.0,0.0,0.1538,0.2504,0.3762,0.0,0.8936,0.8431,0.7712,0.6774,0.0,0.0,0.0,0.0,0.0,-0.174,-0.2204,-0.2294,-0.2259,-0.2028,0.0,-0.1926,-0.2035,0.0,0.0,-0.1876,-0.1758,-0.1583,-0.1359,-0.1316,-0.1457,-0.179,-0.1958,-0.2291,-0.285,-0.2905,-0.3019,-0.3188,-0.3128,-0.3241,-0.358,-0.3524,-0.3299,-0.2959,-0.2903,-0.2571,-0.2069,-0.19,-0.1679,-0.1346,-0.1346,-0.1568,-0.19,-0.2125,-0.2571,-0.3072,-0.3411,-0.3691,-0.391,-0.4076,-0.4076,-0.3962,0.0,0.0,0.0,0.0,0.0,0.0,0.0,0.0,0.0,0.0,0.0,0.0,0.0,0.0,0.0,0.0,0.0,0.0,0.0,0.0,0.0,0.0,0.0,0.0,0.0,0.0,0.0,0.0,0.0,-1.6797,0.0,0.0,0.0,0.0,0.0,0.0,0.0,0.0,0.0,0.0,-1.0479,0.0,0.0,0.0,0.0,0.0,-0.7345,-0.6241,0.0,-0.4618,-0.4052,-0.3435,0.0,0.0,0.0,0.0,-0.0663,-0.0268,-0.0095,0.2359,0.471,0.4058,0.3435,0.2671,0.1563,0.0,0.0,0.0,0.0,0.0,-0.2934,-0.2834,0.0,0.0,-0.2017,0.0,0.0,0.0,-0.1598,-0.136,-0.1272,-0.1114,-0.0828,-0.0812,-0.0912,-0.1177,-0.1288,-0.1568,-0.1958,-0.2014,-0.2127,-0.2294,-0.2127,-0.2404,-0.3074,-0.2796,-0.2517,-0.2291,-0.2069,-0.179,-0.14,-0.1232,-0.1064,-0.0785,-0.0785,-0.0953,-0.1232,-0.1456,-0.1903,-0.246,-0.2912,-0.3244,-0.3519,-0.3688,-0.3691,-0.3577,0.0,0.0,0.0,0.0,0.0,0.0,0.0,0.0,0.0,0.0,0.0,0.0,0.0,0.0,0.0,0.0,0.0,0.0,0.0,0.0,0.0,0.0,0.0,0.0,0.0,0.0,0.0,0.0,0.0,0.0,0.0,0.0,-2.0954,0.0,0.0,0.0,0.0,0.0,0.0,0.0,-1.1065,0.0,0.0,0.0,0.0,0.0,0.0,0.0,0.0,-0.4792,-0.4316,-0.3884,-0.3575,0.0,0.0,0.0,0.0,0.0,-0.2246,-0.0957,0.0293,-0.005,-0.0663,-0.1265,-0.171,0.0,0.0,0.0,0.0,0.0,0.0,-0.3,0.0,0.0,0.0,0.0,-0.1139,-0.1009,-0.0933,-0.0782,-0.071,-0.0629,-0.0418,-0.0353,-0.0405,-0.0618,-0.0729,-0.0842,-0.101,-0.1122,-0.1234,-0.1234,-0.1234,-0.1569,-0.2402,-0.1902,-0.168,-0.1623,-0.1233,-0.0954,-0.0785,-0.0673,-0.0505,-0.0336,-0.0336,-0.0449,-0.0617,-0.0898,-0.1289,-0.1734,-0.2296,-0.2687,-0.2963,-0.3135,-0.319,-0.3132,0.0,0.0,0.0,0.0,0.0,0.0,0.0,0.0,0.0,0.0,0.0,0.0,0.0,0.0,0.0,0.0,0.0,0.0,0.0,0.0,0.0,0.0,0.0,0.0,0.0,0.0,0.0,0.0,0.0,0.0,-1.7883,-1.8601,-1.9351,-2.0037,0.0,0.0,0.0,0.0,0.0,-1.0718,-1.0871,0.0,0.0,0.0,0.0,0.0,0.0,0.0,0.0,-0.484,-0.4456,-0.4064,-0.402,0.0,0.0,0.0,0.0,0.0,-0.3376,-0.3685,-0.3726,-0.3238,-0.3577,-0.409,0.0,0.0,0.0,0.0,0.0,0.0,0.0,-0.3275,-0.287,0.0,0.0,-0.1272,0.0,0.0,-0.0605,-0.0536,-0.0449,-0.0372,-0.0307,-0.0175,-0.0113,-0.028,-0.028,-0.0449,-0.0729,-0.0785,-0.0842,-0.0954,-0.0842,-0.0841,-0.1008,-0.1121,-0.1065,-0.0841,-0.0785,-0.0617,-0.028,-0.028,-0.0224,-0.0056,-0.0056,-0.0168,-0.028,-0.0449,-0.0785,-0.1233,-0.1623,-0.1958,-0.2181,-0.235,-0.2238,-0.2014,0.0,0.0,0.0,0.0,0.0,0.0,0.0,0.0,0.0,0.0,0.0,0.0,0.0,0.0,0.0,0.0,0.0,0.0,0.0,0.0,0.0,0.0,0.0,0.0,0.0,0.0,0.0,0.0,0.0,-1.4371,-1.6307,-1.9018,-1.9996,-1.9525,0.0,0.0,-1.4619,-1.259,-1.12,-1.0344,0.0,0.0,0.0,0.0,0.0,0.0,0.0,0.0,0.0,0.0,-0.4148,-0.3843,-0.3843,0.0,0.0,0.0,0.0,0.0,-0.3574,-0.433,-0.4943,-0.4833,-0.5353,0.0,0.0,0.0,0.0,0.0,0.0,0.0,0.0,0.0,-0.2447,-0.1966,0.0,-0.0942,-0.0607,-0.0337,-0.0201,-0.0198,-0.0193,-0.0125,-0.0121,-0.0059,0.0,-0.0112,-0.0112,-0.0168,-0.0336,-0.0336,-0.0336,-0.0393,-0.0336,-0.0336,-0.0336,-0.0449,-0.0505,-0.0449,-0.0336,-0.0224,-0.0112,-0.0112,-0.0056,0.0,0.0,-0.0056,-0.0112,-0.0224,-0.0449,-0.0729,-0.1064,-0.1344,-0.1513,-0.1569,-0.1456,-0.1288,0.0,0.0,0.0,0.0,0.0,0.0,0.0,0.0,0.0,0.0,0.0,0.0,0.0,0.0,0.0,0.0,0.0,0.0,0.0,0.0,0.0,0.0,0.0,0.0,0.0,0.0,-0.9922,-1.0171,-1.1152,-1.2769,-1.5099,-1.9213,-2.0478,0.0,0.0,-1.7183,-1.4463,-1.2541,-1.104,-0.9969,0.0,0.0,0.0,0.0,0.0,0.0,0.0,0.0,0.0,0.0,0.0,0.0,0.0,0.0,0.0,-0.3137,-0.3137,-0.3137,-0.3382,-0.4119,-0.4898,-0.5296,0.0,0.0,0.0,0.0,0.0,0.0,0.0,0.0,0.0,-0.2312,0.0,-0.1273,-0.0941,-0.0605,-0.0337,-0.0134,0.0,0.0,0.0,0.0,0.0,0.0,0.0,0.0,0.0,0.0,0.0,0.0,0.0,0.0,0.0,0.0,0.0,0.0,-0.0056,-0.0168,-0.0056,0.0,0.0,0.0,0.0,0.0,0.0,0.0,0.0,-0.0112,-0.0224,-0.0393,-0.0617,-0.0842,-0.0954,-0.0898,-0.0842,-0.0729,0.0,0.0,0.0,0.0,0.0,0.0,0.0,0.0,0.0,0.0,0.0,0.0,0.0,0.0,0.0,0.0,0.0,0.0,0.0,0.0,0.0,0.0,0.0,0.0,0.0,-0.8241,-0.8171,-0.8293,-0.8751,-1.1041,-1.5072,-1.8065,-1.9246,-1.8808,-1.8355,-1.6684,-1.412,-1.2376,-1.0939,-0.9762,-0.9413,0.0,0.0,0.0,0.0,0.0,0.0,0.0,0.0,0.0,0.0,0.0,0.0,0.0,-0.301,-0.301,-0.2888,-0.2766,-0.2968,-0.3488,-0.4065,-0.4466,0.0,0.0,0.0,0.0,0.0,0.0,0.0,0.0,0.0,-0.1933,-0.1275,-0.0873,-0.0672,-0.0471,-0.0337,-0.0132,0.0,0.0,0.0,0.0,0.0,0.0,0.0,0.0,0.0,0.0,0.0,0.0,0.0,0.0,0.0,0.0,0.0,0.0,0.0,0.0,0.0,0.0,0.0,0.0,0.0,0.0,0.0,0.0,0.0,0.0,-0.0112,-0.0224,-0.0224,-0.0336,-0.0449,-0.0336,-0.028,-0.0224,0.0,0.0,0.0,0.0,0.0,0.0,0.0,0.0,0.0,0.0,0.0,0.0,0.0,0.0,0.0,0.0,0.0,0.0,0.0,0.0,0.0,0.0,0.0,-0.4747,-0.4729,-0.5505,-0.5796,-0.556,-0.7346,-0.9945,-1.3327,-1.6395,0.0,0.0,-1.7806,-1.6438,-1.422,-1.2725,-1.1325,-1.0012,-0.9347,-0.8326,0.0,0.0,0.0,0.0,0.0,0.0,0.0,0.0,-0.3751,-0.3581,-0.3581,-0.3384,-0.3137,-0.3137,-0.2974,-0.287,-0.3074,-0.3373,-0.3689,-0.3977,0.0,0.0,0.0,0.0,0.0,0.0,0.0,0.0,0.0,0.0,-0.0726,-0.0537,-0.0404,-0.0335,-0.0132,-0.0065,0.0,0.0,0.0,0.0,0.0,0.0,0.0,0.0,0.0,0.0,0.0,0.0,0.0,0.0,0.0,0.0,0.0,0.0,0.0,0.0,0.0,0.0,0.0,0.0,0.0,0.0,0.0,0.0,0.0,0.0,-0.0056,-0.0056,-0.0056,-0.0112,-0.0168,-0.0112,-0.0056,-0.0056,0.0,0.0,0.0,0.0,0.0,0.0,0.0,0.0,0.0,0.0,0.0,0.0,0.0,0.0,0.0,0.0,0.0,0.0,0.0,0.0,0.0,0.0,0.0,-0.3056,-0.1782,-0.2622,-0.3085,-0.3071,-0.5874,-0.8824,-1.1871,0.0,0.0,0.0,-1.7324,-1.6321,-1.4539,-1.3253,-1.1904,-1.0517,-0.9585,-0.8326,0.0,0.0,0.0,0.0,0.0,0.0,0.0,0.0,-0.3527,-0.3534,0.0,-0.3384,-0.3182,-0.3182,-0.3088,-0.2973,-0.3061,-0.3159,-0.3294,0.0,0.0,0.0,0.0,0.0,0.0,0.0,0.0,0.0,0.0,0.0,0.0,0.0,-0.02,-0.0132,0.0,0.0,0.0,0.0,0.0,0.0,0.0,0.0,0.0,0.0,0.0,0.0,0.0,0.0,0.0,0.0,0.0,0.0,0.0,0.0,0.0,0.0,0.0,0.0,0.0,0.0,0.0,0.0,0.0,0.0,0.0,0.0,0.0,0.0,0.0,0.0,0.0,0.0,0.0,0.0,0.0,0.0,0.0,0.0,0.0,0.0,0.0,0.0,0.0,0.0,0.0,0.0,0.0,0.0,0.0,0.0,0.0,0.0,0.0,0.0,0.0,0.0,0.0,-0.2119,-0.0449,0.0108,-0.0052,-0.1,-0.4272,-0.7642,-1.1039,-1.3794,0.0,0.0,-1.6944,-1.6225,-1.4994,-1.3878,-1.2628,-1.1308,-1.0084,-0.8629,-0.7104,0.0,0.0,0.0,0.0,0.0,0.0,0.0,-0.3262,-0.3398,-0.3398,0.0,-0.3182,-0.3185,-0.311,-0.2993,-0.2826,-0.2883,-0.2973,0.0,0.0,0.0,0.0,0.0,0.0,0.0,0.0,0.0,-0.0904,0.0,0.0,0.0,0.0,0.0,0.0,0.0,0.0,0.0,0.0,0.0,0.0,0.0,0.0,0.0,0.0,0.0,0.0,0.0,0.0,0.0,0.0,0.0,0.0,0.0,0.0,0.0,0.0,0.0,0.0,0.0,0.0,0.0,0.0,0.0,0.0,0.0,0.0,0.0,0.0,0.0,0.0,0.0,0.0,0.0,0.0,0.0,0.0,0.0,0.0,0.0,0.0,0.0,0.0,0.0,0.0,0.0,0.0,0.0,0.0,0.0,0.0,0.0,0.0,0.0,0.0,0.0,0.0,0.0,0.0,0.0,-0.1143,-0.1796,-0.4415,-0.7332,0.0,0.0,0.0,-1.5699,0.0,0.0,-1.3994,-1.3021,-1.208,-1.1055,-0.9738,-0.8517,-0.7384,0.0,0.0,0.0,0.0,0.0,0.0,0.0,0.0,0.0,-0.2998,0.0,-0.3067,-0.316,-0.3158,-0.3131,-0.3218,-0.301,0.0,0.0,0.0,0.0,0.0,0.0,0.0,0.0,0.0,-0.1124,-0.0563,-0.0248,0.0,0.0,0.0,0.0,0.0,0.0,0.0,0.0,0.0,0.0,0.0,0.0,0.0,0.0,0.0,0.0,0.0,0.0,0.0,0.0,0.0,0.0,0.0,0.0,0.0,0.0,0.0,0.0,0.0,0.0,0.0,0.0,0.0,0.0,0.0,0.0,0.0,0.0,0.0,0.0,0.0,0.0,0.0,0.0,0.0,0.0,0.0,0.0,0.0,0.0,0.0,0.0,0.0,0.0,0.4281,0.1855,0.0,0.0,0.0,0.0,0.0,0.0,-0.8696,-0.8511,0.0,0.0,0.0,0.0,0.0,-0.2389,-0.2865,0.0,0.0,0.0,0.0,0.0,0.0,-1.4712,0.0,-1.407,-1.326,-1.2436,-1.1626,-1.0763,-0.9438,-0.8293,-0.7206,0.0,0.0,0.0,0.0,0.0,0.0,0.0,0.0,0.0,0.0,0.0,0.0,-0.2967,-0.2998,-0.3,-0.3014,-0.2739,0.0,0.0,0.0,0.0,0.0,0.0,0.0,0.0,0.0,-0.0614,-0.0121,0.0121,0.0,0.0363,0.0364,0.0361,0.0354,0.0349,0.0344,0.0281,0.028,0.0224,0.0112,0.0056,0.0056,0.0,0.0,0.0,0.0,0.0,0.0,0.0,0.0056,0.0056,0.0056,0.0112,0.0112,0.0056,0.0056,0.0056,0.0,0.0,0.0,0.0,0.0,0.0,0.0,0.0,0.0,0.0,0.0,0.0,0.0,0.0,0.0,0.0,0.0,0.0,0.9253,0.88,0.0,0.0,0.0,0.0,0.0,0.0,0.2756,0.083,0.0,0.0,0.0,-0.6234,-0.6868,-0.7334,-0.7674,-0.7577,-0.7224,-0.6638,0.0,0.0,0.0,0.0,0.0,0.0,0.0,0.0,0.0,0.0,-1.3311,-1.3966,0.0,-1.3029,-1.2591,-1.1772,-1.1069,-1.0329,-0.9082,-0.7889,-0.6738,-0.5336,0.0,0.0,0.0,0.0,0.0,0.0,0.0,0.0,-0.2102,-0.2309,-0.2532,-0.2583,-0.2549,-0.2513,-0.2404,0.0,0.0,0.0,0.0,0.0,0.0319,-0.0258,-0.0772,-0.0513,0.0,-0.0061,0.0354,0.0601,0.0789,0.0943,0.0939,0.0939,0.0939,0.0915,0.0898,0.0785,0.0729,0.0617,0.028,0.0224,0.0168,0.0056,0.0,0.0,0.0,0.0,0.0,0.0,0.0112,0.0224,0.0224,0.0336,0.0336,0.0224,0.0224,0.0112,0.0,0.0,0.0,0.0,0.0,0.0,0.0,0.0,0.0,0.0,0.0,0.0,0.0,0.0,0.0,0.0,0.0,0.0,1.057,0.9695,0.0,0.0,0.0,0.0,0.0,0.0,0.0,0.0,0.0,0.0,0.0,-0.5216,-0.5996,-0.6581,-0.6901,-0.7295,-0.7308,-0.6915,0.0,0.0,0.0,0.0,0.0,0.0,0.0,0.0,0.0,0.0,0.0,-1.2379,0.0,-1.1468,-1.0498,-0.9857,-0.9392,-0.9021,-0.7933,-0.7207,-0.6605,-0.5483,-0.4606,0.0,0.0,0.0,0.0,0.0,0.0,0.0,-0.1445,-0.1431,-0.1367,-0.147,-0.1507,-0.1437,0.0,-0.1133,0.0,0.0,0.0,0.1021,0.1256,0.1309,0.1088,0.0563,0.0557,0.0727,0.0917,0.1084,0.1201,0.1192,0.1191,0.1191,0.1191,0.124,0.1178,0.1178,0.1066,0.0954,0.0785,0.0505,0.028,0.0168,0.0056,0.0,0.0,0.0,0.0,0.0,0.0112,0.0224,0.0224,0.0336,0.0336,0.0224,0.0224,0.0112,0.0,0.0,0.0,0.0,0.0,0.0,0.0,0.0,0.0,0.0,0.0,0.0,0.0,0.0,0.0,0.0,0.0,0.0,0.0,0.0,0.0,0.0,0.0,0.0,0.0,0.0,0.0,0.0,0.0,-0.2002,0.0,0.0,-0.5259,-0.5882,-0.6422,-0.7034,-0.7358,-0.7357,0.0,0.0,0.0,0.0,0.0,0.0,0.0,0.0,0.0,0.0,0.0,-1.154,0.0,-1.0581,-0.9944,-0.935,-0.8945,-0.8558,-0.7457,-0.6671,-0.6107,-0.5158,-0.4412,-0.3733,-0.3184,0.0,0.0,0.0,0.0,0.0,0.0,0.0,-0.071,-0.0654,-0.0551,-0.0449,0.0,0.0,0.0,0.0,0.0,0.0,0.2278,0.2458,0.2531,0.1991,0.1643,0.1483,0.1808,0.1902,0.2015,0.2127,0.2183,0.2183,0.2183,0.2183,0.2127,0.1959,0.1849,0.1569,0.1122,0.0842,0.0505,0.0224,0.0056,0.0,0.0,0.0,0.0,0.0,0.0168,0.028,0.028,0.0505,0.0505,0.028,0.028,0.0168,0.0,0.0,0.0,0.0,0.0,0.0,0.0,0.0,0.0,0.0,0.0,0.0,0.0,0.0,0.0,0.0,0.0,0.0,0.0,0.0,0.0,0.0,0.0,0.0,0.0,0.0,0.0,0.0,0.0,-0.1894,-0.3125,0.0,0.0,0.0,-0.6167,-0.6948,-0.7487,-0.7859,0.0,0.0,0.0,0.0,0.0,0.0,0.0,0.0,0.0,0.0,0.0,-1.1066,0.0,-1.0143,-1.0001,-0.9444,-0.8974,-0.8432,-0.7301,-0.6384,-0.5624,-0.4882,-0.4207,-0.3574,-0.3332,-0.2788,-0.219,-0.1714,0.0,0.0,0.0,0.0,-0.0112,0.0168,0.0392,0.0618,0.0,0.0,0.0,0.0,0.0,0.0,0.3157,0.3422,0.357,0.3448,0.2785,0.2341,0.2757,0.285,0.2905,0.3132,0.3188,0.3188,0.3188,0.3188,0.313,0.2905,0.2685,0.2298,0.1626,0.1233,0.0897,0.0449,0.0224,0.0168,0.0168,0.0168,0.0168,0.0168,0.0393,0.0505,0.0505,0.0785,0.0729,0.0393,0.0336,0.0224,0.0,0.0,0.0,0.0,0.0,0.0,0.0,0.0,0.0,0.0,0.0,0.0,0.0,0.0,0.0,0.0,0.0,0.0,0.0,0.0,0.0,0.0,0.0,0.0,0.0,0.0,0.0542,-0.044,-0.1197,-0.2563,-0.3716,-0.4316,-0.5034,-0.5669,-0.6246,0.0,0.0,-0.8442,-0.809,-0.7723,0.0,0.0,0.0,0.0,0.0,0.0,0.0,0.0,0.0,-1.059,0.0,0.0,-0.9835,-0.9436,-0.8874,-0.8179,-0.7329,-0.6512,-0.5722,-0.5174,-0.4577,-0.4079,-0.3781,-0.3164,-0.2391,-0.2047,-0.1274,0.0,0.0,0.0,0.0953,0.1287,0.1623,0.1961,0.0,0.0,0.0,0.0,0.3682,0.3894,0.0,0.0,0.4183,0.0,0.3804,0.3421,0.3337,0.3413,0.3471,0.3527,0.3527,0.3527,0.3527,0.3527,0.3527,0.3471,0.3188,0.291,0.2523,0.2015,0.1512,0.1178,0.0898,0.0785,0.0785,0.0785,0.0785,0.0785,0.0954,0.0954,0.0842,0.101,0.0842,0.0393,0.0168,0.0056,0.0,0.0,0.0,0.0,0.0,0.0,0.0,0.0,0.0,0.0,0.0,0.0,0.0,0.0,0.0,0.0,0.0,0.0,0.0,0.0,0.0,0.0,0.0,0.0,0.0,0.0,0.0,-0.205,-0.2445,-0.3535,-0.435,-0.4535,-0.5102,-0.593,-0.7077,-0.7815,-0.8323,-0.86,-0.809,-0.745,-0.6804,0.0,0.0,0.0,0.0,0.0,0.0,-0.8066,-0.9003,0.0,0.0,0.0,0.0,0.0,-0.9437,-0.8777,-0.7809,-0.6806,-0.582,-0.5199,-0.4505,-0.3844,-0.3756,0.0,0.0,-0.2015,-0.1175,-0.0224,0.0224,0.0,0.0,0.0,0.2462,0.0,0.3159,0.0,0.0,0.0,0.4561,0.4761,0.4761,0.0,0.4916,0.4839,0.4637,0.4387,0.4068,0.3964,0.3971,0.4079,0.4079,0.4079,0.4079,0.4079,0.4079,0.3971,0.3688,0.3352,0.2965,0.235,0.1903,0.1624,0.1289,0.1122,0.1122,0.1122,0.1122,0.1122,0.1288,0.1344,0.1287,0.1346,0.1122,0.0673,0.0505,0.028,0.0112,0.0112,0.0056,0.0,0.0,0.0,0.0,0.0,0.0,0.0,0.0,0.0,0.0,0.0,0.0,0.0,0.0,0.0,0.0,0.0,0.0,0.0,0.0,0.0,0.0,0.0,0.0,-0.4103,-0.4261,0.0,0.0,0.0,-0.5553,-0.6361,-0.7815,-0.82,-0.847,-0.8652,-0.7978,-0.7117,-0.6041,0.0,0.0,0.0,0.0,0.0,-0.581,-0.6298,-0.7368,0.0,-0.9658,0.0,0.0,0.0,0.0,0.0,0.0,-0.7264,0.0,0.0,0.0,0.0,0.0,0.0,0.0,0.0,-0.0896,0.0112,0.0728,0.1455,0.0,0.0,0.0,0.0,0.0,0.0,0.4921,0.5133,0.5463,0.5756,0.0,0.0,0.5592,0.0,0.5222,0.5064,0.472,0.4477,0.4347,0.447,0.4519,0.4519,0.4519,0.4519,0.4463,0.4301,0.4076,0.3744,0.3352,0.2852,0.2462,0.2237,0.1903,0.1737,0.1737,0.1737,0.1737,0.1737,0.1902,0.1956,0.19,0.1737,0.1457,0.1121,0.0897,0.0673,0.0393,0.028,0.0168,0.0056,0.0,0.0,0.0,0.0,0.0,0.0,0.0,0.0,0.0,0.0,0.0,0.0,0.0,0.0,0.0,0.0,0.0,0.0,0.0,0.0,0.0,0.0,0.0,-0.6757,-0.6963,-0.7148,-0.7093,-0.671,-0.6645,-0.708,-0.8098,-0.8482,-0.872,-0.8803,-0.7853,0.0,0.0,0.0,0.0,0.0,0.0,0.0,-0.4116,-0.4718,-0.5638,-0.6832,-0.8633,-0.9747,-1.0269,0.0,0.0,0.0,-0.8869,-0.7966,0.0,0.0,0.0,0.0,0.0,0.0,0.0,0.0,0.0,0.0,0.0,0.0,0.0,0.0,0.0,0.0,0.0,0.5407,0.0,0.6182,0.0,0.0,0.0,0.0,0.6284,0.5943,0.5625,0.5322,0.5111,0.4874,0.4633,0.4539,0.4519,0.4519,0.4519,0.4519,0.4519,0.4463,0.4301,0.4135,0.3965,0.3685,0.3463,0.3302,0.3132,0.3019,0.3019,0.3019,0.3019,0.3019,0.3019,0.2907,0.2625,0.2068,0.179,0.1734,0.1289,0.101,0.0842,0.0561,0.0336,0.0168,0.0056,0.0,0.0,0.0,0.0,0.0,0.0,0.0,0.0,0.0,0.0,0.0,0.0,0.0,0.0,0.0,0.0,0.0,0.0,0.0,0.0,0.0,0.0,0.0,0.0,-0.9067,-0.8617,-0.8195,-0.7474,-0.7332,-0.8064,-0.8146,-0.8219,-0.8218,-0.732,0.0,0.0,0.0,0.0,0.0,0.0,-0.2903,-0.3461,-0.3956,-0.478,-0.5814,-0.7528,-0.8698,-0.934,-0.9621,0.0,0.0,-0.8408,-0.7498,-0.6426,0.0,0.0,0.0,0.0,0.0,0.0,0.0,0.0,0.0,0.0,0.0,0.0,0.0,0.0,0.0,0.0,0.0,0.0,0.6791,0.7182,0.7526,0.74,0.7138,0.6811,0.6478,0.6167,0.5765,0.5346,0.5034,0.4785,0.4633,0.4609,0.4575,0.4532,0.4519,0.4519,0.4519,0.4301,0.4193,0.4138,0.391,0.3685,0.3685,0.3524,0.3413,0.3413,0.3413,0.3413,0.3413,0.3413,0.3357,0.3132,0.2907,0.2685,0.2402,0.2127,0.1793,0.1344,0.1009,0.0673,0.0336,0.0168,0.0056,0.0,0.0,0.0,0.0,0.0,0.0,0.0,0.0,0.0,0.0,0.0,0.0,0.0,0.0,0.0,-0.68,0.0,0.0,0.0,0.0,0.0,0.0,0.0,0.0,-0.9753,-0.9137,-0.8112,-0.7709,-0.8222,-0.8056,-0.7816,-0.7694,-0.6843,0.0,0.0,0.0,0.0,0.0,0.0,0.0,0.0,-0.3299,-0.3962,-0.4897,-0.6081,-0.7267,0.0,0.0,0.0,-0.8408,-0.7925,-0.7176,-0.6263,0.0,0.0,0.0,0.0,0.0,0.0,0.0,0.0,0.0,0.0,0.0,0.0,0.0,0.0,0.0,0.5996,0.0,0.0,0.0,0.0,0.8276,0.8161,0.7852,0.7521,0.7064,0.6671,0.6244,0.5747,0.5449,0.5126,0.4799,0.4769,0.4731,0.4629,0.4616,0.4616,0.4616,0.4505,0.4428,0.4379,0.4201,0.4067,0.4021,0.3968,0.3913,0.3913,0.3913,0.3913,0.3913,0.386,0.3749,0.3694,0.358,0.3352,0.307,0.2796,0.2464,0.1959,0.1513,0.1065,0.0617,0.0393,0.0168,0.0,0.0,0.0,0.0,0.0,0.0,0.0,0.0,0.0,0.0,0.0,-0.6969,-0.7886,-0.9095,-0.9739,-1.0022,-0.9904,0.0,0.0,0.0,0.0,0.0,0.0,0.0,0.0,-0.9487,-0.8627,-0.8243,-0.8579,-0.8156,-0.771,-0.7331,-0.647,0.0,0.0,0.0,0.0,0.0,0.0,0.0,0.0,0.0,-0.319,-0.4024,-0.4353,-0.5546,-0.7439,0.0,-0.7919,-0.7966,0.0,-0.7069,-0.6426,0.0,0.0,0.0,-0.3183,-0.2124,0.0,-0.0112,0.0,0.0,0.0,0.0,0.0,0.0,0.0,0.0,0.0,0.0,0.0,0.0,0.0,0.0,0.9023,0.8753,0.8361,0.7652,0.7134,0.6609,0.6276,0.6086,0.5723,0.504,0.4928,0.4925,0.4918,0.4918,0.4918,0.4918,0.4918,0.486,0.4711,0.4697,0.4633,0.4536,0.4525,0.4522,0.4519,0.4519,0.4519,0.4519,0.4301,0.4193,0.4193,0.3965,0.3796,0.3796,0.3352,0.2965,0.2691,0.2127,0.1568,0.1122,0.0617,0.028,0.0,0.0,0.0,0.0,0.0,0.0,0.0,0.0,0.0,0.0,-0.8092,-0.9451,-1.0294,-0.987,-1.0735,-1.1667,-1.2235,0.0,0.0,0.0,0.0,0.0,0.0,0.0,0.0,-0.9794,-0.897,-0.8511,-0.8367,-0.7633,-0.7143,-0.7025,-0.6376,-0.5719,0.0,0.0,0.0,0.0,0.0,0.0,0.0,0.0,0.0,0.0,-0.4076,-0.4512,-0.5156,-0.5864,0.0,-0.5919,-0.5923,-0.555,0.0,0.0,0.0,0.0,0.0,-0.2017,-0.1121,0.0,0.0783,0.1956,0.0,0.0,0.0,0.0,0.0,0.0,0.6712,0.0,0.0,0.0,0.0,0.0,0.9545,0.9344,0.8947,0.8361,0.7912,0.7461,0.6811,0.6679,0.6453,0.6028,0.5594,0.5165,0.4935,0.4918,0.4918,0.4918,0.4918,0.4904,0.486,0.4857,0.4792,0.464,0.4626,0.4579,0.4522,0.4519,0.4519,0.4519,0.4463,0.4408,0.4408,0.4353,0.4242,0.4079,0.3855,0.3577,0.319,0.2689,0.2128,0.1568,0.1121,0.0729,0.0505,0.0112,0.0,0.0,0.0,0.0,0.0,0.0,0.0,0.0,-0.9629,-1.0786,-1.1563,-1.1305,-1.2118,-1.295,0.0,0.0,0.0,0.0,0.0,0.0,0.0,0.0,0.0,-1.0445,-0.9439,-0.8742,-0.8548,-0.7598,-0.6998,-0.6928,-0.644,-0.6,0.0,0.0,0.0,0.0,0.0,0.0,0.0,0.0,0.0,0.0,0.0,-0.3633,0.0,0.0,0.0,0.0,-0.4725,0.0,0.0,-0.3796,-0.3292,0.0,0.0,0.0,-0.0728,0.0056,0.1064,0.0,0.0,0.0,0.0,0.0,0.0,0.0,0.0,0.0,0.0,0.0,0.0,0.0,1.006,0.9958,0.9652,0.9192,0.8748,0.8242,0.7657,0.7466,0.7269,0.6937,0.6456,0.5969,0.549,0.5353,0.5294,0.5294,0.5227,0.514,0.514,0.5009,0.4945,0.4799,0.4728,0.4623,0.4525,0.4519,0.4519,0.4519,0.4519,0.4519,0.4519,0.4519,0.4463,0.4301,0.4135,0.3913,0.3635,0.319,0.2742,0.2237,0.1624,0.1233,0.0898,0.0393,0.0112,0.0056,0.0,0.0,0.0,0.0,0.0,0.0,0.0,-1.1269,-1.194,-1.2754,-1.3437,-1.3793,0.0,0.0,0.0,0.0,0.0,0.0,0.0,0.0,0.0,0.0,-0.9889,-0.899,-0.881,-0.7836,-0.7149,-0.6933,-0.6603,-0.6327,-0.6055,0.0,0.0,0.0,0.0,0.0,0.0,0.0,0.0,0.0,-0.3418,-0.2916,0.0,0.0,0.0,-0.3583,-0.368,-0.3566,0.0,0.0,-0.2563,-0.1952,-0.1564,-0.0894,-0.0056,0.0504,0.1457,0.0,0.0,0.0,0.0,0.0,0.5281,0.0,0.0,0.0,0.0,0.0,0.9369,0.0,1.058,1.0616,1.0501,1.0205,0.9646,0.9075,0.8748,0.8431,0.8112,0.7782,0.7526,0.7134,0.6346,0.6086,0.5954,0.5954,0.5752,0.5563,0.5495,0.5286,0.5098,0.4955,0.4802,0.465,0.4553,0.4543,0.4536,0.4519,0.4519,0.4519,0.4519,0.4519,0.4519,0.4519,0.4301,0.4135,0.4024,0.3635,0.3299,0.2905,0.2181,0.168,0.129,0.0729,0.0336,0.0168,0.0056,0.0,0.0,0.0,0.0,0.0,-1.0442,-1.108,-1.1661,-1.1975,-1.2686,-1.3158,0.0,0.0,0.0,0.0,0.0,0.0,0.0,0.0,0.0,0.0,0.0,-0.9386,-0.8823,-0.7777,-0.7144,-0.7085,-0.6815,-0.6598,-0.6539,-0.6209,0.0,0.0,0.0,0.0,0.0,0.0,0.0,0.0,0.0,-0.2667,0.0,0.0,0.0,-0.1161,-0.1808,-0.1786,-0.1396,-0.1283,-0.0949,-0.0558,-0.0391,-0.0112,0.0223,0.0672,0.1288,0.1846,0.0,0.0,0.0,0.4122,0.0,0.0,0.0,0.0,0.0,0.0,0.9605,0.0,1.099,1.1114,1.1041,1.1058,1.0717,1.0268,0.9831,0.9576,0.939,0.9134,0.8742,0.7967,0.6802,0.6346,0.6148,0.6148,0.5954,0.5811,0.5782,0.5639,0.5445,0.5297,0.502,0.4809,0.4653,0.4646,0.4589,0.4522,0.4519,0.4519,0.4519,0.4519,0.4519,0.4519,0.4463,0.4356,0.4138,0.3968,0.3691,0.3299,0.2745,0.2184,0.1679,0.1065,0.0561,0.0168,0.0056,0.0,0.0,0.0,0.0,0.0,-0.9722,-1.0384,-1.1049,-1.1249,0.0,0.0,0.0,0.0,0.0,0.0,0.0,0.0,0.0,0.0,0.0,0.0,0.0,0.0,0.0,0.0,-0.7025,-0.6923,-0.6756,-0.6652,-0.6544,-0.6313,0.0,0.0,0.0,0.0,0.0,0.0,0.0,0.0,0.0,0.0,0.0,0.0,-0.0354,0.0176,-0.0511,0.0,-0.0112,0.0056,0.0391,0.0782,0.0782,0.0727,0.0672,0.0841,0.1065,0.0,0.1737,0.224,0.2796,0.0,0.4453,0.5336,0.0,0.0,0.0,0.9079,0.9825,0.0,0.0,1.1295,1.1328,1.148,1.1175,1.0849,1.0696,1.0534,1.0345,1.0268,1.0129,0.9586,0.8495,0.7512,0.6868,0.6868,0.6544,0.635,0.6416,0.6083,0.5814,0.559,0.5321,0.5085,0.4928,0.479,0.4657,0.4579,0.456,0.4519,0.4519,0.4519,0.4519,0.4519,0.4519,0.4463,0.4356,0.4132,0.3855,0.3577,0.2968,0.2408,0.1847,0.1177,0.0673,0.028,0.0056,0.0,0.0,0.0,0.0,0.0,-0.9041,-0.9673,-1.0285,-1.0517,0.0,0.0,0.0,0.0,0.0,0.0,0.0,0.0,0.0,0.0,0.0,0.0,0.0,0.0,0.0,0.0,-0.7031,-0.6701,-0.6539,-0.6396,-0.622,-0.6036,-0.5628,0.0,0.0,0.0,0.0,0.0,0.0,0.0,0.0,0.0,0.0,0.0,0.0,0.1016,0.0,0.0732,0.1062,0.1229,0.162,0.2014,0.179,0.1456,0.1066,0.0898,0.0785,0.0898,0.1347,0.1794,0.0,0.0,0.0,0.0,0.0,0.0,0.829,0.9145,0.9879,1.0532,0.0,0.0,0.0,1.1495,1.1316,1.1143,1.1352,1.1322,1.1296,1.1337,1.1425,1.124,1.0428,0.9098,0.8098,0.7775,0.7352,0.7114,0.7189,0.6751,0.6268,0.6,0.5706,0.5494,0.533,0.4991,0.4776,0.4749,0.4597,0.4519,0.4519,0.4519,0.4519,0.4519,0.4519,0.4519,0.4519,0.4187,0.391,0.3741,0.3021,0.2408,0.1847,0.1177,0.0673,0.0336,0.0112,0.0,0.0,0.0,0.0,0.0,-0.9003,-0.9329,-0.9569,-0.9718,0.0,0.0,0.0,0.0,0.0,0.0,0.0,0.0,0.0,0.0,0.0,0.0,0.0,0.0,-0.883,0.0,0.0,-0.6701,-0.6055,-0.5695,-0.5629,-0.5186,-0.4746,0.0,0.0,0.0,0.0,0.0,0.0,0.0,-0.1931,0.0,0.0,0.0,0.0876,0.0,0.2159,0.2301,0.0,0.2571,0.2794,0.2852,0.2183,0.1568,0.101,0.0,0.0449,0.0561,0.0,0.1569,0.2237,0.3292,0.0,0.0,0.6312,0.7331,0.829,0.9047,0.9658,1.018,1.0578,0.0,1.0911,1.0978,0.0,1.1391,1.154,0.0,0.0,1.2552,1.2375,1.2058,1.1648,1.0999,1.012,0.8864,0.8648,0.8494,0.8359,0.7637,0.7116,0.6882,0.6402,0.6047,0.5817,0.5398,0.5061,0.4977,0.465,0.4519,0.4519,0.4519,0.4519,0.4519,0.4519,0.4519,0.4519,0.4301,0.3965,0.3569,0.3072,0.2404,0.1623,0.1121,0.0617,0.0224,0.0056,0.0,0.0,0.0,0.0,0.0,-0.862,-0.8957,-0.9159,-0.9263,0.0,0.0,0.0,0.0,0.0,0.0,0.0,0.0,0.0,0.0,0.0,0.0,0.0,-0.9555,0.0,0.0,0.0,0.0,-0.6169,-0.5694,-0.5395,-0.5012,-0.4501,-0.3788,-0.3598,0.0,0.0,0.0,0.0,0.0,-0.1435,0.0,-0.0396,0.0,0.1089,0.0,0.0,0.3047,0.0,0.3405,0.3297,0.3019,0.235,0.1681,0.101,0.0,0.0393,0.0,0.0,0.0,0.0,0.3186,0.0,0.0,0.6312,0.723,0.8031,0.8778,0.9145,0.9389,0.9624,0.9698,0.9792,1.0063,0.0,0.0,0.0,0.0,0.0,0.0,1.3743,1.3619,1.2911,1.284,1.2147,1.0207,1.0003,0.9811,0.9533,0.896,0.8437,0.804,0.7476,0.7017,0.6703,0.6069,0.5586,0.524,0.4959,0.4717,0.4519,0.4519,0.4519,0.4519,0.4519,0.4463,0.4301,0.4079,0.3685,0.3183,0.2627,0.1959,0.1288,0.0785,0.0449,0.0168,0.0056,0.0,0.0,0.0,0.0,0.0,-0.8338,0.0,0.0,0.0,0.0,0.0,0.0,0.0,0.0,0.0,0.0,0.0,-1.0454,-1.06,0.0,0.0,-0.9976,-0.9494,-0.8791,0.0,-0.7544,0.0,-0.6432,-0.5817,-0.5322,-0.4816,-0.4121,-0.3251,0.0,0.0,0.0,0.0,0.0,0.0,0.0,-0.0605,-0.0067,0.0,0.1378,0.2144,0.2911,0.3495,0.391,0.3852,0.3574,0.3077,0.2464,0.1737,0.101,0.0561,0.0393,0.0449,0.0785,0.14,0.2127,0.0,0.0,0.0,0.5987,0.6799,0.7498,0.8078,0.8231,0.8283,0.8277,0.8383,0.8559,0.8828,0.966,0.0,0.0,0.0,0.0,0.0,0.0,1.468,1.395,1.4199,1.3684,1.1602,1.1341,1.1211,1.0866,1.0307,0.984,0.9325,0.8575,0.8033,0.7617,0.6848,0.6191,0.565,0.5236,0.4898,0.4577,0.4519,0.4519,0.4519,0.4463,0.4301,0.4138,0.3855,0.3352,0.274,0.2125,0.1568,0.0954,0.0505,0.028,0.0112,0.0056,0.0,0.0,0.0,0.0,0.0,-0.8256,-0.8315,0.0,0.0,0.0,0.0,0.0,0.0,0.0,0.0,0.0,0.0,0.0,0.0,0.0,0.0,0.0,-0.9475,-0.9178,-0.8762,-0.8267,0.0,0.0,-0.5937,-0.5297,-0.4359,-0.3454,-0.275,-0.2217,0.0,0.0,0.0,0.0,0.0,0.0,-0.0067,0.0337,0.1009,0.1812,0.2732,0.3335,0.3848,0.4193,0.0,0.3747,0.3302,0.2464,0.1737,0.101,0.0561,0.0393,0.0449,0.0785,0.1344,0.1958,0.2683,0.3514,0.4398,0.5113,0.5873,0.6465,0.6617,0.6773,0.6822,0.6548,0.6832,0.7224,0.7348,0.853,0.9824,1.0847,0.0,0.0,0.0,0.0,0.0,0.0,1.4872,1.451,1.2952,1.2819,1.2771,1.2565,1.1644,1.0969,1.0748,0.9582,0.884,0.8638,0.756,0.6745,0.619,0.5534,0.5015,0.4691,0.4574,0.4519,0.4519,0.4301,0.4138,0.3965,0.358,0.3079,0.2465,0.1902,0.1287,0.0673,0.0336,0.0112,0.0,0.0,0.0,0.0,0.0,0.0,0.0,-0.7842,0.0,0.0,0.0,0.0,0.0,0.0,-0.854,0.0,0.0,-0.847,0.0,0.0,-0.8652,-0.8764,0.0,0.0,-0.8877,-0.8657,-0.8454,-0.8141,-0.7823,-0.6988,-0.625,-0.562,-0.4637,-0.372,-0.2889,-0.2122,0.0,0.0,0.0,0.0,0.0,0.0,0.0069,0.0,0.0,0.0,0.0,0.0,0.3892,0.4079,0.0,0.3463,0.285,0.2181,0.1456,0.0785,0.0393,0.028,0.028,0.0505,0.1009,0.1569,0.2127,0.2903,0.3732,0.4398,0.5003,0.5437,0.5592,0.5651,0.5601,0.5437,0.5814,0.6308,0.6632,0.813,0.97,1.0816,0.0,0.0,0.0,0.0,0.0,0.0,1.5299,1.5413,1.4632,1.4466,1.4322,1.3962,1.2926,1.1992,1.1377,1.0479,0.9672,0.9074,0.8302,0.7466,0.6371,0.5819,0.5242,0.4691,0.4574,0.4519,0.4519,0.4301,0.4024,0.3738,0.3297,0.2629,0.1902,0.1344,0.0841,0.0336,0.0168,0.0056,0.0,0.0,0.0,0.0,0.0,0.0,0.0,-0.7628,-0.7486,0.0,0.0,0.0,0.0,0.0,-0.8109,-0.7892,0.0,-0.7609,0.0,-0.7492,0.0,-0.7706,0.0,-0.809,-0.824,-0.8346,-0.825,-0.8153,-0.7892,-0.7234,-0.6497,-0.5809,-0.4829,-0.3867,-0.2863,-0.1945,-0.1197,0.0,0.0,0.0,0.0,0.0,0.0281,0.0699,0.1157,0.173,0.0,0.0,0.3981,0.0,0.0,0.3239,0.2625,0.1958,0.1287,0.0673,0.0336,0.0224,0.0224,0.028,0.0673,0.1178,0.1569,0.2237,0.3014,0.3569,0.4122,0.4512,0.4567,0.4625,0.4629,0.446,0.4952,0.5609,0.6145,0.772,0.9362,1.0529,0.0,0.0,0.0,0.0,0.0,0.0,1.5308,1.5587,1.5486,1.5514,1.523,1.4407,1.3618,1.2687,1.1741,1.1006,1.029,0.9616,0.8953,0.8012,0.6821,0.6189,0.5561,0.4885,0.4601,0.4519,0.4519,0.419,0.3855,0.3519,0.285,0.2181,0.1456,0.0953,0.0505,0.0168,0.0056,0.0,0.0,0.0,0.0,0.0,0.0,0.0,0.0,-0.7663,-0.7427,-0.7369,0.0,-0.7549,-0.7638,-0.741,-0.7269,-0.7115,0.0,-0.6577,-0.6381,-0.6327,-0.6327,-0.6485,-0.6799,-0.7224,-0.7655,-0.8076,-0.8211,-0.8154,-0.8047,-0.7418,-0.6675,-0.5797,-0.4801,-0.3765,-0.2729,-0.1754,0.0,0.0,0.0,0.0,0.0,0.0356,0.0,0.0911,0.1432,0.195,0.2533,0.3653,0.3985,0.3798,0.3513,0.313,0.2569,0.1845,0.1176,0.0617,0.028,0.0168,0.0168,0.0224,0.0449,0.0729,0.101,0.1625,0.2294,0.2738,0.3352,0.3744,0.3638,0.3691,0.3799,0.3638,0.4298,0.5117,0.5873,0.7309,0.879,0.9953,0.0,0.0,0.0,0.0,0.0,0.0,0.0,1.5096,1.5322,1.5851,1.5541,1.3973,1.3544,1.2934,1.1806,1.1078,1.0503,1.0153,0.9344,0.8425,0.7531,0.6635,0.5862,0.5212,0.4713,0.4525,0.4519,0.4018,0.3688,0.3357,0.2462,0.1737,0.129,0.0673,0.0336,0.0168,0.0056,0.0,0.0,0.0,0.0,0.0,0.0,0.0,0.0,-0.7977,-0.732,-0.6748,-0.6691,-0.7097,-0.7427,-0.7467,-0.7054,-0.6643,-0.6347,-0.5993,-0.5727,-0.5609,-0.5555,-0.5719,-0.6046,-0.6263,-0.6618,-0.7176,-0.7116,-0.7088,-0.7218,-0.6587,-0.6053,-0.5567,-0.4634,-0.3835,-0.3145,-0.1928,0.0,-0.0825,0.0,0.0,0.0,0.0,0.0,0.1081,0.1473,0.2099,0.2918,0.3621,0.3863,0.3798,0.3513,0.3021,0.2464,0.1569,0.0841,0.028,0.0112,0.0056,0.0056,0.0168,0.0336,0.0561,0.0954,0.1456,0.2015,0.2575,0.3135,0.3524,0.3583,0.3802,0.3965,0.3913,0.4519,0.5285,0.5987,0.7106,0.8224,0.9273,0.0,0.0,0.0,0.0,0.0,0.0,0.0,1.3651,1.3173,1.3778,1.4071,1.3701,1.2636,1.1697,1.0851,1.0208,0.9701,0.9348,0.8933,0.8323,0.7279,0.6578,0.5868,0.5212,0.4822,0.4575,0.4519,0.4132,0.3747,0.3357,0.2519,0.1849,0.129,0.0673,0.0336,0.0168,0.0056,0.0,0.0,0.0,0.0,0.0,0.0,0.0,0.0,-0.804,-0.7215,-0.6515,-0.6187,-0.6441,-0.6706,-0.6802,-0.6416,-0.5932,-0.5631,-0.522,-0.4959,-0.4952,-0.4952,-0.5062,-0.5391,-0.5559,-0.5887,-0.6277,-0.6268,-0.6268,-0.6332,-0.5939,-0.5514,-0.5103,-0.4341,-0.3635,-0.3021,0.0,0.0,-0.0758,0.0,0.0,0.0,0.0,0.1127,0.1331,0.1922,0.2664,0.3401,0.3869,0.3939,0.0,0.3645,0.306,0.2296,0.1681,0.1065,0.0449,0.0224,0.0224,0.0336,0.0393,0.0561,0.0785,0.1176,0.1624,0.2127,0.2687,0.319,0.3524,0.3635,0.3858,0.4024,0.4079,0.4632,0.5289,0.5996,0.674,0.7481,0.81,0.8436,0.0,0.0,0.0,0.0,0.0,1.0977,1.1374,1.1052,1.1471,1.1682,1.1631,1.1303,1.071,0.9888,0.9424,0.9165,0.904,0.8682,0.8195,0.7541,0.6707,0.5948,0.5266,0.49,0.4613,0.4519,0.4076,0.3744,0.3466,0.2573,0.1961,0.1457,0.0897,0.0561,0.0393,0.0168,0.0112,0.0056,0.0,0.0,0.0,0.0,0.0,0.0,-0.7833,-0.7034,-0.6299,0.0,0.0,-0.559,-0.555,-0.5398,-0.5136,-0.4813,-0.4407,-0.419,-0.4408,-0.4463,-0.4574,-0.4846,-0.5062,-0.534,-0.5508,-0.5614,-0.5668,-0.5567,-0.534,-0.5087,-0.4684,-0.4114,-0.3481,0.0,0.0,0.0,0.0,0.0,0.0,0.0,0.0,0.0,0.0,0.2503,0.3237,0.3816,0.4223,0.4227,0.4044,0.3918,0.322,0.235,0.2181,0.1624,0.0898,0.0617,0.0617,0.0785,0.0841,0.1009,0.1289,0.1623,0.2014,0.2406,0.3019,0.3413,0.3694,0.3799,0.3965,0.4132,0.4249,0.4688,0.5289,0.5891,0.6317,0.6622,0.6763,0.6661,0.0,0.0,0.0,0.0,0.7156,0.8056,0.8733,0.8817,0.9047,0.0,0.8728,0.9559,0.9806,0.8915,0.8682,0.8601,0.8761,0.8384,0.8094,0.7806,0.6841,0.6091,0.5376,0.4974,0.4643,0.4546,0.4082,0.3796,0.3627,0.274,0.2183,0.1902,0.1288,0.0953,0.0785,0.0449,0.028,0.0224,0.0112,0.0,0.0,0.0,0.0,0.0,-0.7389,-0.6499,0.0,0.0,-0.4743,-0.4322,-0.3911,-0.4142,-0.4315,-0.4033,-0.3832,-0.3796,-0.4076,-0.419,-0.4359,-0.4688,-0.4798,-0.4908,-0.5183,-0.512,-0.512,-0.5352,-0.512,-0.4975,-0.5031,-0.4354,-0.3736,0.0,0.0,0.0,0.0,0.0,0.0,0.0,0.0,0.0,0.2195,0.291,0.0,0.3816,0.4355,0.4478,0.4345,0.4157,0.3795,0.3292,0.2905,0.2071,0.1234,0.1178,0.1178,0.1234,0.1512,0.1623,0.179,0.2347,0.2627,0.2905,0.3405,0.3741,0.3968,0.4079,0.4245,0.446,0.4736,0.4959,0.5289,0.5891,0.5778,0.5601,0.5756,0.4983,0.0,0.0,0.0,0.4629,0.4967,0.5758,0.6357,0.6487,0.6951,0.7207,0.6935,0.7668,0.8033,0.7703,0.7619,0.7574,0.777,0.766,0.7526,0.7166,0.6566,0.5955,0.0,0.5013,0.4802,0.465,0.4303,0.4079,0.391,0.3241,0.2852,0.2683,0.1958,0.1567,0.1399,0.1065,0.0785,0.0561,0.028,0.0168,0.0168,0.0056,0.0,0.0,-0.6511,0.0,0.0,0.0,-0.3992,-0.3554,-0.2796,-0.2921,-0.3096,-0.3191,-0.3194,-0.3405,-0.3741,-0.3965,-0.4245,-0.4577,-0.4577,-0.4664,-0.4858,-0.4805,-0.4955,-0.5219,-0.51,-0.5078,-0.5159,-0.4645,-0.411,-0.3682,0.0,0.0,0.0,0.0,0.0,0.0,0.0,0.1888,0.0,0.0,0.3719,0.422,0.4689,0.4731,0.4537,0.4474,0.414,0.3683,0.3461,0.2963,0.241,0.1905,0.1905,0.2069,0.2237,0.246,0.2683,0.307,0.3239,0.3461,0.3799,0.4024,0.4135,0.4301,0.4408,0.4574,0.4739,0.4901,0.512,0.5454,0.5175,0.4677,0.395,0.3204,0.2591,0.2334,0.249,0.2818,0.3182,0.386,0.4417,0.4775,0.5325,0.5754,0.5939,0.6285,0.6659,0.6991,0.6877,0.696,0.7314,0.7232,0.7118,0.6877,0.6417,0.5855,0.5271,0.0,0.4802,0.4572,0.4337,0.4193,0.4079,0.3685,0.3408,0.3236,0.2627,0.2291,0.2124,0.1567,0.1121,0.0785,0.0449,0.028,0.0168,0.0056,0.0,0.0,0.0,-0.4905,0.0,0.0,-0.3184,-0.2816,-0.1891,-0.1805,-0.2025,-0.2455,-0.2729,-0.3081,-0.3591,-0.3934,-0.4219,-0.4558,-0.4558,-0.4609,-0.4731,-0.4741,-0.4907,-0.5211,-0.5214,-0.5275,-0.5336,-0.4994,-0.4622,-0.4151,-0.3258,0.0,0.0,0.0,0.0,0.0,0.0,0.0,0.0,0.0,0.4059,0.4625,0.5024,0.4987,0.4732,0.4732,0.4432,0.3962,0.3907,0.3802,0.3583,0.2854,0.274,0.2905,0.2903,0.3186,0.3522,0.3685,0.3796,0.3965,0.419,0.4249,0.4301,0.4463,0.4519,0.4519,0.4688,0.4794,0.4901,0.5014,0.468,0.3849,0.2406,0.1898,0.1588,0.1178,0.1382,0.1634,0.189,0.2454,0.3022,0.3485,0.403,0.4618,0.5064,0.5181,0.5522,0.6275,0.638,0.6522,0.7007,0.6938,0.678,0.6641,0.6239,0.58,0.5257,0.0,0.4782,0.4567,0.4369,0.4249,0.4249,0.4021,0.3852,0.3683,0.3241,0.2907,0.2627,0.1958,0.1456,0.101,0.0617,0.0393,0.0224,0.0056,0.0,0.0,0.0,0.0,0.0,-0.2558,-0.2071,-0.1586,-0.117,-0.1096,-0.1404,-0.2157,-0.2507,-0.2986,-0.3777,-0.414,-0.4505,-0.4817,-0.4877,-0.488,-0.4897,-0.4897,-0.5022,-0.5343,-0.5404,-0.5525,-0.5828,-0.5619,-0.5203,-0.4628,-0.4034,-0.3312,0.0,0.0,0.0,0.0,0.0,0.0,0.2739,0.3642,0.4267,0.4625,0.516,0.5182,0.4857,0.4857,0.4669,0.4408,0.4245,0.4138,0.4138,0.3913,0.3691,0.3527,0.3685,0.3741,0.3799,0.4079,0.4138,0.4193,0.4408,0.4463,0.4463,0.4519,0.4519,0.4519,0.4688,0.4691,0.4743,0.4901,0.4236,0.3347,0.2237,0.1782,0.1469,0.1002,0.1182,0.136,0.1356,0.1892,0.2363,0.2589,0.3175,0.3693,0.4064,0.4361,0.4791,0.5561,0.5953,0.6306,0.6623,0.664,0.6541,0.637,0.6012,0.5702,0.5387,0.5053,0.4833,0.4667,0.4528,0.4463,0.4463,0.4245,0.4138,0.4135,0.3694,0.319,0.2689,0.2183,0.1793,0.1459,0.0898,0.0561,0.0336,0.0112,0.0,0.0,-0.321,-0.2688,-0.2173,-0.1609,-0.1284,-0.1038,-0.0666,-0.0729,-0.1056,-0.1562,-0.2202,-0.2889,-0.3689,-0.4174,-0.4543,-0.4857,-0.4918,-0.4955,-0.504,-0.5131,-0.5352,-0.5639,-0.5737,-0.5877,-0.6044,-0.5774,-0.5406,-0.4926,-0.417,-0.3415,0.0,0.0,0.0,0.0,0.1711,0.2461,0.3213,0.3915,0.447,0.4957,0.5292,0.5186,0.4918,0.4918,0.4728,0.4463,0.4408,0.4356,0.4356,0.4298,0.4135,0.3971,0.4024,0.4132,0.4239,0.4353,0.4356,0.4408,0.4463,0.4519,0.4519,0.4519,0.4519,0.4519,0.4574,0.4574,0.4574,0.4629,0.407,0.3292,0.2294,0.198,0.177,0.1486,0.16,0.1828,0.2227,0.2482,0.2685,0.2854,0.2999,0.3203,0.3491,0.3853,0.4378,0.5117,0.5519,0.5942,0.6395,0.643,0.6352,0.6105,0.5892,0.5669,0.5428,0.5067,0.4843,0.4687,0.4535,0.4519,0.4519,0.4408,0.4245,0.4079,0.3802,0.3355,0.2796,0.2294,0.1905,0.1515,0.0954,0.0561,0.0393,0.0112,0.0,0.0,-0.2021,-0.1674,-0.1336,-0.0796,-0.0705,-0.0551,-0.027,-0.0472,-0.0811,-0.1157,-0.1905,-0.2743,-0.3665,-0.4224,-0.4668,-0.4988,-0.505,-0.5111,-0.5257,-0.5369,-0.5562,-0.5849,-0.5962,-0.6044,-0.6077,-0.5724,-0.5367,-0.4994,-0.4118,-0.3387,-0.2589,0.0,0.0,0.1197,0.1893,0.2764,0.3655,0.419,0.4688,0.5024,0.5226,0.5077,0.4729,0.4748,0.4578,0.4353,0.4369,0.4408,0.4411,0.4463,0.4408,0.4301,0.4301,0.4411,0.4519,0.4519,0.4519,0.4519,0.4519,0.4519,0.4519,0.4519,0.4519,0.4519,0.4519,0.4519,0.4463,0.4411,0.4018,0.3516,0.2738,0.2516,0.246,0.2347,0.2458,0.2736,0.3181,0.3125,0.3016,0.2905,0.2627,0.2523,0.2755,0.3075,0.3742,0.4753,0.5156,0.5644,0.6244,0.6338,0.619,0.6034,0.5881,0.0,0.5432,0.5108,0.4884,0.4691,0.4582,0.4563,0.4519,0.4463,0.4242,0.391,0.3685,0.3241,0.2683,0.2183,0.1793,0.1347,0.0842,0.0505,0.0337,0.0057,0.0,0.0,-0.137,-0.0965,-0.0578,-0.0352,-0.0137,0.0,0.0,-0.0202,-0.0476,-0.1047,-0.1611,-0.2493,-0.3835,-0.4492,-0.4957,-0.5355,-0.5422,-0.542,-0.5572,-0.5586,-0.5724,-0.609,-0.5875,-0.5875,-0.6018,-0.5587,-0.5146,-0.468,-0.4077,-0.329,-0.2194,-0.0383,0.0747,0.1311,0.2481,0.3309,0.3828,0.4495,0.4831,0.4827,0.5024,0.4804,0.4284,0.4408,0.4216,0.3912,0.4129,0.4193,0.4249,0.4408,0.4519,0.4519,0.4519,0.4519,0.4519,0.4519,0.4519,0.4519,0.4519,0.4519,0.4519,0.4519,0.4519,0.4519,0.4519,0.4519,0.4463,0.4249,0.4079,0.391,0.3627,0.3569,0.3569,0.3569,0.3788,0.395,0.4006,0.3564,0.3123,0.2567,0.1788,0.1435,0.1776,0.2029,0.2775,0.4398,0.4792,0.5417,0.6244,0.6338,0.619,0.6034,0.5881,0.5661,0.5432,0.5206,0.4982,0.4691,0.4687,0.4609,0.4519,0.4301,0.4079,0.3796,0.3297,0.274,0.2183,0.179,0.1344,0.0898,0.0561,0.0336,0.0169,0.0058,0.0,0.0,-0.07,-0.0526,-0.0363,-0.0144,-0.0071,0.0,0.0,-0.0141,-0.0428,-0.0935,-0.1441,-0.2154,-0.3055,-0.3831,-0.4398,-0.4821,-0.4889,-0.4909,-0.495,-0.5038,-0.5105,-0.522,-0.5225,-0.5153,-0.4995,-0.4551,-0.4119,-0.3699,-0.2946,-0.2067,-0.1099,-0.0078,0.0683,0.1311,0.2239,0.3013,0.3623,0.4092,0.4359,0.4422,0.4359,0.4219,0.398,0.4006,0.3867,0.3807,0.4119,0.4216,0.4249,0.4408,0.4519,0.4519,0.4519,0.4519,0.4519,0.4519,0.4519,0.4519,0.4519,0.4519,0.4519,0.4519,0.4519,0.4519,0.4632,0.4794,0.4849,0.4684,0.4739,0.468,0.4398,0.434,0.4398,0.4453,0.4567,0.4618,0.4732,0.4184,0.3487,0.2642,0.1673,0.1067,0.1073,0.1458,0.2306,0.3682,0.4499,0.5344,0.6244,0.6162,0.6081,0.603,0.5786,0.5613,0.5518,0.526,0.5084,0.4989,0.4894,0.4819,0.4769,0.449,0.4216,0.3923,0.3273,0.2629,0.2015,0.1456,0.1065,0.0729,0.0393,0.0224,0.0169,0.0058,0.0,0.0,-0.0233,-0.0151,-0.0147,0.0,0.0,0.0,0.0,-0.0072,-0.0292,-0.0665,-0.1035,-0.1559,-0.2172,-0.277,-0.3417,-0.4297,-0.4362,-0.438,-0.4421,-0.4564,-0.4626,-0.4667,-0.458,-0.4431,-0.4213,-0.3677,-0.3219,-0.2833,-0.1915,-0.116,-0.0471,0.0233,0.0758,0.1238,0.2163,0.287,0.3355,0.3758,0.3892,0.3889,0.3758,0.3588,0.3394,0.3487,0.3518,0.3583,0.4022,0.4247,0.4279,0.4512,0.4548,0.4594,0.4536,0.4519,0.4519,0.4519,0.4519,0.4519,0.4574,0.4574,0.4574,0.4684,0.4739,0.4794,0.5018,0.5183,0.5289,0.5226,0.5285,0.534,0.5167,0.5218,0.5277,0.5391,0.5445,0.5391,0.5175,0.4457,0.3498,0.233,0.129,0.0542,0.0385,0.0901,0.179,0.3134,0.4188,0.5176,0.6083,0.6139,0.6064,0.5945,0.5766,0.5616,0.5504,0.5311,0.5186,0.5128,0.4986,0.4918,0.4914,0.4574,0.4268,0.3868,0.3104,0.2433,0.1903,0.1289,0.0898,0.0673,0.0393,0.028,0.0282,0.0236,0.0182,0.0186,0.0,0.0,0.0,0.0,0.0,0.0,0.0,0.0,-0.0074,-0.0303,-0.0455,-0.0766,-0.1254,-0.1412,-0.2155,-0.3599,-0.373,-0.384,-0.4002,-0.4006,-0.4128,-0.4224,-0.3839,-0.3684,-0.3684,-0.2823,-0.2275,-0.204,-0.1099,-0.0471,-0.0235,0.0537,0.0898,0.1092,0.2129,0.2694,0.2889,0.3424,0.3424,0.3092,0.3092,0.2958,0.2679,0.2935,0.3159,0.34,0.399,0.4308,0.446,0.4634,0.4707,0.468,0.4584,0.4532,0.4532,0.4522,0.4519,0.4519,0.4688,0.4691,0.4743,0.5018,0.5124,0.5234,0.5567,0.5622,0.5727,0.5828,0.5882,0.5882,0.5882,0.61,0.6263,0.6263,0.6322,0.6105,0.5386,0.4398,0.3222,0.1697,0.0591,-0.0061,-0.0193,0.0259,0.1254,0.2712,0.3864,0.4846,0.5719,0.61,0.6118,0.5813,0.5793,0.565,0.5432,0.5428,0.5287,0.5145,0.5013,0.4948,0.4948,0.4565,0.4246,0.3778,0.301,0.2376,0.1797,0.1237,0.0899,0.0729,0.0561,0.0449,0.051,0.0543,0.0556,0.0625,0.0,0.0,0.0,0.0,0.0,0.0,0.0,0.0,-0.0077,-0.0311,-0.0311,-0.0546,-0.0942,-0.1021,-0.1328,-0.1853,-0.2158,-0.2394,-0.2406,-0.2408,-0.2492,-0.2506,-0.243,-0.2273,-0.2116,-0.1804,-0.1335,-0.0785,-0.0471,-0.0236,-0.0079,0.0312,0.0533,0.0656,0.123,0.1547,0.1747,0.2016,0.2151,0.222,0.222,0.2287,0.2488,0.2869,0.3213,0.3597,0.4077,0.4448,0.4665,0.4813,0.4863,0.484,0.4684,0.4636,0.4613,0.4553,0.4519,0.4519,0.4688,0.4691,0.4743,0.5018,0.5395,0.5664,0.5723,0.6105,0.6431,0.6485,0.675,0.6961,0.6961,0.7015,0.702,0.702,0.6588,0.5991,0.5273,0.4207,0.2986,0.1515,0.0622,0.0064,-0.0266,0.0333,0.1146,0.223,0.365,0.4773,0.5346,0.5943,0.6118,0.5813,0.5694,0.5549,0.5428,0.5428,0.5345,0.5308,0.5274,0.5257,0.5254,0.4947,0.4562,0.4207,0.3562,0.287,0.2209,0.1861,0.149,0.1178,0.1122,0.1139,0.1226,0.1276,0.1313,0.1346,0.0,0.0,0.0,0.0,0.0,0.0,0.0,0.0,0.0,-0.0162,-0.0162,-0.0242,-0.048,-0.0479,-0.0559,-0.0719,-0.1277,-0.1596,-0.1596,-0.161,-0.1612,-0.1597,-0.1515,-0.1356,-0.1276,-0.0958,-0.0639,-0.016,-0.016,-0.0079,0.0,0.0314,0.0462,0.0593,0.1026,0.1283,0.137,0.1556,0.1681,0.1749,0.1884,0.2085,0.242,0.2889,0.3392,0.3868,0.4324,0.4669,0.4915,0.4974,0.5016,0.4989,0.4843,0.4796,0.4765,0.4613,0.4573,0.4519,0.4739,0.4794,0.4904,0.5293,0.5732,0.6,0.605,0.6322,0.6598,0.6766,0.6977,0.7133,0.7187,0.7334,0.7406,0.729,0.6763,0.6089,0.5113,0.3957,0.2724,0.1377,0.0638,0.0196,0.0067,0.0672,0.142,0.2332,0.3699,0.4751,0.5185,0.5911,0.6118,0.5813,0.5728,0.5583,0.5428,0.5428,0.5428,0.5428,0.5428,0.5428,0.5359,0.5147,0.4813,0.4492,0.4042,0.3518,0.3002,0.2641,0.2378,0.2109,0.1933,0.1951,0.1987,0.1988,0.2031,0.2068,0.0,0.0,0.0,0.0,0.0,0.0,0.0,0.0,0.0,0.0,0.0,0.0,0.0,0.0,0.0,0.0,-0.0657,-0.1068,-0.1064,-0.1082,-0.1084,-0.1065,-0.09,-0.0736,-0.0736,-0.0409,-0.0163,0.0,0.0,0.008,0.0079,0.0471,0.062,0.0681,0.1185,0.137,0.1399,0.1504,0.1553,0.1615,0.1892,0.2231,0.2634,0.3191,0.3729,0.4188,0.4724,0.4976,0.5137,0.5145,0.5165,0.5138,0.4996,0.4952,0.4921,0.4769,0.4633,0.4633,0.4805,0.4901,0.5069,0.5572,0.5959,0.6173,0.6273,0.6381,0.649,0.6712,0.6879,0.6939,0.7074,0.7361,0.7513,0.7198,0.6773,0.604,0.4837,0.363,0.2496,0.1412,0.0777,0.0459,0.0604,0.1143,0.1814,0.2619,0.3797,0.4695,0.5197,0.5888,0.6061,0.5779,0.5789,0.5661,0.5432,0.5428,0.5428,0.5428,0.5428,0.5428,0.5362,0.5223,0.5026,0.472,0.4467,0.4138,0.3837,0.3468,0.3274,0.3199,0.295,0.2837,0.2857,0.2868,0.2836,0.2921,0.0,0.0,0.0,0.0,0.0,0.0,0.0,0.0,0.0,0.0,0.0,0.0,0.0,0.0,0.0,0.0,-0.0085,-0.0171,-0.0168,-0.0168,-0.0168,-0.0168,-0.0168,-0.0168,-0.0168,-0.0084,0.0,0.0,0.0163,0.0241,0.0236,0.0629,0.0853,0.0833,0.1206,0.132,0.1261,0.1395,0.1511,0.1684,0.2275,0.278,0.334,0.3987,0.4458,0.4855,0.5133,0.5264,0.5355,0.5332,0.5325,0.5298,0.5145,0.5098,0.5067,0.4925,0.4867,0.4852,0.4762,0.4963,0.5242,0.5356,0.5732,0.6,0.5941,0.6159,0.6381,0.6322,0.6701,0.709,0.7114,0.7125,0.7094,0.6806,0.6083,0.52,0.4351,0.3326,0.2495,0.1803,0.1515,0.1338,0.121,0.1813,0.235,0.2686,0.3799,0.4638,0.4853,0.5493,0.5796,0.563,0.5739,0.5661,0.5432,0.5428,0.5428,0.5428,0.5428,0.5428,0.5428,0.5362,0.5213,0.5055,0.4989,0.4714,0.4273,0.4209,0.4088,0.3875,0.3814,0.3874,0.3964,0.3982,0.3983,0.4064,0.0,0.0,0.0,0.0,0.0,0.0,0.0,0.0,0.0,0.0,0.0,0.0,0.0,0.0,0.0,0.0,0.0,0.0,0.0,0.0,0.0,0.0,0.0,0.0,0.0,0.0,0.0,0.0,0.0167,0.0328,0.032,0.0869,0.1093,0.1158,0.1598,0.1792,0.1751,0.2015,0.2202,0.2391,0.3059,0.3572,0.4001,0.4626,0.5045,0.5277,0.5489,0.5537,0.5484,0.5484,0.543,0.5415,0.5277,0.5254,0.5226,0.5077,0.5037,0.4987,0.4822,0.5046,0.5305,0.5211,0.5477,0.5767,0.5707,0.5787,0.5917,0.5917,0.6023,0.6103,0.6195,0.6232,0.6147,0.599,0.5524,0.4951,0.4313,0.3457,0.2766,0.2504,0.2132,0.2016,0.2285,0.2753,0.3153,0.3553,0.433,0.4888,0.5029,0.5509,0.5735,0.5596,0.5572,0.5498,0.5428,0.5428,0.5428,0.5428,0.5428,0.5428,0.5428,0.5428,0.5359,0.5292,0.5292,0.512,0.4928,0.4795,0.4693,0.4574,0.4449,0.4487,0.4543,0.4543,0.4512,0.4558,0.0,0.0,0.0,0.0,0.0,0.0,0.0,0.0,0.0,0.0,0.0,0.0,0.0,0.0,0.0,0.0,0.0,0.0,0.0,0.0,0.0,0.0,0.0,0.0,0.0,0.0,0.0,0.0,0.0255,0.0332,0.0403,0.1109,0.1415,0.1413,0.2001,0.228,0.2265,0.274,0.3001,0.3279,0.3953,0.44,0.4694,0.5237,0.5523,0.5643,0.5785,0.5762,0.5633,0.5599,0.5511,0.541,0.5439,0.5428,0.5338,0.522,0.5167,0.516,0.4974,0.5097,0.5238,0.5106,0.5342,0.556,0.5498,0.5418,0.5453,0.5517,0.5325,0.515,0.5254,0.5289,0.5251,0.5101,0.4947,0.4688,0.4289,0.3623,0.3224,0.3224,0.2818,0.2751,0.336,0.3625,0.3956,0.4353,0.4781,0.5114,0.5254,0.5567,0.5667,0.5593,0.544,0.5428,0.5428,0.5428,0.5428,0.5428,0.5428,0.5428,0.5428,0.5428,0.5428,0.5428,0.5428,0.5428,0.5362,0.5223,0.5156,0.5156,0.5027,0.4964,0.4967,0.4998,0.5011,0.5017,0.0,0.0,0.0,0.0,0.0,0.0,0.0,0.0,0.0,0.0,0.0,0.0,0.0,0.0,0.0,0.0,0.0,0.0,0.0,0.0,0.0,0.0,0.0,0.0,0.0,0.0,0.0,0.0,0.0421,0.0577,0.063,0.1494,0.1729,0.1572,0.2194,0.2473,0.2418,0.3242,0.3643,0.3792,0.477,0.5265,0.5432,0.5704,0.5904,0.5939,0.6013,0.5915,0.5766,0.5633,0.5583,0.5549,0.5473,0.5428,0.5425,0.5415,0.5404,0.5332,0.4979,0.5019,0.5132,0.5118,0.525,0.5385,0.5196,0.5143,0.5093,0.4979,0.4908,0.4822,0.4842,0.468,0.4531,0.4389,0.4217,0.4095,0.4028,0.3892,0.3758,0.3894,0.3894,0.3894,0.3961,0.4295,0.4558,0.4558,0.49,0.5103,0.5103,0.5319,0.5454,0.5586,0.544,0.5428,0.5428,0.5428,0.5428,0.5428,0.5428,0.5428,0.5428,0.5428,0.5428,0.5428,0.5428,0.5428,0.5428,0.5362,0.5362,0.5362,0.5362,0.5362,0.5379,0.5521,0.5572,0.5593,0.0,0.0,0.0,0.0,0.0,0.0,0.0,0.0,0.0,0.0,0.0,0.0,0.0,0.0,0.0,0.0,0.0,0.0,0.0,0.0,0.0,0.0,0.0,0.0,0.0,0.0,0.0,0.0,0.0256,0.0417,0.041,0.1036,0.1335,0.1415,0.2041,0.2496,0.2858,0.3707,0.4301,0.4571,0.5302,0.5704,0.579,0.6079,0.6143,0.6173,0.6173,0.6074,0.5935,0.5881,0.5742,0.5579,0.5521,0.544,0.5428,0.5428,0.5428,0.5404,0.5223,0.5185,0.5088,0.4999,0.5105,0.5175,0.5109,0.4994,0.4868,0.4871,0.4478,0.4167,0.4151,0.403,0.3848,0.382,0.403,0.4164,0.4164,0.4228,0.4359,0.4495,0.4428,0.4425,0.4691,0.4821,0.4957,0.5093,0.5226,0.5292,0.5292,0.5359,0.5433,0.5586,0.5535,0.5545,0.5633,0.5549,0.5504,0.5501,0.5406,0.5428,0.5432,0.546,0.5504,0.5508,0.5596,0.5633,0.5633,0.5633,0.5633,0.5633,0.5633,0.5633,0.564,0.5698,0.5722,0.5728,0.0,0.0,0.0,0.0,0.0,0.0,0.0,0.0,0.0,0.0,0.0,0.0,0.0,0.0,0.0,0.0,0.0,0.0,0.0,0.0,0.0,0.0,0.0,0.0,0.0,0.0,0.0,0.0,0.0172,0.0336,0.0333,0.0801,0.11,0.1335,0.1961,0.2586,0.3132,0.407,0.4696,0.516,0.5786,0.6022,0.6022,0.6257,0.6338,0.6338,0.6338,0.6193,0.6095,0.6047,0.5895,0.5711,0.562,0.5484,0.5428,0.5428,0.5428,0.5428,0.5428,0.5284,0.5179,0.5081,0.5131,0.5203,0.5203,0.5022,0.4894,0.4894,0.4425,0.4025,0.4025,0.3894,0.3761,0.3761,0.4097,0.4431,0.4434,0.4628,0.4824,0.4964,0.4894,0.4957,0.5156,0.5223,0.5226,0.5362,0.5428,0.5428,0.5428,0.5406,0.5501,0.565,0.5701,0.5796,0.5945,0.5752,0.5657,0.5654,0.5549,0.5501,0.5504,0.5606,0.5657,0.5661,0.5759,0.58,0.58,0.58,0.58,0.58,0.58,0.58,0.5806,0.5857,0.5874,0.5881,0.0,0.0,0.0,0.0,0.0,0.0,0.0,0.0,0.0,0.0,0.0,0.0,0.0,0.0,0.0,0.0,0.0,0.0,0.0,0.0,0.0,0.0,0.0,0.0,0.0,0.0,0.0,0.0,0.017,0.0333,0.0326,0.0954,0.1336,0.1336,0.2119,0.2744,0.321,0.4229,0.4932,0.5398,0.6025,0.6338,0.6338,0.6338,0.6338,0.6338,0.6338,0.6338,0.6237,0.6084,0.603,0.5979,0.5684,0.5488,0.5428,0.5432,0.5432,0.5428,0.5432,0.5432,0.5432,0.5428,0.5428,0.5428,0.5428,0.5226,0.509,0.509,0.4827,0.4628,0.4628,0.4425,0.4289,0.4287,0.4492,0.4628,0.4764,0.496,0.5156,0.5362,0.5428,0.5428,0.5428,0.5428,0.5428,0.5428,0.5428,0.5428,0.5428,0.5508,0.5657,0.5796,0.5949,0.6105,0.6335,0.5956,0.5803,0.5803,0.58,0.58,0.58,0.5803,0.5803,0.5803,0.5803,0.5803,0.5803,0.5803,0.5803,0.5803,0.5803,0.5803,0.5823,0.5976,0.603,0.6054,0.0,0.0,0.0,0.0,0.0,0.0,0.0,0.0,0.009,0.0269,0.0269,0.0359,0.0449,0.0359,0.0269,0.0269,0.009,0.0,0.0,0.0,0.0,0.0,0.0,0.0,0.0,0.0,0.0,0.0,0.0087,0.0172,0.0341,0.0751,0.1155,0.1648,0.2269,0.3054,0.3928,0.4648,0.524,0.5786,0.618,0.6338,0.6338,0.6338,0.6338,0.6338,0.6338,0.6338,0.6254,0.6207,0.6122,0.5996,0.58,0.564,0.5542,0.564,0.5599,0.5545,0.5644,0.5671,0.562,0.548,0.5428,0.5456,0.5498,0.5381,0.5271,0.537,0.5105,0.4865,0.478,0.4694,0.4594,0.4506,0.4836,0.507,0.504,0.5248,0.5413,0.5372,0.5428,0.5428,0.5428,0.5428,0.5428,0.5428,0.546,0.5521,0.5521,0.5657,0.5806,0.5959,0.6006,0.6105,0.6335,0.6061,0.5962,0.5959,0.585,0.58,0.5803,0.5911,0.5962,0.5969,0.6078,0.6122,0.6122,0.6122,0.6122,0.6122,0.6122,0.6122,0.6129,0.6176,0.6193,0.62,0.0,0.0,0.0,0.0,0.0,0.0,0.018,0.018,0.0269,0.0628,0.0628,0.0628,0.0807,0.0628,0.0359,0.0359,0.018,0.0,0.0,0.0,0.0,0.0,0.0,0.0,0.0,0.0,0.009,0.018,0.0176,0.0348,0.0695,0.0935,0.143,0.2182,0.2898,0.3683,0.4537,0.5108,0.5629,0.6025,0.6267,0.638,0.6427,0.6369,0.6342,0.6335,0.6281,0.6338,0.6338,0.6338,0.6159,0.6013,0.5922,0.5789,0.5691,0.5776,0.5742,0.5691,0.5779,0.58,0.5759,0.5579,0.5535,0.5559,0.565,0.5601,0.5553,0.5571,0.5444,0.5272,0.5191,0.5179,0.5151,0.5064,0.5332,0.5497,0.5405,0.5544,0.564,0.5545,0.5535,0.5535,0.5535,0.5535,0.5535,0.5535,0.5623,0.5674,0.5674,0.5813,0.5935,0.6027,0.6088,0.6166,0.6335,0.6169,0.6122,0.6122,0.6027,0.5983,0.5986,0.6078,0.6122,0.6125,0.622,0.6338,0.6338,0.6338,0.6338,0.6338,0.6338,0.6338,0.6338,0.6338,0.6338,0.6338,0.0,0.0,0.0,0.0,0.0,0.009,0.0359,0.0448,0.0628,0.1076,0.0897,0.0897,0.1166,0.0719,0.045,0.045,0.018,0.0,0.0,0.0,0.0,0.0,0.0,0.0092,0.009,0.009,0.018,0.0448,0.044,0.0785,0.1219,0.1621,0.2281,0.3039,0.3789,0.4493,0.5062,0.5693,0.6093,0.6257,0.6414,0.6576,0.6685,0.6546,0.6485,0.6454,0.6325,0.6271,0.6338,0.6338,0.6166,0.6051,0.6051,0.5945,0.5823,0.5837,0.5833,0.5823,0.5837,0.584,0.584,0.584,0.584,0.5837,0.5823,0.5823,0.5827,0.584,0.584,0.5909,0.5895,0.5892,0.5888,0.5875,0.5885,0.5817,0.5803,0.5813,0.5817,0.5803,0.58,0.58,0.58,0.58,0.58,0.58,0.5813,0.5823,0.5823,0.5966,0.6051,0.6051,0.6186,0.6338,0.6338,0.6338,0.6338,0.6338,0.6338,0.6338,0.6338,0.6338,0.6338,0.6338,0.6338,0.6338,0.6338,0.6338,0.6338,0.6338,0.6338,0.6338,0.6338,0.6338,0.6338,0.6338,0.0,0.0,0.0,0.0,0.0,0.0091,0.036,0.0538,0.0807,0.1256,0.1436,0.1615,0.1615,0.1274,0.0827,0.0643,0.028,0.0,0.0,0.0,0.0,0.0,0.0188,0.0378,0.0659,0.0464,0.0547,0.0987,0.1072,0.1514,0.2224,0.2658,0.3356,0.432,0.4769,0.5323,0.5975,0.6197,0.6401,0.6572,0.6651,0.6671,0.6698,0.6664,0.6576,0.6468,0.6437,0.6356,0.6338,0.6338,0.6237,0.621,0.621,0.6105,0.6003,0.6125,0.6074,0.6006,0.6129,0.6162,0.6162,0.6162,0.6162,0.6129,0.6006,0.5979,0.6013,0.6359,0.646,0.6497,0.6667,0.657,0.6456,0.6463,0.6332,0.6155,0.6039,0.5981,0.5935,0.5817,0.58,0.58,0.58,0.58,0.58,0.58,0.5911,0.5979,0.5979,0.6125,0.621,0.621,0.6244,0.6338,0.6338,0.6338,0.6338,0.6338,0.6338,0.6338,0.6338,0.6338,0.6338,0.6338,0.6338,0.6338,0.6338,0.6338,0.6338,0.6338,0.6338,0.6338,0.6338,0.6338,0.6338,0.6338,0.0,0.0,0.0,0.0,0.0,0.0092,0.0456,0.0722,0.1076,0.1705,0.181,0.1821,0.1821,0.1298,0.0751,0.0375,0.0095,0.0,0.0,0.0,0.0,0.0,0.0289,0.0677,0.1159,0.1339,0.15,0.182,0.1982,0.2509,0.3403,0.376,0.4383,0.5181,0.5566,0.6031,0.6405,0.6583,0.6723,0.681,0.681,0.6851,0.6902,0.6837,0.6759,0.6671,0.6525,0.638,0.6338,0.6338,0.6338,0.6338,0.6338,0.6207,0.6156,0.6237,0.6203,0.6159,0.624,0.6338,0.6338,0.6338,0.6338,0.624,0.6159,0.6139,0.6239,0.6546,0.6714,0.6839,0.7211,0.7191,0.7159,0.7212,0.7053,0.6783,0.6552,0.6385,0.6259,0.603,0.602,0.602,0.602,0.602,0.602,0.602,0.6095,0.6139,0.6139,0.6217,0.6338,0.6338,0.6338,0.6338,0.6338,0.6338,0.6338,0.6338,0.6338,0.6338,0.6338,0.6338,0.6338,0.6338,0.6338,0.6338,0.6338,0.6338,0.6338,0.6338,0.6338,0.6338,0.6338,0.6338,0.6338,0.6338,0.0,0.0,0.0,0.0,0.0,0.0187,0.0558,0.0916,0.136,0.1995,0.1933,0.1861,0.1768,0.1137,0.0576,0.0,0.0,0.0,0.0,0.0,0.0,0.0098,0.0394,0.0887,0.1773,0.2454,0.2788,0.2864,0.3087,0.3685,0.4565,0.483,0.5275,0.5899,0.6254,0.6546,0.6701,0.6877,0.6966,0.6966,0.6966,0.7034,0.7129,0.701,0.6949,0.6895,0.6641,0.6441,0.6291,0.6271,0.6338,0.6338,0.6338,0.6338,0.6338,0.6338,0.6278,0.6298,0.6298,0.6315,0.6335,0.6335,0.6335,0.6335,0.6335,0.6298,0.6338,0.6641,0.6791,0.7096,0.7557,0.7787,0.7936,0.7936,0.771,0.7403,0.7019,0.6714,0.6563,0.6338,0.6338,0.6338,0.6338,0.6338,0.6338,0.6338,0.6338,0.6338,0.6338,0.6338,0.6338,0.6338,0.6338,0.6338,0.6338,0.6338,0.6338,0.6338,0.6338,0.6338,0.6338,0.6338,0.6338,0.6338,0.6338,0.6338,0.6338,0.6338,0.6338,0.6338,0.6338,0.6338,0.6338,0.6338,0.6338,0.6338,0.0,0.0,0.0,0.0,0.0,0.0097,0.0381,0.0852,0.123,0.1514,0.1897,0.1996,0.1615,0.087,0.0295,0.0,0.0,0.0,0.0,0.0,0.01,0.0295,0.0798,0.1609,0.2614,0.3555,0.4034,0.3878,0.4326,0.4915,0.5542,0.5813,0.6171,0.6615,0.6704,0.6868,0.7024,0.7024,0.7112,0.7112,0.7112,0.7122,0.7139,0.7119,0.7037,0.6922,0.6881,0.6685,0.6424,0.6302,0.6338,0.6338,0.6338,0.6338,0.6338,0.6338,0.6346,0.6444,0.6444,0.6539,0.6641,0.6641,0.6641,0.6641,0.6641,0.6444,0.6412,0.6788,0.7022,0.7411,0.8174,0.8327,0.8399,0.8551,0.8089,0.7633,0.718,0.6872,0.6563,0.6338,0.6338,0.6338,0.6338,0.6338,0.6338,0.6338,0.6338,0.6338,0.6338,0.6338,0.6338,0.6338,0.6338,0.6338,0.6338,0.6338,0.6338,0.6338,0.6338,0.6338,0.6338,0.6338,0.6338,0.6338,0.6338,0.6338,0.6338,0.6338,0.6338,0.6338,0.6338,0.6338,0.6338,0.6338,0.6338,0.6338,0.0,0.0,0.0,0.0,0.0,0.0098,0.0388,0.0672,0.0954,0.124,0.1444,0.1454,0.1067,0.0493,0.01,0.0,0.0,0.0101,0.02,0.0201,0.0403,0.0798,0.1407,0.2119,0.3228,0.4294,0.5001,0.5531,0.5598,0.5877,0.6457,0.6474,0.6704,0.6966,0.6966,0.7054,0.7139,0.7139,0.7139,0.7139,0.7139,0.7139,0.7139,0.7139,0.7102,0.7024,0.6861,0.6661,0.6451,0.6308,0.6338,0.6274,0.6356,0.638,0.6396,0.6481,0.6552,0.66,0.66,0.6651,0.6702,0.6702,0.6702,0.6702,0.6702,0.66,0.6561,0.6788,0.7085,0.7442,0.7957,0.8322,0.8551,0.8551,0.8322,0.794,0.7257,0.6949,0.6637,0.6338,0.6338,0.6338,0.6338,0.6338,0.6338,0.6338,0.6338,0.6338,0.6338,0.6338,0.6338,0.6338,0.6338,0.6298,0.638,0.638,0.642,0.6508,0.6508,0.642,0.6338,0.6338,0.6338,0.6338,0.6338,0.6338,0.6338,0.6338,0.6338,0.6338,0.6338,0.6338,0.6338,0.6338,0.6338,0.6338]},{"header":{"parameterUnit":"m.s-1","parameterCategory":1,"la1":30.6,"la2":28.766,"lo1":-90.7593,"lo2":-88.6598,"dy":0.0162,"dx":0.0183,"nx":116,"ny":114,"refTime":"2024-02-15T06:00:00:Z","depth":0,"parameterNumber":3,"parameterNumberName":"V-component_of_WINDS"},"data":[0.0,0.0,0.0,0.0,0.0,0.0,0.0,0.0,0.0,0.0,0.0,0.0,0.0,0.0,0.0,0.0,0.0,0.0,0.0,0.0,0.0,0.0,0.0,0.0,0.0,0.0,0.0,0.0,0.0,0.0,0.0,0.0,0.0,0.0,0.0,0.0,0.0,0.0,0.0,0.0,0.0,0.0,0.0,0.0,0.0,0.0,0.0,0.0,0.0,0.0,0.0,0.0,0.0,0.0,0.0,0.0,0.0,0.0,0.0,0.0,0.0,0.0,0.0,0.0,0.0,0.0,0.0,0.0,0.0,0.0,0.0,0.0,0.0,0.0,0.0,0.0,0.0,0.0,0.0,0.0,0.0,0.0,0.0,0.0,0.0,0.0,0.0,0.0,0.0,0.0,0.0,0.0,0.0,0.0,0.0,0.0,0.0,0.0,0.0,0.0,0.0,0.0,0.0,0.0,0.0,0.0,0.0,0.0,0.0,0.0,0.0,0.0,0.0,0.0,0.0,0.0,0.0,0.0,0.0,0.0,0.0,0.0,0.0,0.0,0.0,0.0,0.0,0.0,0.0,0.0,0.0,0.0,0.0,0.0,0.0,0.0,0.0,0.0,0.0,0.0,0.0,0.0,0.0,0.0,0.0,0.0,0.0,0.0,0.0,0.0,0.0,0.0,0.0,0.0,0.0,0.0,0.0,0.0,0.0,0.0,0.0,0.0,0.0,0.0,0.0,0.0,0.0,0.0,0.0,0.0,0.0,0.0,0.0,0.0,0.0,0.0,0.0,0.0,0.0,0.0,0.0,0.0,0.0,0.0,0.0,0.0,0.0,0.0,0.0,0.0,0.0,0.0,0.0,0.0,0.0,0.0,0.0,0.0,0.0,0.0,0.0,0.0,0.0,0.0,0.0,0.0,0.0,0.0,0.0,0.0,0.0,0.0,0.0,0.0,0.0,0.0,0.0,0.0,0.0,0.0,0.0,0.0,0.0,0.0,0.0,0.0,0.0,0.0,0.0,0.0,0.0,0.0,0.0,0.0,0.0,0.0,0.0,0.0,0.0,0.0,0.0,0.0,0.0,0.0,0.0,0.0,0.0,0.0,0.0,0.0,0.0,0.0,0.0,0.0,0.0,0.0,0.0,0.0,0.0,0.0,0.0,0.0,0.0,0.0,0.0,0.0,0.0,0.0,0.0,0.0,0.0,0.0,0.0,0.0,0.0,0.0,0.0,0.0,0.0,0.0,0.0,0.0,0.0,0.0,0.0,0.0,0.0,0.0,0.0,0.0,0.0,0.0,0.0,0.0,0.0,0.0,0.0,0.0,0.0,0.0,0.0,0.0,0.0,0.0,0.0,0.0,0.0,0.0,0.0,0.0,0.0,0.0,0.0,0.0,0.0,0.0,0.0,0.0,0.0,0.0,0.0,0.0,0.0,0.0,0.0,0.0,0.0,0.0,0.0,0.0,0.0,0.0,0.0,0.0,0.0,0.0,0.0,0.0,0.0,0.0,0.0,0.0,0.0,0.0,0.0,0.0,0.0,0.0,0.0,0.0,0.0,0.0,0.0,0.0,0.0,0.0,0.0,0.0,0.0,0.0,0.0,0.0,0.0,0.0,0.0,0.0,0.0,0.0,0.0,0.0,0.0,0.0,0.0,0.0,0.0,0.0,0.0,0.0,0.0,0.0,0.0,0.0,0.0,0.0,0.0,0.0,0.0,0.0,0.0,0.0,0.0,0.0,0.0,0.0,0.0,0.0,0.0,0.0,0.0,0.0,0.0,0.0,0.0,0.0,0.0,0.0,0.0,0.0,0.0,0.0,0.0,0.0,0.0,0.0,0.0,0.0,0.0,0.0,0.0,0.0,0.0,0.0,0.0,0.0,0.0,0.0,0.0,0.0,0.0,0.0,0.0,0.0,0.0,0.0,0.0,0.0,0.0,0.0,0.0,0.0,0.0,0.0,0.0,0.0,0.0,0.0,0.0,0.0,0.0,0.0,0.0,0.0,0.0,0.0,0.0,0.0,0.0,0.0,0.0,0.0,0.0,0.0,0.0,0.0,0.0,0.0,0.0,0.0,0.0,0.0,0.0,0.0,0.0,0.0,0.0,0.0,0.0,0.0,0.0,0.0,0.0,0.0,0.0,0.0,0.0,0.0,0.0,0.0,0.0,0.0,0.0,0.0,0.0,0.0,0.0,0.0,0.0,0.0,0.0,0.0,0.0,0.0,0.0,0.0,0.0,0.0,0.0,0.0,0.0,0.0,0.0,0.0,0.0,0.0,0.0,0.0,0.0,0.0,0.0,0.0,0.0,0.0,0.0,0.0,0.0,0.0,0.0,0.0,0.0,0.0,0.0,0.0,0.0,0.0,0.0,0.0,0.0,0.0,0.0,0.0,0.0,0.0,0.0,0.0,0.0,0.0,0.0,0.0,0.0,0.0,0.0,0.0,0.0,0.0,0.0,0.0,0.0,0.0,0.0,0.0,0.0,0.0,0.0,0.0,0.0,0.0,0.0,0.0,0.0,0.0,0.0,0.0,0.0,0.0,0.0,0.0,0.0,0.0,0.0,0.0,0.0,0.0,0.0,0.0,0.0,0.0,0.0,0.0,0.0,0.0,0.0,0.0,0.0,0.0,0.0,0.0,0.0,0.0,0.0,0.0,0.0,0.0,0.0,0.0,0.0,0.0,0.0,0.0,0.0,0.0,0.0,0.0,0.0,0.0,0.0,0.0,0.0,0.0,0.0,0.0,0.0,0.0,0.0,0.0,0.0,0.0,0.0,0.0,0.0,0.0,0.0,0.0,0.0,0.0,0.0,0.0,0.0,0.0,0.0,0.0,0.0,0.0,0.0,0.0,0.0,0.0,0.0,0.0,0.0,0.0,0.0,0.0,0.0,0.0,0.0,0.0,0.0,0.0,0.0,0.0,0.0,0.0,0.0,0.0,0.0,0.0,0.0,0.0,0.0,0.0,0.0,0.0,0.0,0.0,0.0,0.0,0.0,0.0,0.0,0.0,0.0,0.0,0.0,0.0,0.0,0.0,0.0,0.0,0.0,0.0,0.0,0.0,0.0,0.0,0.0,0.0,0.0,0.0,0.0,0.0,0.0,0.0,0.0,0.0,0.0,0.0,0.0,0.0,0.0,0.0,0.0,0.0,0.0,0.0,0.0,0.0,0.0,0.0,0.0,0.0,0.0,0.0,0.0,0.0,0.0,0.0,0.0,0.0,0.0,0.0,0.0,0.0,0.0,0.0,0.0,0.0,0.0,0.0,0.0,0.0,0.0,0.0,0.0,0.0,0.0,0.0,0.0,0.0,0.0,0.0,0.0,0.0,0.0,0.0,0.0,0.0,0.0,0.0,0.0,0.0,0.0,0.0,0.0,0.0,0.0,0.0,0.0,0.0,0.0,0.0,0.0,0.0,0.0,0.0,0.0,0.0,0.0,0.0,0.0,0.0,0.0,0.0,0.0,0.0,0.0,0.0,0.0,0.0,0.0,0.0,0.0,0.0,0.0,0.0,0.0,0.0,0.0,0.0,0.0,0.0,0.0,0.0,0.0,0.0,0.0,0.0,0.0,0.0,0.0,0.0,0.0,0.0,0.0,0.0,0.0,0.0,0.0,0.0,0.0,0.0,0.0,0.0,0.0,0.0,0.0,0.0,0.0,0.0,0.0,0.0,0.0,0.0,0.0,0.0,0.0,0.0,0.0,0.0,0.0,0.0,0.0,0.0,0.0,0.0,0.0,0.0,0.0,0.0,0.0,0.0,0.0,0.0,0.0,0.0,0.0,0.0,0.0,0.0,0.0,0.0,0.0,0.0,0.0,0.0,0.0,0.0,0.0,0.0,0.0,0.0,0.0,0.0,0.0,0.0,0.0,0.0,0.0,0.0,0.0,0.0,0.0,0.0,0.0,0.0,0.0,0.0,0.0,0.0,0.0,0.0,0.0,0.0,0.0,0.0,0.0,0.0,0.0,0.0,0.0,0.0,0.0,0.0,0.0,0.0,0.0,0.0,0.0,0.0,0.0,0.0,0.0,0.0,0.0,0.0,0.0,0.0,0.0,0.0,0.0,0.0,0.0,0.0,0.0,0.0,0.0,0.0,0.0,0.0,0.0,0.0,0.0,0.0,0.0,0.0,0.0,0.0,0.0,0.0,0.0,0.0,0.0,0.0,0.0,0.0,0.0,0.0,0.0,0.0,0.0,0.0,0.0,0.0,0.0,0.0,0.0,0.0,0.0,0.0,0.0,0.0,0.0,0.0,0.0,0.0,0.0,0.0,0.0,0.0,0.0,0.0,0.0,0.0,0.0,0.0,0.0,0.0,0.0,0.0,0.0,0.0,0.0,0.0,0.0,0.0,0.0,0.0,0.0,0.0,0.0,0.0,0.0,0.0,0.0,0.0,0.0,0.0,0.0,0.0,0.0,0.0,0.0,0.0,0.0,0.0,0.0,0.0,0.0,0.0,0.0,0.0,0.0,0.0,0.0,0.0,0.0,0.0,0.0,0.0,0.0,0.0,0.0,0.0,0.0,0.0,0.0,0.0,0.0,0.0,0.0,0.0,0.0,0.0,0.0,0.0,0.0,0.0,0.0,0.0,0.0,0.0,0.0,0.0,0.0,0.0,0.0,0.0,0.0,0.0,0.0,0.0,0.0,0.0,0.0,0.0,0.0,0.0,0.0,0.0,0.0,0.0,0.0,0.0,0.0,0.0,0.0,0.0,0.0,0.0,0.0,0.0,0.0,0.0,0.0,0.0,0.0,0.0,0.0,0.0,0.0,0.0,0.0,0.0,0.0,0.0,0.0,0.0,0.0,0.0,0.0,0.0,0.0,0.0,0.0,0.0,0.0,0.0,0.0,0.0,0.0,0.0,0.0,0.0,0.0,0.0,0.0,0.0,0.0,0.0,0.0,0.0,0.0,0.0,0.0,0.0,0.0,0.0,0.0,0.0,0.0,0.0,0.0,0.0,0.0,0.0,0.0,0.0,0.0,0.0,0.0,0.0,0.0,0.0,0.0,0.0,0.0,0.0,0.0,0.0,0.0,0.0,0.0,0.0,0.0,0.0,0.0,0.0,0.0,0.0,0.0,0.0,0.0,0.0,0.0,0.0,0.0,0.0,0.0,0.0,0.0,0.0,0.0,0.0,0.0,0.0,0.0,0.0,0.0,0.0,0.0,0.0,0.0,0.0,0.0,0.0,0.0,0.0,0.0,0.0,0.0,0.0,0.0,0.0,0.0,0.0,0.0,0.0,0.0,0.0,0.0,0.0,0.0,0.0,0.0,0.0,0.0,0.0,0.0,0.0,0.0,0.0,0.0,0.0,0.0,0.0,0.0,0.0,0.0,0.0,0.0,0.0,0.0,0.0,0.0,0.0,0.0,0.0,0.0,0.0,0.0,0.0,0.0,0.0,0.0,0.0,0.0,0.0,0.0,0.0,0.0,0.0,0.0,0.0,0.0,0.0,0.0,0.0,0.0,0.0,0.0,0.0,0.0,0.0,0.0,0.0,0.0,0.0,0.0,0.0,0.0,0.0,0.0,0.0,0.0,0.0,0.0,0.0,0.0,0.0,0.0,0.0,0.0,0.0,0.0,0.0,0.0,0.0,0.0,0.0,0.0,0.0,0.0,0.0,0.0,0.0,0.0,0.0,0.0,0.0,0.0,0.0,0.0,0.0,0.0,0.0,0.0,0.0,0.0,0.0,0.0,0.0,0.0,0.0,0.0,0.0,0.0,0.0,0.0,0.0,0.0,0.0,0.0,0.0,0.0,0.0,0.0,0.0,0.0,0.0,0.0,0.0,0.0,0.0,0.0,0.0,0.0,0.0,0.0,0.0,0.0,0.0,0.0,0.0,0.0,0.0,0.0,0.0,0.0,0.0,0.0,0.0,0.0,0.0,0.0,0.0,0.0,0.0,0.0,0.0,0.0,0.0,0.0,0.0,0.0,0.0,0.0,0.0,0.0,0.0,0.0,0.0,0.0,0.0,0.0,0.0,0.0,0.0,0.0,0.0,0.0,0.0,0.0,0.0,0.0,0.0,0.0,0.0,0.0,0.0,0.0,0.0,0.0,0.0,0.0,0.0,0.0,0.0,0.0,0.0,0.0,0.0,0.1616,-0.0407,0.0,0.0,0.0,0.0,0.0,0.0,0.0,0.0,0.0,0.0,0.0,0.0,0.0,0.0,0.0,0.0,0.0,0.0,0.0,0.0,0.0,0.0,0.0,0.0,0.0,0.0,-1.2985,-1.2698,-1.2278,-1.1274,-0.982,-0.7787,-0.5265,-0.2773,-0.038,0.1527,0.2958,0.3887,0.4047,0.3727,0.2865,0.0054,-0.2611,-0.5097,0.0,0.0,0.0,0.0,0.0,0.0,0.0,0.0,0.0,0.0,0.0,0.0,0.0,0.0,0.0,0.0,0.0,0.0,0.0,0.0,0.0,0.0,0.0,0.0,0.0,0.0,0.0,0.0,0.0,0.0,0.0,0.0,0.0,0.0,0.0,0.0,0.0,0.0,0.0,0.0,0.0,0.0,0.0,0.0,0.0,0.0,0.0,0.0,0.0,0.0,0.0,0.0,0.0,0.0,0.0,0.0,0.0,0.0,0.0,0.0,0.0,0.0,0.0,0.0,0.0,0.0,0.0,0.0,0.0,0.0,0.4917,0.2615,0.0,0.0,0.0,0.0,0.0,0.0,0.0,0.0,0.0,0.0,0.0,0.0,0.0,0.0,0.0,0.0,0.0,0.0,0.0,0.0,0.0,0.0,0.0,-0.9861,-0.9615,-0.9639,-0.9531,-0.9359,-0.9064,-0.7992,-0.6321,-0.4116,-0.1313,0.1294,0.3743,0.558,0.6748,0.7351,0.7191,0.6269,0.4638,0.3602,0.1327,0.0,0.0,0.0,0.0,0.0,0.0,0.0,0.0,0.0,0.0,0.0,0.0,0.0,0.0,0.0,0.0,0.0,0.0,0.0,0.0,0.0,0.0,0.0,0.0,0.0,0.0,0.0,0.0,0.0,0.0,0.0,0.0,0.0,0.0,0.0,0.0,0.0,0.0,0.0,0.0,0.0,0.0,0.0,0.0,0.0,0.0,0.0,0.0,0.0,0.0,0.0,0.0,0.0,0.0,0.0,0.0,0.0,0.0,0.0,0.0,0.0,0.0,0.0,0.0,0.0,1.1122,1.1559,1.1962,1.2018,1.2167,1.2232,0.8646,0.6373,0.5178,0.4054,0.0,0.0,0.0,0.0,0.0,0.0,0.0,0.0,0.0,0.0,0.0,0.0,0.0,0.0,0.0,0.0,0.0,0.0,0.0,0.0,0.0,-0.5898,-0.5992,-0.6607,-0.6649,-0.6577,-0.6413,-0.5067,-0.323,-0.0913,0.1986,0.4634,0.705,0.8404,0.9231,0.9585,0.8744,0.7729,0.6436,0.5412,0.0,0.0,0.0,0.0,0.0,0.0,0.0,0.0,0.0,0.0,0.0,0.0,0.0,0.0,0.0,0.0,0.0,0.0,0.0,0.0,0.0,0.0,0.0,0.0,0.0,0.0,0.0,0.0,0.0,0.0,0.0,0.0,0.0,0.0,0.0,0.0,0.0,0.0,0.0,0.0,0.0,0.0,0.0,0.0,0.0,0.0,0.4965,0.4817,0.0,0.0,0.0,0.0,0.0,0.0,0.0,0.0,0.0,0.0,0.0,0.0,0.0,1.1948,1.2216,1.3004,1.3381,1.3381,1.4038,1.4455,1.4571,1.4696,1.4782,1.4762,1.3826,0.0,0.9092,0.8177,0.0,0.0,0.0,0.0,0.0,0.0,0.0,0.0,0.0,0.0,0.0,0.0,0.0,0.0,0.0,0.0,0.0,0.0,0.0,0.0,0.0,-0.201,-0.2464,-0.3227,-0.3624,-0.3802,-0.3819,-0.2709,-0.099,0.1258,0.4034,0.6541,0.8829,1.0084,1.0762,1.0914,1.0041,0.911,0.81,0.7031,0.0,0.0,0.0,0.0,0.0,0.0,0.0,0.0,0.0,0.0,0.0,0.0,0.0,0.0,0.0,0.0,0.0,0.0,0.0,0.0,0.0,0.0,0.0,0.0,0.0,0.0,0.0,0.0,0.0,0.0,0.0,0.0,0.0,0.0,0.0,0.0,0.0,0.0,0.0,0.0,0.0,0.0,0.0,0.0,0.0,0.7421,0.8005,0.7698,0.7795,0.7932,0.0,0.0,0.0,0.0,0.0,0.0,0.0,0.0,0.0,1.2522,1.3273,1.3751,1.3751,1.4487,1.4811,1.4757,1.5131,1.545,1.5795,1.5849,1.5956,1.6053,1.5753,1.4785,1.3264,1.1839,1.0912,1.0402,0.0,0.0,0.0,0.0,1.1709,1.1717,0.0,0.0,0.0,0.0,0.0,0.0,0.0,0.0,0.0,0.0,0.0,0.0,0.2664,0.1767,0.0881,-0.0055,-0.0776,-0.1334,-0.1561,-0.0611,0.0883,0.3009,0.5548,0.7973,1.0179,1.1449,1.2061,1.2012,1.1316,1.0559,0.0,0.0,0.0,0.0,0.0,0.0,0.0,0.0,0.0,0.0,0.0,0.0,0.0,0.0,0.0,0.0,0.0,0.0,0.0,0.0,0.0,0.0,0.0,0.0,0.0,0.0,0.0,0.0,0.0,0.0,0.0,0.0,0.0,0.0,0.0,0.0,0.0,0.0,0.0,0.0,0.0,0.0,0.0,0.0,0.0,0.0,0.0,1.0284,1.0422,1.0399,1.0592,1.0814,0.0,0.0,0.0,0.0,0.0,0.0,1.408,1.4416,1.4526,1.4261,1.4979,1.533,1.527,1.5858,1.6115,1.6003,1.6115,1.6327,1.67,1.67,1.6837,1.7034,1.6863,1.6753,1.6489,1.4785,1.3889,1.3593,1.3823,1.388,1.3889,1.4317,1.445,1.4506,0.0,0.0,0.0,0.0,0.0,0.0,0.0,0.0,0.0,0.0,0.0,0.7358,0.6505,0.5316,0.396,0.2536,0.1497,0.0724,0.0112,0.1056,0.254,0.4433,0.6834,0.9109,1.1273,1.2648,1.3266,1.3112,0.0,0.0,0.0,0.0,0.0,0.0,0.0,0.0,0.0,0.0,0.0,0.0,0.0,0.0,0.0,0.0,0.0,0.0,0.0,0.0,0.0,0.0,0.0,0.0,0.0,0.0,0.0,0.0,0.0,0.0,0.0,0.0,0.0,0.0,0.0,0.0,0.0,0.0,0.0,0.0,0.0,0.0,0.0,0.0,0.0,0.0,0.0,0.0,0.0,0.0,0.0,1.2947,1.3016,0.0,0.0,0.0,0.0,1.5284,1.6115,1.6474,1.6162,1.6488,1.6442,1.5983,1.6643,1.7029,1.7074,1.7478,1.7713,1.7665,1.7713,1.7713,1.7713,1.7844,1.7927,1.7939,1.7927,1.7987,1.7999,1.6665,1.5963,1.5698,1.5941,1.593,1.5796,1.6121,1.6282,1.6282,0.0,0.0,0.0,0.0,0.0,0.0,0.0,0.0,1.1961,1.2401,1.1398,1.0436,0.9956,0.8557,0.696,0.5391,0.4219,0.3361,0.2824,0.3635,0.4969,0.6707,0.8899,1.1259,1.3778,1.447,1.4767,1.4721,0.0,0.0,0.0,0.0,0.0,0.0,0.0,0.0,0.0,0.0,0.0,0.0,0.0,0.0,0.0,0.0,0.0,0.0,0.0,0.0,0.0,0.0,0.0,0.0,0.0,0.0,0.0,0.0,0.0,0.0,0.0,0.0,0.0,0.0,0.0,0.0,0.0,0.0,0.0,0.0,0.0,0.0,0.0,0.0,0.0,0.0,0.0,0.0,0.0,0.0,0.0,1.5215,1.5582,0.0,1.6481,1.702,1.7381,1.7509,1.8044,1.8014,1.7255,1.7422,1.7326,1.6808,1.7102,1.7205,1.7188,1.7411,1.747,1.7396,1.7396,1.7439,1.7501,1.7544,1.7588,1.77,1.7817,1.7903,1.7945,1.7794,1.7581,1.7436,1.7532,1.7532,1.746,1.7567,1.7627,1.7627,0.0,0.0,0.0,0.0,0.0,0.0,0.0,0.0,1.4233,1.5125,1.4237,1.3432,1.3261,1.1807,1.0146,0.8473,0.7205,0.6284,0.5721,0.6405,0.7489,0.9068,1.1465,1.3697,1.5728,1.6077,1.6219,0.0,0.0,0.0,0.0,0.0,0.0,0.0,0.0,0.0,0.0,0.0,0.0,0.0,0.0,0.0,-0.7145,0.0,0.0,0.0,0.0,0.0,0.0,0.0,0.0,0.0,0.0,0.0,0.0,0.0,0.0,0.0,0.0,0.0,0.0,0.0,0.0,0.0,0.0,0.0,0.0,0.0,0.0,0.0,0.0,0.0,0.0,0.0,0.0,0.0,0.0,1.5955,1.6697,1.7258,1.7793,1.8272,1.8474,1.8978,1.9233,1.9006,1.936,1.9264,1.8454,1.8526,1.8368,1.7855,1.7894,1.7881,1.7854,1.7907,1.7907,1.7854,1.7854,1.7894,1.7921,1.7947,1.7987,1.8094,1.8238,1.8316,1.8408,1.8731,1.8777,1.8669,1.8464,1.8403,1.8372,1.8434,1.8477,1.8477,0.0,0.0,0.0,0.0,0.0,0.0,0.0,1.5959,1.6568,1.7594,1.6922,1.6332,1.6394,1.5061,1.3491,1.1817,1.0434,0.9414,0.8799,0.9264,1.016,1.1544,1.4496,1.6363,1.6972,1.7315,0.0,0.0,0.0,0.0,0.0,0.0,0.0,0.0,0.0,0.0,0.0,0.0,0.0,0.0,0.0,0.0,-0.4216,0.0,0.0,0.0,0.0,0.0,0.0,0.0,0.0,0.0,0.0,0.0,0.0,0.0,0.0,0.0,0.0,0.0,0.0,0.0,0.0,0.0,0.0,0.0,0.0,0.0,0.0,0.0,0.0,0.0,0.0,0.0,0.0,0.0,1.7392,1.7769,1.8367,1.9108,1.9609,1.9786,1.9455,2.006,2.0261,1.9839,2.0216,2.0245,1.9807,1.9803,1.9569,1.9116,1.9101,1.9161,1.9207,1.9207,1.9207,1.9207,1.9207,1.9184,1.9139,1.9184,1.9207,1.9244,1.9288,1.9413,1.953,1.953,1.953,1.9442,1.8846,1.8606,1.8556,1.876,1.8822,1.886,0.0,0.0,0.0,0.0,0.0,0.0,0.0,1.7732,1.8146,1.8781,1.8691,1.854,1.8357,1.7788,1.6802,1.5245,1.4218,1.3331,1.2624,1.2995,1.4061,1.589,1.7341,0.0,1.8914,0.0,0.0,0.0,0.0,0.0,0.0,0.0,0.0,0.0,0.0,0.0,0.0,0.0,0.0,0.0,0.0,0.0,-0.1096,0.0,0.0,0.0,0.0,0.0,0.0,0.0,0.0,0.0,0.0,0.0,0.0,0.0,0.0,0.0,0.0,0.0,0.0,0.0,0.0,0.0,0.0,0.0,0.0,0.0,0.0,0.0,0.0,0.0,0.0,0.0,1.9539,2.0225,1.9482,1.963,2.0027,2.0549,2.0484,2.0478,2.0627,2.0897,2.0876,2.04,2.0489,2.0303,1.9768,1.9723,1.9686,1.9545,1.9545,1.9566,1.9645,1.9645,1.9666,1.9722,1.9722,1.9687,1.9702,1.9687,1.9722,1.9722,1.9823,1.9909,1.996,2.0085,2.0085,1.9965,1.9442,1.9199,1.9153,1.9273,1.9406,1.9536,0.0,0.0,0.0,0.0,0.0,0.0,0.0,1.8711,1.9161,1.98,1.985,1.9954,2.0271,1.9655,1.8845,1.7903,1.6782,1.5999,1.5685,1.6388,1.7439,0.0,0.0,0.0,0.0,0.0,0.0,0.0,0.0,0.0,0.0,0.0,0.0,0.0,0.0,0.0,0.0,0.0,0.0,0.0,0.0,0.0,0.2293,0.1418,0.0655,-0.0055,-0.0438,-0.1096,-0.1814,-0.2309,0.0,0.0,0.0,0.0,0.0,0.0,0.0,0.0,0.0,0.0,0.0,0.0,0.0,0.0,0.0,0.0,0.0,0.0,0.0,0.0,0.0,0.0,0.0,0.0,2.1457,2.2003,2.1951,2.16,2.1296,2.134,2.1257,2.1098,2.106,2.1186,2.1084,2.0546,2.0537,2.0441,2.02,2.015,2.017,2.0243,2.0224,2.0292,2.0413,2.0447,2.0447,2.0499,2.0499,2.0449,2.0366,2.0465,2.0499,2.0499,2.0648,2.0681,2.0681,2.0812,2.078,2.0648,0.0,0.0,0.0,0.0,2.0174,2.0447,0.0,0.0,0.0,0.0,0.0,0.0,0.0,1.8831,1.9491,2.0402,2.043,2.0727,2.1723,2.0811,2.0039,1.9884,1.8593,1.7928,1.8207,0.0,0.0,2.0977,0.0,0.0,0.0,0.0,0.0,0.0,0.0,0.0,0.0,0.0,0.0,0.0,0.0,0.0,0.0,0.0,0.0,0.0,0.0,0.0,0.5903,0.4984,0.424,0.3655,0.3059,0.2353,0.1589,0.0877,0.0,0.0,0.0,0.0,0.0,0.0,0.0,0.0,0.0,0.0,0.0,0.0,0.0,0.0,0.0,0.0,0.0,0.0,0.0,0.0,0.0,0.0,0.0,0.0,2.3128,2.3385,2.4281,2.3318,2.2334,2.1788,2.1843,2.1679,2.1162,2.1279,2.1151,2.061,2.0613,2.0712,2.0893,2.0843,0.0,0.0,0.0,2.1071,2.1325,2.134,2.134,2.134,2.134,2.1261,2.1103,2.1261,2.134,2.1371,2.1462,2.1524,2.1524,2.1524,2.1493,2.1386,2.0763,2.0429,2.0379,2.0614,2.0958,2.1356,0.0,0.0,0.0,0.0,0.0,0.0,0.0,1.7283,1.8187,1.9275,2.0119,2.0682,2.085,2.1159,2.1234,2.0928,2.0443,2.0354,0.0,0.0,0.0,0.0,0.0,0.0,0.0,0.0,0.0,0.0,0.0,0.0,0.0,0.0,0.0,0.0,0.0,0.0,0.0,0.0,0.0,0.0,0.0,0.0,0.9784,0.9148,0.8286,0.7425,0.6968,0.6235,0.5341,0.4595,0.3767,0.2851,0.1655,0.0,0.0,0.0,0.0,0.0,0.0,0.0,0.0,0.0,0.0,0.0,0.0,0.0,0.0,0.0,0.0,0.0,0.0,0.0,0.0,2.44,2.4712,2.4811,2.4519,2.379,2.3106,2.2622,2.2132,2.1818,2.1796,2.1796,2.1763,2.1615,2.1509,2.1495,2.1526,2.1371,2.1293,2.1308,2.1277,2.1325,2.1559,2.1559,2.1603,2.1691,2.1691,0.0,2.1661,2.1691,2.1691,2.1691,2.1721,2.1751,2.1751,2.1751,2.1721,2.1691,2.1276,2.1134,2.1182,2.1308,2.1448,2.1617,0.0,0.0,0.0,0.0,0.0,0.0,0.0,1.5536,1.6774,1.8107,1.9005,1.9711,2.0288,2.0418,2.0601,2.0976,2.1343,0.0,0.0,0.0,0.0,0.0,0.0,0.0,0.0,0.0,0.0,0.0,0.0,0.0,0.0,0.0,0.0,0.0,0.0,0.0,0.0,0.0,0.0,0.0,0.0,0.0,1.5816,1.3699,1.2296,1.1453,1.0967,1.0262,0.9395,0.8518,0.7635,0.6658,0.529,0.435,0.368,0.0,0.0,0.0,0.0,0.0,0.0,0.0,0.0,0.0,0.0,0.0,0.0,0.0,0.0,2.2815,2.3638,0.0,2.5535,2.623,2.5981,2.561,2.5376,2.438,2.3431,2.2671,2.2293,2.2147,2.2192,2.2164,2.2153,2.2096,2.2039,2.1998,2.1998,2.1866,2.1823,2.1915,2.1794,2.184,2.2007,2.2007,2.202,2.2106,2.2077,2.202,2.2003,2.1991,2.2007,2.2007,2.202,2.2049,2.2049,2.2049,2.2049,2.202,2.1857,2.1751,2.1645,2.1675,2.1827,2.1949,0.0,0.0,0.0,0.0,0.0,0.0,0.0,1.3317,1.4966,1.6622,1.7428,1.8301,1.9409,1.9195,1.9411,2.0515,2.1698,0.0,0.0,0.0,0.0,0.0,0.0,0.0,0.0,0.0,0.0,0.0,0.0,0.0,0.0,0.0,0.0,0.0,0.0,0.0,0.0,0.0,0.0,0.0,0.0,0.0,2.1342,1.834,1.6509,1.5457,1.495,1.4298,1.3499,1.2437,1.1474,1.0466,0.8977,0.8033,0.7285,0.6639,0.702,0.0,0.0,0.0,0.0,0.0,0.0,0.0,0.0,0.0,2.3211,2.3964,2.4368,2.4947,2.5897,2.6428,2.6932,2.7656,2.6849,2.6127,2.6053,2.4832,2.3653,2.2855,2.2678,2.2643,2.2643,2.2634,2.2582,2.2529,2.2493,2.2466,2.2466,2.2375,2.2381,2.2487,2.2364,2.2364,2.2487,2.2487,2.2487,2.2487,2.2432,2.2349,2.2304,2.231,2.2282,2.2282,2.231,2.231,2.231,2.231,2.231,2.231,2.2366,2.222,2.2044,2.1986,2.2077,2.2225,0.0,0.0,0.0,0.0,0.0,0.0,0.0,0.0,1.213,1.4225,1.5565,1.6653,1.7436,1.7879,1.8617,1.9809,0.0,0.0,0.0,0.0,0.0,0.0,0.0,0.0,0.0,0.0,0.0,0.0,0.0,0.0,0.0,0.0,0.0,0.0,0.0,0.0,0.0,0.0,0.0,0.0,0.0,0.0,2.3282,2.2814,2.1243,1.922,1.8765,1.8123,1.734,1.6336,1.5336,1.4294,1.2948,1.2001,1.1258,1.0624,0.0,1.1429,1.2404,1.5333,1.8479,1.9937,2.1532,2.3155,0.0,0.0,2.5922,2.7143,2.7492,2.7717,2.8036,2.8329,2.8312,2.772,2.7071,2.6346,2.561,2.4744,2.4116,2.402,2.3738,2.3544,2.3544,2.3445,2.3371,2.3371,2.3133,2.3003,2.3003,2.2825,2.2721,2.2764,2.2677,2.2677,2.2764,2.2764,2.2764,2.2764,2.2764,2.2712,2.2632,2.2632,2.2605,2.2569,2.2432,2.2377,2.2377,2.2377,2.2377,2.2405,2.2515,2.2552,2.2497,2.2321,2.231,2.2394,0.0,0.0,0.0,0.0,0.0,0.0,0.0,0.0,0.0,1.2066,1.3684,1.5023,1.5998,1.7332,1.857,0.0,0.0,0.0,0.0,0.0,0.0,0.0,0.0,0.0,0.0,0.0,0.0,0.0,0.0,0.0,0.0,0.0,0.0,0.0,0.0,0.0,0.0,0.0,0.0,0.0,0.0,0.0,2.365,2.3704,2.3144,2.2257,2.1551,2.0587,0.0,0.0,1.7595,1.6494,1.5284,1.4654,1.4264,1.3813,1.4007,0.0,1.6322,1.9011,2.1651,0.0,2.4723,2.6754,2.7672,2.8603,2.9302,2.9437,2.9582,2.9539,2.9114,2.9159,2.8998,0.0,2.7494,2.6762,2.592,2.5049,2.4495,2.4495,2.4302,2.4078,2.3883,2.3795,2.3728,2.3685,2.3535,2.3445,2.3399,2.3312,2.3259,2.3206,2.3182,2.3133,2.3095,2.3095,2.3095,2.3095,2.302,2.297,2.2944,2.2868,2.279,2.2712,2.2659,2.2605,2.2579,2.2579,2.2605,2.2632,2.2685,2.2738,2.2764,2.2579,2.2569,2.2579,0.0,0.0,0.0,0.0,0.0,0.0,0.0,0.0,0.0,0.0,1.1569,1.3451,1.5242,1.709,1.8503,0.0,0.0,0.0,0.0,0.0,0.0,0.0,0.0,0.0,0.0,0.0,0.0,0.0,0.0,0.0,0.0,0.0,0.0,0.0,0.0,0.0,0.0,0.0,0.0,0.0,0.0,0.0,2.3196,2.3433,2.3663,2.3784,2.3135,2.2243,0.0,0.0,1.9176,1.814,1.6994,1.6507,1.6346,1.6244,1.6842,1.7894,1.9604,2.1918,0.0,2.4831,2.7094,2.9295,2.9941,3.0693,3.118,3.0905,3.0741,3.0459,2.9787,2.9507,2.9094,2.8265,2.7471,2.6692,2.5857,2.5111,2.4676,2.4711,2.4582,2.4393,2.4155,2.4039,2.3958,2.3917,2.3816,2.3735,2.3692,2.3671,2.3628,2.3576,2.3576,2.3549,2.3435,2.3435,2.3435,2.3412,2.3301,2.3253,2.323,2.3126,2.3052,2.2977,2.2902,2.2868,2.2816,2.2816,2.2842,2.2893,2.2952,2.3028,2.3052,2.2985,2.2884,2.2816,0.0,0.0,0.0,0.0,0.0,0.0,0.0,0.0,0.0,0.0,0.0,0.0,0.0,0.0,0.0,0.0,0.0,0.0,0.0,0.0,0.0,0.0,0.0,0.0,0.0,0.0,0.0,0.0,0.0,0.0,0.0,0.0,0.0,0.0,0.0,0.0,0.0,0.0,0.0,0.0,0.0,0.0,2.1905,2.2364,2.2878,2.3327,2.3226,0.0,0.0,0.0,2.0129,1.9192,1.8223,1.7539,0.0,1.776,1.9169,2.0784,2.1746,0.0,2.5656,2.6204,2.7939,2.9769,3.0825,3.0688,3.0554,3.1318,3.0852,3.0266,3.0103,2.9389,2.8517,2.7589,2.67,2.5827,2.4964,2.4711,2.4631,2.4682,2.4584,2.4498,0.0,2.4321,2.419,2.419,2.3996,2.3896,2.3896,2.3816,2.3795,2.3795,2.3795,2.3795,2.3774,2.3774,2.3753,2.3692,2.3671,2.3649,2.3566,2.3508,2.3481,2.3458,2.3199,2.3095,2.3095,2.3095,2.3095,2.3119,2.3389,2.3481,2.3486,2.354,2.3376,2.3095,0.0,0.0,0.0,0.0,0.0,0.0,0.0,0.0,0.0,0.0,0.0,0.0,0.0,0.0,0.0,0.0,0.0,0.0,0.0,0.0,0.0,0.0,0.0,0.0,0.0,0.0,0.0,0.0,0.0,0.0,0.0,0.0,0.0,0.0,0.0,0.0,0.0,0.0,0.0,0.0,0.0,0.0,2.0332,2.0938,2.1678,2.2401,0.0,0.0,0.0,0.0,2.0378,1.9521,1.8773,1.8523,0.0,1.9698,2.0738,2.1837,2.3027,0.0,2.6084,2.6982,2.8662,3.0345,3.1348,3.191,3.2143,3.1838,3.1053,3.024,2.9624,2.8676,2.7693,2.6759,2.625,2.564,2.4732,2.4495,2.4393,2.4429,2.4357,0.0,0.0,0.0,0.0,2.4266,2.4152,2.4094,2.4094,2.4074,2.4054,2.3996,2.3996,2.3976,2.3937,2.3937,2.3917,2.3896,2.3837,2.3795,2.3735,2.371,2.3667,2.3624,2.3535,2.3468,2.3427,2.3427,2.3468,2.3513,2.3602,2.3667,2.3689,2.3714,2.3689,2.3602,0.0,0.0,0.0,0.0,0.0,0.0,0.0,0.0,0.0,0.0,0.0,0.0,0.0,0.0,0.0,0.0,0.0,0.0,0.0,0.0,0.0,0.0,0.0,0.0,0.0,0.0,0.0,0.0,0.0,0.0,0.0,0.0,0.0,0.0,0.0,0.0,0.0,0.0,0.0,0.0,0.0,0.0,1.8912,1.9797,2.0828,0.0,0.0,0.0,0.0,0.0,2.0652,1.9982,1.9088,1.9304,2.006,2.0956,2.2035,2.3144,2.4126,2.5284,2.6384,2.7103,2.8411,2.9684,3.0269,3.0914,3.1224,3.0665,3.0053,2.9454,2.8885,2.7909,2.6975,2.6312,2.5771,2.5188,2.453,2.4284,2.4191,2.4228,2.4192,2.4192,0.0,0.0,0.0,2.4266,2.4209,2.419,2.419,2.419,2.417,2.4151,2.4151,2.4132,2.4074,2.4074,2.4074,2.4074,2.4016,2.3996,2.3937,2.3917,2.3896,2.3837,2.3795,2.3753,2.3714,2.3714,2.3735,2.3774,2.3816,2.3876,2.3917,2.3937,2.3976,2.3996,0.0,0.0,0.0,0.0,0.0,0.0,0.0,0.0,0.0,0.0,0.0,0.0,0.0,0.0,0.0,0.0,0.0,0.0,0.0,0.0,0.0,0.0,0.0,0.0,0.0,0.0,0.0,0.0,0.0,0.0,0.0,0.0,0.0,0.0,0.0,0.0,0.0,0.0,0.0,0.0,0.0,0.0,1.7719,1.898,0.0,0.0,0.0,0.0,0.0,0.0,0.0,0.0,1.9344,1.9963,2.1218,2.1595,2.3073,2.4641,2.5011,2.5804,2.6554,2.666,2.7292,2.7911,2.7887,2.797,2.808,2.8094,2.8064,2.8018,0.0,0.0,2.6427,2.6217,2.5352,2.4642,2.4448,2.419,2.4089,0.0,0.0,0.0,0.0,0.0,0.0,2.4229,2.4209,2.4209,2.4209,2.4209,2.4209,2.419,2.419,2.419,2.419,2.419,2.419,2.419,2.419,2.419,2.419,2.4113,2.4094,2.4094,2.3976,2.3917,2.3917,2.3917,2.3917,2.3917,2.4054,2.4094,2.4113,2.417,2.419,2.419,0.0,0.0,0.0,0.0,0.0,0.0,0.0,0.0,0.0,0.0,0.0,0.0,0.0,0.0,0.0,0.0,0.0,0.0,0.0,0.0,0.0,0.0,0.0,0.0,0.0,0.0,0.0,0.0,0.0,0.0,0.0,0.0,0.0,0.0,0.0,0.0,0.0,0.0,0.0,0.0,0.0,0.0,1.7181,0.0,0.0,0.0,0.0,0.0,0.0,0.0,0.0,0.0,0.0,2.1465,2.201,2.2852,2.3584,2.4312,2.5109,2.5464,2.5769,2.6339,2.6599,2.689,2.7479,2.771,2.7823,2.7926,2.7501,2.7125,0.0,0.0,0.0,2.6179,2.6191,0.0,2.5974,2.5254,0.0,2.4847,0.0,2.4154,2.4358,2.4445,0.0,2.4497,2.4409,2.4338,2.4358,2.4358,2.4303,2.421,2.421,2.4209,2.419,2.419,2.419,2.419,2.419,2.419,2.419,2.417,2.417,2.417,2.4151,2.4113,2.4113,2.4113,2.4113,2.4132,2.417,2.4171,2.4191,2.4191,2.4266,2.434,0.0,0.0,0.0,0.0,0.0,0.0,0.0,0.0,0.0,0.0,0.0,0.0,0.0,0.0,0.0,0.0,0.0,0.0,0.0,0.0,0.0,0.0,0.0,0.0,0.0,0.0,0.0,0.0,0.0,0.0,0.0,0.0,0.0,0.0,0.0,0.0,0.0,0.0,0.0,0.0,0.0,0.0,0.0,0.0,0.0,0.0,0.0,0.0,0.0,0.0,0.0,2.2243,2.2185,2.2508,2.301,2.3591,0.0,2.4625,2.5106,2.515,2.5157,2.5455,2.5495,2.5574,2.6006,2.6237,2.6431,2.6599,2.6398,0.0,2.6212,2.6435,0.0,0.0,0.0,0.0,2.6743,2.6153,2.5628,0.0,2.5002,0.0,2.4517,2.4591,2.4685,2.4734,2.4594,2.4497,2.4481,2.4464,2.4393,2.4284,2.4266,2.4229,2.4209,2.4266,2.4284,2.4284,2.4303,2.4284,2.4284,2.4284,2.4284,2.4284,2.4303,2.4284,2.4284,2.4266,2.4228,2.4228,2.4228,2.4247,2.4229,2.4229,2.4321,2.4412,0.0,0.0,0.0,0.0,0.0,0.0,0.0,0.0,0.0,0.0,0.0,0.0,0.0,0.0,0.0,0.0,0.0,0.0,0.0,0.0,0.0,0.0,0.0,0.0,0.0,0.0,0.0,0.0,0.0,0.0,0.0,0.0,0.0,0.0,0.0,0.0,0.0,0.0,0.0,0.0,0.0,0.0,0.0,0.0,0.0,0.0,0.0,0.0,0.0,0.0,2.43,2.294,2.2873,2.3422,2.407,2.4101,2.4595,2.5098,2.4947,2.4793,2.4601,2.4316,2.4276,2.4227,2.4063,2.4262,2.4544,2.4774,0.0,2.5274,2.5467,2.6155,2.6689,2.6603,0.0,2.7459,2.736,2.7102,2.6671,2.5968,2.58,2.551,2.4895,2.4889,2.4929,2.4942,2.4779,2.466,2.4645,2.4578,2.451,2.4442,2.4356,2.4303,2.4248,2.4358,2.443,2.443,2.4426,2.4442,2.4442,2.4442,2.4442,2.4425,2.4429,2.443,2.443,2.4375,2.4339,2.4339,2.4321,2.4321,2.4339,2.4339,2.4393,2.4446,0.0,0.0,0.0,0.0,0.0,0.0,0.0,0.0,0.0,0.0,-0.1113,0.2514,0.0,0.0,0.0,0.0,0.0,0.0,0.0,0.0,0.0,0.0,0.0,0.0,0.0,0.0,0.0,0.0,0.0,0.0,0.0,0.0,0.0,0.0,0.0,0.0,0.0,0.0,0.0,0.0,0.0,0.0,0.0,0.0,0.0,0.0,0.0,0.0,0.0,0.0,2.5024,2.4758,2.4739,2.4804,2.4855,2.4699,2.4722,2.4717,2.4433,2.4112,2.3841,2.3635,2.3563,2.3415,2.2788,2.2978,0.0,0.0,2.4053,2.4572,2.5359,2.6206,2.6958,2.7478,2.8065,2.8631,2.9162,2.8535,2.7995,0.0,2.6792,2.601,2.6007,2.5444,0.0,0.0,2.5056,2.4962,2.4847,2.4837,2.4753,2.4564,2.4461,2.4408,2.4444,2.4461,2.4513,2.4566,2.4582,2.4564,2.4564,2.4564,2.4564,2.4564,2.4566,2.4566,2.4566,2.4566,2.4549,2.453,2.4497,2.4513,2.4549,2.4549,2.4631,2.4726,0.0,0.0,0.0,0.0,0.0,0.0,0.0,-0.7062,-0.7594,-0.853,-0.67,-0.3694,0.0601,0.3505,0.0,0.0,0.0,0.0,0.0,0.0,0.0,0.0,0.0,0.0,0.0,0.0,0.0,0.0,0.0,0.0,0.0,0.0,0.0,0.0,0.0,0.0,0.0,0.0,0.0,0.0,0.0,0.0,0.0,0.0,0.0,0.0,0.0,0.0,0.0,0.0,2.484,2.4807,2.4952,2.491,2.4725,2.4457,2.4241,2.3985,2.3626,2.3285,2.2959,2.2718,2.2702,2.2579,2.1955,0.0,0.0,0.0,2.3686,2.4297,2.5265,2.6221,0.0,2.7834,2.8515,2.9217,2.9953,2.9618,0.0,2.8765,2.7668,2.6823,0.0,2.571,2.5222,2.5252,2.5222,2.5149,2.5,2.4961,2.4889,2.4711,2.4639,2.4607,2.4594,2.467,2.4716,2.4764,2.4794,2.4823,2.4823,2.4823,2.4823,2.4808,2.4779,2.4764,2.4764,2.4719,2.4704,2.4704,2.467,2.4692,2.4695,2.4695,2.4742,2.4798,0.0,0.0,0.0,0.0,0.0,0.0,0.0,-0.8501,-0.9442,-1.0821,-1.1369,-0.9702,-0.451,-0.0555,0.2738,0.0,0.0,0.0,0.0,0.0,0.0,0.0,0.0,0.0,0.0,0.0,0.0,0.0,0.0,0.0,0.0,0.0,0.0,0.0,0.0,0.0,0.0,0.0,0.0,0.0,0.0,0.0,0.0,0.0,0.0,0.0,0.0,0.0,0.0,0.0,2.4372,2.4251,2.4388,2.4344,2.4208,2.3823,2.3476,2.3155,2.2708,2.2329,2.2018,2.1795,2.1766,2.1675,2.1088,2.1458,0.0,0.0,2.3233,2.3947,2.5161,0.0,2.6952,0.0,2.8607,2.9311,3.0298,3.034,3.004,0.0,2.8541,0.0,2.6969,2.6111,0.0,2.5341,2.5313,2.5243,2.5138,2.5063,2.4966,2.4861,2.4851,2.4818,2.4798,2.4893,2.4942,2.4936,2.5006,2.5019,2.5019,2.5019,2.5019,2.5019,2.4968,2.4936,2.4942,2.4888,2.4855,2.4855,2.4861,2.4851,2.4861,2.4861,2.4856,2.4861,0.0,0.0,0.0,0.0,0.0,0.0,0.0,-0.849,-0.9913,-1.1974,-1.3172,-1.3089,-1.118,-0.5523,-0.0448,0.0,0.0,0.0,0.0,0.0,0.0,0.0,0.0,0.0,0.0,0.0,0.0,0.0,0.0,0.0,0.0,0.0,0.0,0.0,0.0,0.0,0.0,0.0,0.0,0.0,0.0,0.0,0.0,0.0,0.0,0.0,0.0,0.0,0.0,0.0,0.0,2.3617,2.3262,2.3354,2.3472,2.29,0.0,0.0,2.1773,2.1332,2.1022,2.0943,2.0911,2.0685,1.9717,0.0,0.0,2.1516,2.2135,2.311,2.4971,2.5532,0.0,0.0,0.0,2.8767,0.0,3.0527,3.0443,3.0366,0.0,0.0,2.7959,2.7073,2.6235,2.5444,2.5332,2.5264,2.5192,2.5126,2.5099,2.5057,2.5013,2.5013,2.5057,2.5088,2.5075,2.5072,2.5103,2.5084,2.5084,2.5084,2.5084,2.5084,2.5072,2.5072,2.5072,2.5072,2.5061,2.5061,2.5063,2.5057,2.5076,2.5076,2.5063,2.5091,0.0,0.0,0.0,0.0,0.0,0.0,-0.8255,-0.8308,-0.9331,-1.2367,-1.3543,-1.3724,-1.2716,-0.8476,-0.3695,0.1176,0.0,0.0,0.0,0.0,0.0,0.0,0.0,0.0,0.0,0.0,0.0,0.0,0.0,0.0,0.0,0.0,0.0,0.0,0.0,0.0,0.0,0.0,0.0,0.0,0.0,0.0,0.0,0.0,0.0,0.0,0.0,0.0,0.0,0.0,0.0,0.0,2.2975,2.278,0.0,0.0,2.1749,2.1395,2.0863,2.0418,2.0093,1.9969,1.9733,1.9398,1.8892,0.0,1.976,2.1096,2.189,2.295,2.4936,2.5463,2.6015,0.0,0.0,0.0,2.978,0.0,3.0622,3.0622,2.9854,0.0,0.0,0.0,2.6348,2.5474,2.5332,2.5293,2.5253,2.5222,2.5198,2.5153,2.5134,2.5134,2.5153,2.5206,2.5228,2.522,2.5222,2.5222,2.5222,2.5222,2.5222,2.5222,2.5212,2.522,2.522,2.519,2.516,2.516,2.5168,2.5164,2.5153,2.5153,2.5164,2.5157,0.0,0.0,0.0,0.0,0.0,-0.6663,-0.7692,-0.7474,-0.8248,-1.1302,-1.2775,-1.3378,-1.293,-1.0319,-0.6184,-0.0133,0.3116,0.0,0.0,0.0,0.0,0.0,0.0,0.0,0.0,0.0,0.0,0.0,0.0,0.0,0.0,0.0,0.0,0.0,0.0,0.0,0.0,0.0,0.0,0.0,0.0,0.0,0.0,0.0,0.0,0.0,0.0,0.0,0.0,0.0,0.0,0.0,0.0,0.0,0.0,0.0,2.1197,2.0731,2.0139,1.9666,1.9354,1.9184,1.8796,1.838,0.0,0.0,1.9161,2.0968,2.1857,2.2931,2.4954,2.5488,2.5915,0.0,0.0,2.8501,2.9381,3.0183,3.0698,0.0,0.0,2.9349,2.8202,2.7032,2.6075,2.5446,2.5361,2.5313,2.5303,2.5312,2.5282,2.5231,2.5222,2.5222,2.5231,2.5282,2.5302,2.5302,2.5303,2.5313,2.5322,2.5322,2.5322,2.5332,2.5332,2.5322,2.5331,2.5283,2.5243,2.5233,2.5233,2.5222,2.5231,2.5231,2.5231,2.5231,0.0,0.0,0.0,0.0,0.0,0.0,-0.5189,-0.5697,-0.6733,-0.8415,-1.0716,-1.2277,-1.2386,-1.1111,-0.7592,-0.0857,0.2759,0.0,0.0,0.0,0.0,0.0,0.0,0.0,0.0,0.0,0.0,0.0,0.0,0.0,0.0,0.0,0.0,0.0,0.0,0.0,0.0,0.0,0.0,0.0,0.0,0.0,0.0,0.0,0.0,0.0,0.0,0.0,0.0,0.0,0.0,0.0,0.0,0.0,0.0,0.0,2.0926,2.0447,1.9696,1.9161,1.8745,1.8553,1.8172,1.7826,0.0,0.0,1.9053,2.1007,2.1939,2.3005,2.5027,2.5507,2.5907,2.6855,0.0,0.0,2.9381,3.0194,0.0,0.0,0.0,3.0003,2.8274,2.6536,2.5476,2.5415,2.5407,2.5361,2.5313,2.5303,2.5303,2.5303,2.5303,2.5303,2.5303,2.5303,2.5303,2.5303,2.5303,2.5322,2.5398,2.5398,2.5407,2.5406,2.5406,2.5397,2.5398,2.5398,2.5361,2.5303,2.5303,2.5303,2.5303,2.5303,2.5303,2.5303,0.0,0.0,0.0,0.0,0.0,0.0,0.0,-0.5408,-0.6543,-0.9253,-1.0493,-1.1317,-1.18,-1.0897,-0.7423,-0.0353,0.4638,0.0,0.0,0.0,0.0,0.0,0.0,0.0,0.0,0.0,0.0,0.0,0.0,0.0,0.0,0.0,0.0,0.0,0.0,0.0,0.0,0.0,0.0,0.0,0.0,0.0,0.0,0.0,0.0,0.0,0.0,0.0,0.0,0.0,0.0,0.0,0.0,0.0,0.0,2.0907,2.0494,1.9988,1.9366,1.923,1.9082,1.8448,1.8016,1.7727,1.7775,0.0,1.887,2.1194,2.2127,2.3113,2.5046,2.551,2.5703,2.6067,2.7287,0.0,0.0,0.0,0.0,3.0698,2.9648,2.8495,0.0,2.6204,2.5483,2.5472,2.5421,2.5387,2.5361,2.5361,2.5351,2.5303,2.5303,2.5303,2.5303,2.5303,2.5322,2.5361,2.5361,2.5379,2.5404,2.5393,2.5429,2.5472,2.5472,2.5437,2.5401,2.5404,2.5397,2.5361,2.5361,2.5351,2.5303,2.5303,2.5303,2.5303,0.0,0.0,0.0,0.0,0.0,0.0,0.0,-0.5699,-0.6684,-0.9222,-1.0333,-1.1155,-1.1757,-1.0452,-0.6794,0.0,0.6493,0.0,0.0,0.0,0.0,0.0,0.0,0.0,0.0,0.0,0.0,0.0,0.0,0.0,0.0,0.0,0.0,0.0,0.0,0.0,0.0,0.0,0.0,0.0,0.0,0.0,2.408,0.0,0.0,0.0,0.0,0.0,0.0,0.0,0.0,0.0,0.0,0.0,0.0,0.0,2.0165,1.9958,0.0,1.9624,1.9482,1.8906,1.8517,1.8254,0.0,0.0,1.9077,2.1483,2.2344,2.3256,2.5123,2.5547,2.5616,2.5681,2.7105,0.0,0.0,0.0,0.0,3.0294,0.0,0.0,0.0,2.6065,2.5531,2.5544,2.549,2.5434,2.5451,2.5434,2.5425,2.5388,2.5361,2.5341,2.5341,2.5341,2.536,2.5406,2.5434,2.5448,2.543,2.5444,2.5473,2.5531,2.5531,2.5499,0.0,2.5437,2.5418,2.5395,2.5397,2.537,2.5322,2.5313,2.5303,2.5303,0.0,0.0,0.0,0.0,0.0,0.0,0.0,-0.6551,-0.7279,-0.872,-1.0453,-1.1792,-1.2329,-1.0154,-0.6104,0.0247,0.0,0.0,0.0,0.0,0.0,0.0,0.0,0.0,0.0,0.0,0.0,2.1235,1.574,0.9813,0.3603,0.0,0.0,0.0,0.0,0.0,0.0,0.0,0.0,0.0,2.3667,2.3769,0.0,0.0,0.0,0.0,0.0,0.0,0.0,0.0,0.0,0.0,0.0,0.0,0.0,0.0,0.0,0.0,0.0,2.0363,2.0047,1.9838,1.9545,1.923,1.8915,0.0,0.0,2.1862,2.2594,2.3378,2.525,2.5607,2.5634,2.5774,2.7147,0.0,0.0,2.9747,0.0,0.0,2.8729,0.0,2.6985,2.6123,2.5619,2.5609,2.5543,2.5512,2.5503,2.5507,2.5499,2.5492,2.5443,2.5416,2.5407,2.5404,2.541,2.541,2.5468,2.5505,2.5511,2.5504,2.5546,2.5615,2.5615,2.5581,2.551,2.5511,2.5473,2.5414,2.5412,2.5406,2.5398,2.5322,2.5313,2.5313,0.0,0.0,0.0,0.0,0.0,0.0,0.0,0.0,0.0,0.0,-1.2267,-1.3516,-1.3932,-1.2465,-0.8105,0.0,0.0,0.0,0.0,0.0,0.0,0.0,0.0,0.0,0.0,0.0,0.0,2.166,1.6684,1.1238,0.5316,0.0385,0.0,0.0,0.0,0.0,0.0,0.0,0.0,0.0,2.3226,2.2994,0.0,0.0,0.0,0.0,2.092,2.079,0.0,0.0,0.0,0.0,0.0,0.0,0.0,0.0,2.0097,2.0394,2.1609,0.0,2.118,2.0608,2.0491,2.0244,0.0,0.0,0.0,0.0,0.0,2.3412,2.5197,2.5581,2.5819,2.6505,0.0,2.8431,2.9109,0.0,0.0,2.9609,2.8735,2.7885,2.7056,2.6197,2.5662,2.5601,2.5589,2.5542,2.5505,2.5499,2.5506,2.5505,2.5473,2.5478,2.5472,2.548,2.549,2.5473,2.548,2.5535,2.558,2.5574,2.5609,2.5687,2.5687,2.5636,2.5574,2.5576,2.5535,2.5479,2.5476,2.5456,2.5404,2.5378,2.5378,2.5376,0.0,0.0,0.0,0.0,0.0,0.0,0.0,0.0,0.0,0.0,0.0,0.0,0.0,0.0,0.0,0.0,0.0,0.0,0.0,0.0,0.0,0.0,0.0,0.0,0.0,0.0,0.0,0.0,0.0,1.2203,0.0,0.0,0.0,0.0,0.0,0.0,0.0,0.0,0.0,0.0,2.3127,0.0,0.0,0.0,0.0,0.0,2.0044,1.9945,0.0,2.0001,2.0143,2.0258,0.0,0.0,0.0,0.0,2.0263,2.0506,2.1718,2.1983,2.1922,2.1893,2.1999,2.1751,2.0429,0.0,0.0,0.0,0.0,0.0,2.526,2.588,0.0,0.0,2.7974,0.0,0.0,0.0,3.0485,2.9656,2.9132,2.8357,2.7116,2.657,2.6117,2.5676,2.5651,2.5636,2.5589,2.5585,2.5595,2.5581,2.5595,2.5551,2.5499,2.5531,2.556,2.5542,2.558,2.5601,2.5645,2.5654,2.5661,2.5691,2.5691,2.5685,2.5654,2.5642,2.5613,2.5546,2.5557,2.5498,2.5441,2.5437,2.5456,2.5453,0.0,0.0,0.0,0.0,0.0,0.0,0.0,0.0,0.0,0.0,0.0,0.0,0.0,0.0,0.0,0.0,0.0,0.0,0.0,0.0,0.0,0.0,0.0,0.0,0.0,0.0,0.0,0.0,0.0,0.0,0.0,0.0,0.2249,0.0,0.0,0.0,0.0,0.0,0.0,0.0,2.3199,0.0,0.0,0.0,0.0,0.0,0.0,0.0,0.0,1.996,2.0088,2.0216,2.0273,0.0,0.0,0.0,0.0,0.0,2.1367,2.1913,2.24,2.3047,2.3369,2.3169,2.173,0.0,0.0,0.0,0.0,0.0,0.0,2.6333,0.0,0.0,0.0,0.0,3.0701,3.0823,3.0552,2.9873,2.9562,2.8821,2.734,2.6951,2.6501,2.5754,2.5693,2.5709,2.5703,2.5698,2.5693,2.5693,2.5693,2.5655,2.5532,2.5593,2.5629,2.5613,2.5673,2.5705,2.5691,2.5694,2.5698,2.5701,2.5701,2.5699,2.5696,2.5707,2.5671,2.5605,2.56,2.5562,2.5512,2.5531,2.5524,2.5511,0.0,0.0,0.0,0.0,0.0,0.0,0.0,0.0,0.0,0.0,0.0,0.0,0.0,0.0,0.0,0.0,0.0,0.0,0.0,0.0,0.0,0.0,0.0,0.0,0.0,0.0,0.0,0.0,0.0,0.0,1.0586,0.5954,0.4735,0.6656,0.0,0.0,0.0,0.0,0.0,2.3383,2.3313,0.0,0.0,0.0,0.0,0.0,0.0,0.0,0.0,1.9969,2.0098,2.0201,2.0209,0.0,0.0,0.0,0.0,0.0,2.1316,2.2018,2.2566,2.268,2.3242,2.3494,0.0,0.0,0.0,0.0,0.0,0.0,0.0,2.6675,2.731,0.0,0.0,3.0677,0.0,0.0,3.0834,3.0718,2.9391,2.8396,2.8123,2.6777,2.584,2.5702,2.5702,2.5699,2.5693,2.5691,2.5709,2.5705,2.5709,2.5689,2.5664,2.5679,2.5681,2.5689,2.5691,2.5696,2.5702,2.5702,2.5702,2.5703,2.5703,2.5703,2.5702,2.5699,2.5691,2.5673,2.5613,2.5589,2.5571,2.5576,2.5586,2.5585,0.0,0.0,0.0,0.0,0.0,0.0,0.0,0.0,0.0,0.0,0.0,0.0,0.0,0.0,0.0,0.0,0.0,0.0,0.0,0.0,0.0,0.0,0.0,0.0,0.0,0.0,0.0,0.0,0.0,1.5891,1.2012,0.73,0.6209,0.8288,0.0,0.0,2.04,2.2139,2.3091,2.3508,0.0,0.0,0.0,0.0,0.0,0.0,0.0,0.0,0.0,0.0,2.0164,2.0244,2.0244,0.0,0.0,0.0,0.0,0.0,2.0015,2.1283,2.253,2.2494,2.3419,0.0,0.0,0.0,0.0,0.0,0.0,0.0,0.0,0.0,2.8685,2.9994,0.0,3.0825,3.0892,3.0897,3.0722,3.0253,2.9491,2.8632,2.7695,2.6875,2.6211,2.5742,2.5703,2.5703,2.5701,2.5701,2.5701,2.57,2.5701,2.5701,2.5701,2.5699,2.5698,2.5699,2.5701,2.5702,2.5703,2.5703,2.5703,2.5703,2.5703,2.5703,2.5703,2.5702,2.5699,2.5693,2.5661,2.5648,2.5658,2.5655,2.5642,2.5651,0.0,0.0,0.0,0.0,0.0,0.0,0.0,0.0,0.0,0.0,0.0,0.0,0.0,0.0,0.0,0.0,0.0,0.0,0.0,0.0,0.0,0.0,0.0,0.0,0.0,0.0,2.2819,2.1936,1.9811,1.6716,1.2725,0.8706,0.7912,0.0,0.0,1.6593,2.0559,2.2167,2.3146,2.3628,0.0,0.0,0.0,0.0,0.0,0.0,0.0,0.0,0.0,0.0,0.0,0.0,0.0,0.0,0.0,1.9001,1.9001,1.9001,1.8939,2.0708,2.256,2.249,0.0,0.0,0.0,0.0,0.0,0.0,0.0,0.0,0.0,2.8578,0.0,3.0696,3.0806,3.0814,3.0897,3.0722,3.0351,2.9687,2.9238,2.8476,2.7129,2.6816,2.6426,2.5742,2.5703,2.5703,2.5703,2.5703,2.5703,2.5703,2.5703,2.5703,2.5703,2.5703,2.5703,2.5703,2.5703,2.5703,2.5703,2.5703,2.5703,2.5703,2.5703,2.5703,2.5703,2.5703,2.5702,2.57,2.5696,2.5709,2.5705,2.5707,2.5709,2.5693,0.0,0.0,0.0,0.0,0.0,0.0,0.0,0.0,0.0,0.0,0.0,0.0,0.0,0.0,0.0,0.0,0.0,0.0,0.0,0.0,0.0,0.0,0.0,0.0,0.0,2.3271,2.2757,2.263,2.0368,1.684,1.2205,1.043,1.0723,1.2806,1.4731,1.7582,2.1032,2.2327,2.3194,2.3714,2.3896,0.0,0.0,0.0,0.0,0.0,0.0,0.0,0.0,0.0,0.0,0.0,0.0,0.0,1.9001,1.9001,1.904,1.9078,1.9008,2.0843,2.2765,2.271,0.0,0.0,0.0,0.0,0.0,0.0,0.0,0.0,0.0,2.9487,3.0735,3.0788,3.0793,3.0817,3.0897,3.0195,2.9668,2.9609,2.8164,2.7148,2.7012,2.6269,2.5762,2.5703,2.5703,2.5703,2.5703,2.5703,2.5703,2.5703,2.5703,2.5703,2.5703,2.5703,2.5703,2.5703,2.5703,2.5703,2.5703,2.5703,2.5703,2.5703,2.5703,2.5703,2.5703,2.5703,2.5703,2.5702,2.5702,2.5701,2.5699,2.5701,2.5702,2.5702,0.0,0.0,0.0,0.0,0.0,0.0,0.0,0.0,0.0,0.0,0.0,0.0,0.0,0.0,0.0,0.0,0.0,0.0,0.0,0.0,0.0,0.0,0.0,2.5003,2.4907,2.3845,2.3032,2.2507,1.9648,1.6968,1.4544,1.3396,0.0,0.0,1.6388,1.8498,2.1082,2.2152,2.2965,2.3588,2.3881,2.3511,0.0,0.0,0.0,0.0,0.0,0.0,0.0,0.0,2.0241,2.0312,2.0312,1.9692,1.9001,1.9001,1.9046,1.9201,1.9683,2.1297,2.2967,2.3454,0.0,0.0,0.0,0.0,0.0,0.0,0.0,0.0,0.0,0.0,3.0226,3.0776,3.0857,3.0682,3.0156,2.9805,2.9199,2.8105,2.7402,2.6797,2.623,2.5898,2.5703,2.5703,2.5703,2.5703,2.5703,2.5703,2.5703,2.5703,2.5703,2.5703,2.5703,2.5703,2.5703,2.5703,2.5703,2.5703,2.5703,2.5703,2.5703,2.5703,2.5703,2.5703,2.5703,2.5703,2.5703,2.5703,2.5703,2.5703,2.5703,2.5703,2.5703,2.5703,0.0,0.0,0.0,0.0,0.0,0.0,0.0,0.0,0.0,0.0,0.0,0.0,0.0,0.0,0.0,0.0,0.0,0.0,0.0,0.0,0.0,0.0,0.0,2.5344,2.5485,2.443,2.3431,2.2565,1.9832,1.7992,1.7033,0.0,0.0,0.0,1.7861,1.9194,2.0958,2.184,2.2626,2.3346,2.3723,2.3676,0.0,0.0,0.0,0.0,0.0,0.0,0.0,0.0,2.0262,2.03,0.0,1.9692,1.9013,1.9013,1.9226,1.96,2.0179,2.1784,2.3441,0.0,0.0,0.0,0.0,0.0,0.0,0.0,0.0,0.0,0.0,0.0,0.0,0.0,3.0488,3.0273,2.9687,2.9121,2.834,2.7148,2.6758,2.6367,2.5762,2.5703,2.5703,2.5703,2.5703,2.5703,2.5703,2.5703,2.5703,2.5703,2.5703,2.5703,2.5703,2.5703,2.5703,2.5703,2.5703,2.5703,2.5703,2.5703,2.5703,2.5703,2.5703,2.5703,2.5703,2.5703,2.5703,2.5703,2.5703,2.5703,2.5703,2.5703,2.5703,2.5703,0.0,0.0,0.0,0.0,0.0,0.0,0.0,0.0,0.0,0.0,0.0,0.0,0.0,0.0,0.0,0.0,0.0,0.0,0.0,0.0,0.0,0.0,0.0,2.5498,2.5699,2.4843,2.3906,2.2908,2.1235,2.0038,1.9314,1.89,0.0,0.0,1.9067,1.9682,2.0732,2.1472,2.2207,2.293,2.3472,2.3547,2.3235,0.0,0.0,0.0,0.0,0.0,0.0,0.0,2.0306,2.0304,2.0304,0.0,1.9013,1.9032,1.9638,2.0328,2.043,2.2275,2.4213,0.0,0.0,0.0,0.0,0.0,0.0,0.0,0.0,0.0,2.9576,0.0,0.0,2.9726,2.959,2.957,2.957,2.8086,2.6992,2.6992,2.623,2.5703,2.5703,2.5703,2.5703,2.5703,2.5703,2.5703,2.5703,2.5703,2.5703,2.5703,2.5703,2.5703,2.5703,2.5703,2.5703,2.5703,2.5703,2.5703,2.5703,2.5703,2.5703,2.5703,2.5703,2.5703,2.5703,2.5703,2.5703,2.5703,2.5703,2.5703,2.5703,2.5703,2.5703,2.5703,0.0,0.0,0.0,0.0,0.0,0.0,0.0,0.0,0.0,0.0,0.0,0.0,0.0,0.0,0.0,0.0,0.0,0.0,0.0,0.0,0.0,0.0,0.0,0.0,0.0,0.0,2.3801,2.282,2.1943,2.1293,0.0,0.0,0.0,1.9129,0.0,0.0,1.9262,1.9956,2.0923,2.2052,2.2665,2.34,2.3966,0.0,0.0,0.0,0.0,0.0,0.0,0.0,0.0,0.0,2.0366,0.0,2.083,2.0836,2.1448,2.2281,2.29,2.3657,0.0,0.0,0.0,0.0,0.0,0.0,0.0,0.0,0.0,2.8611,2.8666,2.8397,0.0,2.8633,2.8691,2.8476,2.7851,2.7324,2.6777,2.6152,2.5859,2.5703,2.5703,2.5703,2.5703,2.5703,2.5703,2.5703,2.5703,2.5703,2.5703,2.5703,2.5703,2.5703,2.5703,2.5703,2.5703,2.5703,2.5703,2.5703,2.5703,2.5703,2.5703,2.5703,2.5703,2.5703,2.5703,2.5703,2.5703,2.5703,2.5703,2.5703,2.5703,2.5703,2.5703,2.5703,0.0,0.0,0.0,0.0,0.0,0.0,0.0,0.0,0.0,0.0,1.6404,1.7284,0.0,0.0,0.0,0.0,0.0,0.0,1.9881,2.1334,0.0,0.0,0.0,0.0,0.0,2.4807,2.4206,0.0,0.0,0.0,0.0,0.0,0.0,1.9435,0.0,1.8842,1.885,1.9427,2.0238,2.1237,2.1837,2.263,2.3388,0.0,0.0,0.0,0.0,0.0,0.0,0.0,0.0,0.0,0.0,0.0,0.0,2.2165,2.2772,2.3579,2.4109,2.4515,0.0,0.0,0.0,0.0,0.0,0.0,0.0,0.0,0.0,2.8157,2.7832,2.7636,0.0,2.7751,2.7771,2.7595,2.7068,2.6697,2.6287,2.576,2.5702,2.5702,2.5703,2.5703,2.5703,2.5703,2.5703,2.5703,2.5703,2.5703,2.5703,2.5703,2.5703,2.5703,2.5703,2.5703,2.5703,2.5703,2.5703,2.5703,2.5703,2.5703,2.5703,2.5703,2.5703,2.5703,2.5703,2.5703,2.5703,2.5703,2.5703,2.5703,2.5703,2.5703,2.5703,2.5703,0.0,0.0,1.3215,1.2745,0.0,0.0,0.0,0.0,0.0,0.0,1.74,1.8106,0.0,0.0,0.0,1.9476,1.9261,1.9486,2.0255,2.1248,2.2235,2.3149,0.0,0.0,0.0,0.0,0.0,0.0,0.0,0.0,0.0,0.0,2.0303,1.9762,0.0,1.8869,1.9023,1.9495,1.9969,2.0493,2.1012,2.153,2.204,2.2441,0.0,0.0,0.0,0.0,0.0,0.0,0.0,0.0,2.1833,2.244,2.3123,2.3118,2.375,2.4422,2.4413,0.0,0.0,0.0,0.0,0.0,2.9256,2.9569,2.9482,2.941,0.0,2.8008,2.7068,2.7532,2.7801,2.7015,2.6878,2.6878,2.6878,2.6195,2.5707,2.5691,2.5693,2.5696,2.5702,2.5702,2.5703,2.5703,2.5703,2.5703,2.5703,2.5703,2.5703,2.5703,2.5703,2.5702,2.5702,2.5701,2.5701,2.5702,2.5702,2.5703,2.5703,2.5703,2.5703,2.5703,2.5703,2.5703,2.5703,2.5703,2.5703,2.5703,2.5703,2.5703,2.5703,2.5703,2.5703,2.5703,0.0,0.0,1.3652,1.3283,0.0,0.0,0.0,0.0,0.0,0.0,0.0,0.0,0.0,0.0,0.0,1.9813,1.9612,1.9526,1.9623,2.1037,2.2001,2.2271,0.0,0.0,0.0,0.0,0.0,0.0,0.0,0.0,0.0,0.0,0.0,1.981,0.0,1.9085,1.8183,1.8538,1.9257,2.0143,2.0532,2.1232,2.2121,2.2405,2.2642,0.0,0.0,0.0,0.0,0.0,0.0,0.0,2.2806,2.3394,2.4082,2.4037,2.4641,2.5311,0.0,2.5952,0.0,0.0,0.0,2.924,3.0286,2.9991,2.9316,2.8686,2.8373,2.7764,2.6253,2.613,2.6203,2.6008,2.5988,2.5988,2.5988,2.581,2.5696,2.5696,2.5701,2.5705,2.5691,2.5698,2.5702,2.5703,2.5703,2.5703,2.5703,2.5703,2.5703,2.5703,2.5703,2.5702,2.5702,2.5701,2.5701,2.5702,2.5702,2.5703,2.5703,2.5703,2.5703,2.5703,2.5703,2.5703,2.5703,2.5703,2.5703,2.5703,2.5703,2.5703,2.5703,2.5703,2.5703,2.5703,0.0,0.0,0.0,0.0,0.0,0.0,0.0,0.0,0.0,0.0,0.0,0.0,0.0,1.988,0.0,0.0,1.9458,1.9238,1.9476,2.1022,2.2314,2.3156,0.0,0.0,0.0,0.0,0.0,0.0,0.0,0.0,0.0,0.0,0.0,2.0713,0.0,1.9901,1.9308,1.9603,2.0091,2.0661,2.0627,2.0997,2.1655,2.2342,2.27,2.2921,2.3398,0.0,0.0,0.0,0.0,0.0,0.0,0.0,2.5029,2.4972,2.5267,2.5699,0.0,0.0,0.0,0.0,0.0,0.0,3.0658,3.0389,2.9677,2.8466,2.7862,2.7167,2.5855,2.5593,2.5604,2.5595,2.5591,2.5591,2.5591,2.5591,2.5595,2.5609,2.5636,2.5655,2.5698,2.5709,2.5698,2.5702,2.5703,2.5703,2.5703,2.5703,2.5703,2.5703,2.5703,2.5702,2.5702,2.5698,2.5698,2.5702,2.5702,2.5703,2.5703,2.5703,2.5703,2.5703,2.5703,2.5703,2.5703,2.5703,2.5703,2.5703,2.5703,2.5703,2.5703,2.5703,2.5703,2.5703,0.0,0.0,0.0,0.0,0.0,0.0,0.0,0.0,0.0,0.0,0.0,0.0,0.0,1.9675,1.9458,0.0,0.0,0.0,1.9559,2.1071,2.2704,2.4369,0.0,0.0,0.0,0.0,0.0,0.0,0.0,0.0,0.0,0.0,0.0,2.1718,0.0,2.0912,2.085,2.1087,2.127,2.1407,2.1055,2.1045,2.1362,2.2484,2.2977,2.3223,2.4087,2.4471,2.4414,2.3766,0.0,0.0,0.0,0.0,2.5703,2.5683,2.5641,2.5754,0.0,0.0,0.0,0.0,0.0,0.0,3.0678,3.063,3.0161,2.8601,2.7653,2.6753,2.5692,2.5505,2.5499,2.5511,2.5505,2.5505,2.5505,2.5505,2.5492,2.5499,2.5543,2.562,2.5671,2.5673,2.5687,2.5699,2.5702,2.5703,2.5703,2.5703,2.5703,2.5703,2.57,2.5698,2.5698,2.5691,2.5693,2.57,2.5701,2.5702,2.5703,2.5703,2.5703,2.5703,2.5703,2.5703,2.5703,2.5703,2.5703,2.5703,2.5703,2.5703,2.5703,2.5703,2.5703,2.5703,0.0,0.0,0.0,0.0,0.0,0.0,0.0,0.0,0.0,0.0,1.9113,2.0171,2.0297,2.015,2.0049,2.0088,1.982,1.9607,1.9513,0.0,0.0,2.4174,2.4355,2.4495,0.0,0.0,0.0,0.0,0.0,0.0,0.0,0.0,0.0,2.1954,0.0,0.0,2.0972,2.1069,2.1291,2.1588,2.1747,2.1985,2.2325,2.334,2.3822,2.4051,2.493,2.5311,2.5415,2.5308,2.5378,0.0,0.0,0.0,2.5685,2.5632,2.5613,2.5628,0.0,0.0,0.0,0.0,3.054,3.0613,0.0,0.0,3.0239,0.0,2.8418,2.7365,2.5781,2.5495,2.5507,2.5499,2.5499,2.5499,2.5499,2.5499,2.5499,2.5507,2.5505,2.5538,2.5618,2.5604,2.5639,2.5696,2.5707,2.5691,2.5691,2.5691,2.5691,2.5691,2.5705,2.5705,2.5709,2.5703,2.5709,2.57,2.5703,2.5703,2.5703,2.5703,2.5703,2.5703,2.5703,2.5703,2.5703,2.5703,2.5703,2.5703,2.5703,2.5703,2.5703,2.5703,2.5703,2.5703,0.0,0.0,0.0,0.0,0.0,0.0,0.0,0.0,0.0,0.0,0.0,1.9502,1.9909,1.9546,1.9421,1.984,1.9379,1.955,2.0699,2.1328,2.241,2.4118,2.4355,2.4559,2.4746,0.0,0.0,0.0,0.0,0.0,0.0,2.4281,2.3762,0.0,0.0,0.0,0.0,0.0,2.2643,2.2865,2.2678,2.2795,2.3127,2.3694,2.4015,2.4268,2.5131,0.0,0.0,2.5604,2.5637,2.5702,2.5702,0.0,0.0,0.0,2.5565,0.0,2.6689,0.0,0.0,0.0,3.052,3.049,3.049,0.0,3.0188,2.931,2.8868,2.8097,2.6427,2.5751,2.5434,2.5397,2.5397,2.5397,2.5397,2.5397,2.5397,2.5434,2.5437,2.5464,2.5531,2.5576,2.5613,2.5632,2.5671,2.5698,2.5698,2.5698,2.5698,2.5698,2.5651,2.5648,2.5632,2.5687,2.5698,2.5694,2.5698,2.5702,2.5703,2.5703,2.5703,2.5703,2.5703,2.5703,2.5703,2.5703,2.5703,2.5703,2.5703,2.5703,2.5703,2.5703,2.5703,2.5703,0.0,0.0,0.0,0.0,0.0,0.0,0.0,0.0,0.0,0.0,0.0,1.8896,1.9421,0.0,0.0,0.0,1.9051,1.9578,2.1619,2.1643,2.2356,2.4099,2.4372,2.4617,2.4923,0.0,0.0,0.0,0.0,0.0,2.4917,2.4799,2.4482,0.0,2.3756,0.0,0.0,0.0,0.0,0.0,0.0,2.3574,0.0,0.0,0.0,0.0,0.0,0.0,0.0,0.0,2.5648,2.5703,2.5673,2.5623,0.0,0.0,0.0,0.0,0.0,0.0,2.9019,2.9875,3.0213,3.0318,0.0,0.0,3.017,0.0,2.9244,2.8717,2.7468,2.64,2.563,2.5351,2.5303,2.5303,2.5303,2.5303,2.5313,2.5361,2.5378,2.5429,2.5464,2.5525,2.5565,2.5566,2.5613,2.5644,2.5644,2.5644,2.5644,2.5644,2.5593,2.557,2.5574,2.5644,2.5662,2.5679,2.5687,2.5694,2.57,2.5702,2.5703,2.5703,2.5703,2.5703,2.5703,2.5703,2.5703,2.5703,2.5703,2.5703,2.5703,2.5703,2.5703,2.5703,0.0,0.0,0.0,0.0,0.0,0.0,0.0,0.0,0.0,0.0,0.0,1.8949,1.8874,1.8867,1.8971,1.9214,1.9298,1.9994,2.1515,2.1534,2.228,2.4024,2.4351,0.0,0.0,0.0,0.0,0.0,0.0,0.0,2.5272,2.5147,2.4917,2.4637,2.4044,2.3678,2.3477,0.0,0.0,0.0,2.4041,2.4335,0.0,0.0,0.0,0.0,0.0,0.0,0.0,0.0,0.0,0.0,0.0,0.0,0.0,0.0,0.0,0.0,0.0,2.7182,0.0,2.8777,0.0,0.0,0.0,0.0,3.0213,3.0222,2.9627,2.9068,2.8986,2.764,2.6274,2.5418,2.5303,2.5303,2.5303,2.5303,2.5303,2.5313,2.5361,2.5388,2.5395,2.5418,2.5449,2.551,2.5511,2.5506,2.5506,2.5506,2.5506,2.5506,2.5506,2.5518,2.551,2.5561,2.5601,2.5605,2.5671,2.5703,2.5709,2.5697,2.5701,2.5703,2.5703,2.5703,2.5703,2.5703,2.5703,2.5703,2.5703,2.5703,2.5703,2.5703,2.5703,2.5703,0.0,0.0,0.0,0.0,0.0,0.0,0.0,0.0,0.0,0.0,0.0,0.0,0.0,1.8286,1.848,1.8735,1.9097,2.0008,2.1569,2.1643,2.2428,2.421,2.4516,0.0,0.0,0.0,0.0,0.0,0.0,2.548,2.543,2.5337,2.5175,2.4937,2.4433,2.4062,2.3862,2.3813,0.0,0.0,2.4248,2.4524,2.4847,0.0,0.0,0.0,0.0,0.0,0.0,0.0,0.0,0.0,0.0,0.0,0.0,0.0,0.0,0.0,0.0,0.0,0.0,2.8559,2.9349,2.9907,2.9959,3.0022,3.0098,3.0152,2.9978,2.966,2.9202,2.8187,2.714,2.6274,2.614,2.5947,2.538,2.5303,2.5303,2.5303,2.5361,2.5398,2.5407,2.5404,2.5418,2.5418,2.548,2.5495,2.5495,2.5495,2.5495,2.5495,2.5495,2.5503,2.5511,2.5518,2.5543,2.5532,2.5595,2.564,2.5648,2.5683,2.5694,2.5701,2.5703,2.5703,2.5703,2.5703,2.5703,2.5703,2.5703,2.5703,2.5703,2.5703,2.5703,2.5703,0.0,0.0,0.0,0.0,0.0,1.9472,0.0,0.0,0.0,0.0,0.0,0.0,0.0,0.0,1.8151,1.8838,1.9345,2.0346,2.199,2.2134,2.2861,2.4402,2.4674,0.0,0.0,0.0,0.0,0.0,0.0,0.0,0.0,2.549,2.5376,2.5192,2.4853,2.4532,0.0,0.0,0.0,2.4248,2.4389,2.462,2.4888,0.0,0.0,0.0,0.0,0.0,0.0,0.0,0.0,0.0,0.0,0.0,0.0,0.0,0.0,0.0,2.5716,0.0,0.0,0.0,0.0,2.9344,2.968,2.9823,2.9888,3.0,3.009,3.0021,2.9564,2.9044,2.8349,2.7217,2.7044,2.6832,2.6255,2.6178,2.6178,2.6178,2.6217,2.6111,2.5823,2.5793,2.5676,2.5387,2.5415,2.5423,2.5423,2.5423,2.5423,2.5423,2.5451,2.5468,2.5476,2.5472,2.5464,2.546,2.5531,2.5585,2.5609,2.5658,2.5681,2.5696,2.57,2.5703,2.5703,2.5703,2.5703,2.5703,2.5703,2.5703,2.5703,2.5703,2.5703,2.5703,0.0,2.024,2.0278,2.0793,2.065,2.021,1.9439,0.0,0.0,0.0,0.0,0.0,0.0,0.0,0.0,1.9559,2.0081,2.1061,2.2794,2.3032,2.3555,2.4554,2.4795,0.0,0.0,0.0,0.0,0.0,0.0,0.0,0.0,0.0,2.5524,2.5406,2.5332,2.5018,2.4522,0.0,2.4371,2.4335,0.0,2.4651,2.4847,0.0,0.0,0.0,2.5466,2.5556,0.0,2.5605,0.0,0.0,0.0,0.0,0.0,0.0,0.0,0.0,0.0,0.0,0.0,0.0,0.0,0.0,2.9286,2.9551,2.9644,2.9855,3.0003,3.0123,3.0174,3.0253,2.9787,2.8225,2.7948,2.7928,2.789,2.789,2.789,2.789,2.789,2.7563,2.6717,2.664,2.6274,2.5399,2.5341,2.5322,2.5303,2.5303,2.5303,2.5303,2.5361,2.5398,2.5398,2.5395,2.5401,2.5401,2.5464,2.5531,2.5601,2.5595,2.5636,2.5698,2.5696,2.5702,2.5703,2.5703,2.5703,2.5703,2.5703,2.5703,2.5703,2.5703,2.5703,2.5703,1.9902,2.0268,2.0423,2.035,2.0084,1.9807,1.9485,0.0,0.0,0.0,0.0,0.0,0.0,0.0,0.0,1.9538,2.0507,2.1607,2.2832,2.3149,2.3733,2.4704,2.4879,2.5019,0.0,0.0,0.0,0.0,0.0,0.0,0.0,0.0,0.0,0.0,2.5378,2.5264,2.5061,2.4905,0.0,2.4892,2.4911,2.5037,0.0,0.0,0.0,0.0,0.0,2.5624,2.5679,0.0,2.5633,2.557,0.0,0.0,0.0,0.0,0.0,0.0,2.4832,0.0,0.0,0.0,0.0,0.0,2.9161,2.9411,2.9493,2.9644,2.9787,2.9924,3.0098,3.0128,3.0037,2.9627,2.9116,2.856,2.7986,2.789,2.789,2.789,2.789,2.7813,2.7563,2.7544,2.7178,2.6313,2.6236,2.5967,2.5322,2.5303,2.5303,2.5303,2.5313,2.5322,2.5322,2.5332,2.5351,2.5397,2.5412,2.5453,2.5524,2.5582,2.5615,2.5636,2.5679,2.5693,2.5698,2.5703,2.5703,2.5703,2.5703,2.5703,2.5703,2.5703,2.5703,2.5703,2.0076,2.061,2.0968,2.0931,2.0675,2.0327,0.0,0.0,0.0,0.0,0.0,0.0,0.0,0.0,0.0,2.039,2.1325,2.2335,2.3327,2.3735,2.4204,2.4772,2.4903,2.4993,0.0,0.0,0.0,0.0,0.0,0.0,0.0,0.0,0.0,0.0,0.0,2.5445,0.0,0.0,0.0,0.0,2.5186,0.0,0.0,2.5401,2.5432,0.0,0.0,0.0,2.5654,2.5683,2.5661,0.0,0.0,0.0,0.0,0.0,0.0,0.0,0.0,0.0,0.0,0.0,0.0,0.0,2.8408,2.892,2.927,2.9377,2.9532,2.9718,2.9874,2.9943,2.9991,3.0049,2.9737,2.934,2.8917,2.8883,2.8914,2.8914,2.8906,2.8783,2.8426,2.8409,2.8044,2.7217,2.6813,2.6217,2.5341,2.5303,2.5303,2.5303,2.5303,2.5303,2.5303,2.5303,2.5313,2.5361,2.5388,2.5423,2.5464,2.5524,2.5556,2.5566,2.5632,2.5673,2.5707,2.57,2.5703,2.5703,2.5703,2.5703,2.5703,2.5703,2.5703,2.5703,0.0,2.1194,2.1764,2.209,2.182,2.1341,0.0,0.0,0.0,0.0,0.0,0.0,0.0,0.0,0.0,0.0,2.2343,2.3118,2.4042,2.4479,2.4729,2.4791,2.4861,2.4912,2.498,0.0,0.0,0.0,0.0,0.0,0.0,0.0,0.0,0.0,2.5534,2.5596,0.0,0.0,0.0,2.5492,2.5379,2.5376,0.0,0.0,2.5457,2.5511,2.5577,2.559,2.5605,2.5679,2.5662,0.0,0.0,0.0,0.0,0.0,2.5115,0.0,0.0,0.0,0.0,0.0,2.5917,0.0,2.7383,2.8205,2.8851,2.902,2.9251,2.9454,2.9532,2.9645,2.9754,2.9822,2.9907,3.0003,3.018,3.0253,3.0279,3.0279,3.0299,3.0016,2.9294,2.9233,2.8909,2.8102,2.7236,2.637,2.5495,2.5437,2.5399,2.5303,2.5303,2.5303,2.5303,2.5303,2.5303,2.5303,2.5361,2.5388,2.5406,2.5464,2.549,2.5499,2.5571,2.5629,2.569,2.5693,2.5701,2.5703,2.5703,2.5703,2.5703,2.5703,2.5703,2.5703,2.083,2.1864,2.2642,2.2522,2.2197,2.1898,0.0,0.0,0.0,0.0,0.0,0.0,0.0,0.0,0.0,0.0,0.0,2.3676,2.4079,2.4478,2.4711,2.4707,2.4783,2.4842,2.4837,2.4902,0.0,0.0,0.0,0.0,0.0,0.0,0.0,0.0,0.0,2.5918,0.0,0.0,0.0,2.6596,2.5855,2.5543,2.5567,2.5554,2.5568,2.558,2.5602,2.5605,2.5604,2.5675,2.5651,2.5598,0.0,0.0,0.0,2.5311,0.0,0.0,0.0,0.0,0.0,0.0,2.5351,0.0,2.7031,2.7508,2.7852,2.8621,2.8855,2.8997,2.9169,2.9254,2.9334,2.9415,2.9514,2.9732,3.006,3.018,3.0221,3.0221,3.0279,3.0248,3.0094,3.0061,2.974,2.8933,2.811,2.7274,2.639,2.6351,2.6024,2.5322,2.5303,2.5303,2.5303,2.5303,2.5303,2.5303,2.5313,2.5351,2.5407,2.5415,2.5456,2.549,2.5576,2.561,2.5609,2.5681,2.5697,2.5703,2.5703,2.5703,2.5703,2.5703,2.5703,2.5703,2.1089,2.2268,2.3164,2.2937,0.0,0.0,0.0,0.0,0.0,0.0,0.0,0.0,0.0,0.0,0.0,0.0,0.0,0.0,0.0,0.0,2.4704,2.4753,2.4779,2.4827,2.4856,2.5319,0.0,0.0,0.0,0.0,0.0,0.0,0.0,0.0,0.0,0.0,0.0,0.0,2.7009,2.6913,2.6011,0.0,2.5605,2.5605,2.5602,2.5593,2.5593,2.5615,2.5655,2.5689,2.5681,0.0,2.5644,2.5605,2.5531,0.0,2.5255,2.5103,0.0,0.0,0.0,2.4609,2.4784,0.0,0.0,2.629,2.6849,2.7716,2.8009,2.8263,2.88,2.8943,2.9012,2.8997,2.9418,2.9723,2.9626,2.9851,3.0045,3.0045,3.0138,3.0199,3.0185,3.0234,2.9909,2.9097,2.871,2.8118,2.7253,2.6822,2.6409,2.5967,2.5534,2.5303,2.5303,2.5303,2.5303,2.5303,2.5303,2.5313,2.5351,2.5369,2.5412,2.5453,2.5551,2.559,2.5617,2.5676,2.5694,2.5702,2.5703,2.5703,2.5703,2.5703,2.5703,2.5703,2.156,2.265,2.3513,2.3346,0.0,0.0,0.0,0.0,0.0,0.0,0.0,0.0,0.0,0.0,0.0,0.0,0.0,0.0,0.0,0.0,2.4723,2.4794,2.4837,2.4955,2.5181,2.5888,2.6479,0.0,0.0,0.0,0.0,0.0,0.0,0.0,0.0,0.0,0.0,0.0,0.0,2.7383,0.0,2.579,2.5603,2.5595,2.5574,2.5585,2.5601,2.5642,2.5701,2.5707,2.5691,2.5707,2.5707,2.566,0.0,0.0,0.0,0.0,0.0,0.0,2.4247,2.3979,2.4299,2.4662,0.0,0.0,0.0,2.6756,2.715,2.758,2.8275,2.856,2.8676,2.8597,2.9191,2.9472,2.9044,2.9528,2.996,3.0065,3.0333,3.051,3.0532,3.0452,3.0136,2.9493,2.9353,2.8936,2.8073,2.7262,2.6745,2.6591,2.5745,2.5303,2.5303,2.5303,2.5303,2.5303,2.5303,2.5303,2.5303,2.536,2.5404,2.541,2.5525,2.559,2.5617,2.5676,2.5694,2.5701,2.5703,2.5703,2.5703,2.5703,2.5703,2.5703,2.2567,2.3236,2.3834,2.3753,0.0,0.0,0.0,0.0,0.0,0.0,0.0,0.0,0.0,0.0,0.0,0.0,0.0,0.0,2.4097,0.0,0.0,2.4794,2.498,2.5425,2.6199,2.637,2.7266,0.0,0.0,0.0,0.0,0.0,0.0,0.0,2.8509,0.0,0.0,0.0,2.8658,0.0,2.7435,2.6306,0.0,2.5535,2.5511,2.5525,2.5591,2.5636,2.5703,0.0,2.5699,2.5697,0.0,2.5655,2.5566,2.5432,0.0,0.0,2.4855,2.4554,2.4247,2.4037,2.3904,2.3983,2.4621,0.0,2.5094,2.6021,0.0,2.7331,2.7353,0.0,0.0,2.8191,2.8291,2.8406,2.8471,2.9417,3.0246,3.0658,3.145,3.1977,3.2033,3.1509,3.1131,3.1043,3.0447,2.9723,2.8913,2.8099,2.7308,2.6529,2.5716,2.5303,2.5303,2.5303,2.5303,2.5303,2.5303,2.5303,2.5303,2.5361,2.5395,2.5395,2.5479,2.5551,2.5613,2.5679,2.5696,2.5702,2.5703,2.5703,2.5703,2.5703,2.5703,2.5703,2.2904,2.3487,2.4016,2.3976,0.0,0.0,0.0,0.0,0.0,0.0,0.0,0.0,0.0,0.0,0.0,0.0,0.0,2.3798,0.0,0.0,0.0,0.0,2.5696,2.6225,2.7125,2.7715,2.8415,2.9268,2.9842,0.0,0.0,0.0,0.0,0.0,2.9868,0.0,3.0232,0.0,2.9355,0.0,0.0,2.6741,0.0,2.5437,2.5471,2.5506,2.5576,2.5648,2.5703,0.0,2.57,0.0,0.0,0.0,0.0,2.5485,0.0,0.0,2.4855,2.4604,2.4355,2.4116,2.3979,2.399,2.4275,2.4309,2.4544,2.5383,0.0,0.0,0.0,0.0,0.0,0.0,2.8022,2.8235,2.8007,2.9707,3.0838,3.0506,3.125,3.1843,3.1927,3.1768,3.1487,3.1087,3.0845,3.0392,2.9622,2.8861,2.8083,2.7275,2.6433,2.5763,2.5303,2.5303,2.5303,2.5303,2.5303,2.5313,2.5361,2.5397,2.5418,2.5466,2.5529,2.5609,2.5651,2.5691,2.5699,2.5703,2.5703,2.5703,2.5703,2.5703,2.5703,2.5703,2.3382,0.0,0.0,0.0,0.0,0.0,0.0,0.0,0.0,0.0,0.0,0.0,2.3481,2.3394,0.0,0.0,2.3646,2.3948,2.4485,0.0,2.5265,0.0,2.6536,2.7077,2.8034,2.8779,2.9321,2.9686,0.0,0.0,0.0,0.0,0.0,0.0,0.0,3.0834,3.084,0.0,3.0066,2.8846,2.8288,2.7001,2.5404,2.5393,2.5434,2.5518,2.5585,2.5644,2.5703,2.5697,2.57,2.5699,2.5691,2.5645,2.5595,0.0,0.0,0.0,2.4936,2.4727,2.4524,2.4318,2.4247,2.4229,2.421,2.4174,2.434,2.4928,2.5497,0.0,0.0,0.0,0.0,0.0,0.0,2.7609,2.7526,2.9603,3.0916,3.0421,3.1372,3.2103,3.2242,3.2199,3.1936,3.148,3.1186,3.0785,3.0267,2.9368,2.8515,2.7771,2.6937,2.6107,2.5312,2.5303,2.5303,2.5303,2.5313,2.5361,2.5407,2.5412,2.5464,2.5537,2.5576,2.5636,2.5705,2.5698,2.5702,2.5703,2.5703,2.5703,2.5703,2.5703,2.5703,2.5703,2.4321,2.4321,0.0,0.0,0.0,0.0,0.0,0.0,0.0,0.0,0.0,0.0,0.0,0.0,0.0,0.0,0.0,2.4208,2.5217,2.5448,2.6023,0.0,0.0,2.7931,2.8933,2.9168,2.9741,3.0658,3.074,0.0,0.0,0.0,0.0,0.0,0.0,3.0898,3.0897,3.0823,3.0728,3.0464,2.8713,2.6953,2.5398,0.0,2.5448,2.551,2.5585,2.5644,2.5703,2.5697,2.57,2.5699,2.5691,2.5648,2.5589,2.5523,2.5403,2.5265,2.513,2.4943,2.4776,2.4695,2.4633,2.4599,2.4653,2.4637,2.4586,2.461,2.4949,2.5099,2.4653,0.0,0.0,0.0,0.0,0.0,0.0,2.8722,3.0082,3.07,3.2337,3.3487,3.3607,3.311,3.2784,3.2836,3.1586,3.0828,3.0885,2.9496,2.8369,2.7636,2.6898,2.6105,2.5311,2.5293,2.5303,2.5303,2.5361,2.5407,2.5395,2.5472,2.5538,2.5604,2.5593,2.5632,2.5694,2.5701,2.5703,2.5703,2.5703,2.5703,2.5703,2.5703,2.5703,2.5703,2.4498,0.0,0.0,0.0,0.0,0.0,0.0,2.5523,0.0,0.0,2.4598,0.0,0.0,2.4099,2.408,0.0,0.0,2.4225,2.4616,2.4728,2.5243,2.6201,2.7021,2.7902,2.8912,2.9699,3.03,3.0704,3.1334,0.0,0.0,0.0,0.0,0.0,0.0,3.1738,0.0,0.0,0.0,0.0,0.0,2.6434,2.5397,0.0,2.5449,2.5505,2.5571,2.5642,2.5691,2.57,2.5702,2.5702,2.5698,2.5683,2.5655,2.5595,2.548,2.5352,2.5265,2.5152,2.5041,2.4967,2.4974,2.5005,2.5041,2.4937,2.4836,2.4752,2.5021,2.5105,2.4581,0.0,0.0,0.0,0.0,0.0,0.0,2.803,2.9607,3.0001,3.1742,3.2939,3.3093,3.3239,3.3172,3.281,3.2493,3.1885,3.0882,3.0451,2.9399,2.7594,2.7377,2.6657,2.5311,2.5293,2.5303,2.5303,2.5361,2.5406,2.539,2.5471,2.5549,2.5593,2.5648,2.5689,2.5701,2.5703,2.5703,2.5703,2.5703,2.5703,2.5703,2.5703,2.5703,2.5703,2.4566,2.4874,0.0,0.0,0.0,0.0,0.0,2.6318,2.5813,0.0,2.5082,0.0,2.4505,0.0,2.4439,0.0,2.4355,2.445,2.4764,2.4837,2.528,2.6221,2.6997,2.7866,2.8875,2.9648,3.0399,3.1158,3.1796,3.2263,0.0,0.0,0.0,0.0,0.0,3.2147,3.2043,3.117,3.0459,0.0,0.0,2.6638,0.0,0.0,2.5459,2.551,2.5589,2.5632,2.5694,2.5701,2.5702,2.5702,2.5702,2.5694,2.5696,2.5655,2.5566,2.5467,2.5395,2.5311,2.5264,2.5254,2.5264,2.5283,2.5293,2.5182,2.5043,2.4877,2.4864,2.4712,2.4216,0.0,0.0,0.0,0.0,0.0,0.0,2.7758,2.9162,2.9591,3.1287,3.2292,3.1983,3.2877,3.3268,3.2702,3.2895,3.2635,3.1699,3.1222,3.0165,2.8411,2.7916,2.7031,2.5732,2.5447,2.5303,2.5303,2.5379,2.5412,2.5441,2.5505,2.5571,2.5642,2.5685,2.5698,2.5703,2.5703,2.5703,2.5703,2.5703,2.5703,2.5703,2.5703,2.5703,2.5703,2.4678,2.5483,2.6129,0.0,2.6768,2.7311,2.7415,2.6663,2.6098,0.0,2.5433,2.4898,2.4912,2.4912,2.4851,2.4727,2.4586,2.4843,2.5612,2.5651,2.6059,2.6949,2.721,2.7804,2.8817,2.9079,3.0117,3.1993,3.212,0.0,0.0,0.0,0.0,0.0,3.2615,0.0,3.2116,3.1237,3.0778,3.0481,2.8714,2.7486,2.6605,2.5817,2.5492,2.5515,2.5578,2.5657,2.5696,2.5702,2.5703,2.5703,2.5702,2.5699,2.5693,2.5703,2.5652,2.5581,2.5517,2.5464,2.5429,2.5484,2.5456,2.5421,2.5484,2.5341,2.5149,2.4943,2.4479,2.3987,2.3592,0.0,0.0,0.0,0.0,0.0,0.0,0.0,2.8693,2.9434,3.0942,3.1513,3.0485,3.2103,3.3047,3.2658,3.2871,3.3059,3.3209,3.18,3.064,2.9926,2.8455,2.7287,2.6504,2.5744,2.5341,2.5303,2.5367,2.5437,2.5503,2.5565,2.5644,2.569,2.5694,2.5701,2.5703,2.5703,2.5703,2.5703,2.5703,2.5703,2.5703,2.5703,2.5703,2.5703,2.6297,2.7318,2.8108,2.8141,2.8203,2.8461,2.9136,2.8032,2.7148,2.7219,2.5958,2.5057,2.5043,2.5056,2.5019,2.4942,2.4888,2.4917,2.5027,2.5023,2.5133,2.538,2.6176,2.7026,2.7987,2.8849,3.0148,3.1935,3.2697,0.0,3.4385,0.0,0.0,0.0,0.0,0.0,3.301,3.2134,3.0984,2.9622,2.8462,2.7484,2.6605,2.5817,2.5525,2.5585,2.5655,2.5689,2.5702,2.5703,2.5703,2.5703,2.5703,2.5701,2.5697,2.5705,2.5642,2.5604,2.5574,2.5531,2.548,2.5492,2.544,2.5395,2.5423,2.5303,2.5134,2.4936,2.4579,2.4228,2.3846,0.0,0.0,0.0,0.0,0.0,0.0,0.0,2.8782,2.8575,2.9887,3.0698,3.0416,3.1274,3.2137,3.2906,3.3131,3.3283,3.3424,3.2486,3.1335,3.0029,2.907,2.7905,2.6504,2.6339,2.5947,2.5303,2.5369,2.5448,2.5503,2.5579,2.5636,2.569,2.5694,2.5701,2.5703,2.5703,2.5703,2.5703,2.5703,2.5703,2.5703,2.5703,2.5703,2.5703,2.7583,2.8938,3.0004,3.0073,2.998,2.9942,3.006,2.8646,2.7612,2.7675,2.6244,2.522,2.5182,2.5182,2.516,2.5091,2.5075,2.5,2.4945,2.4907,2.4907,2.4931,2.5469,2.6223,2.7201,2.8203,2.9602,3.1378,0.0,0.0,3.4718,0.0,0.0,0.0,0.0,3.4435,3.388,3.26,3.1234,2.9846,2.8902,2.8025,0.0,2.6351,2.5855,2.56,2.5648,2.5681,2.5699,2.5702,2.5702,2.5701,2.57,2.5697,2.5691,2.5657,2.5632,2.5595,2.5562,2.5524,2.548,2.5464,2.5432,2.5406,2.5397,2.5302,2.5153,2.4974,2.4723,2.4468,2.4208,2.3989,0.0,0.0,0.0,0.0,0.0,2.8046,2.8329,2.8058,2.8753,2.9468,2.9908,3.0846,3.1779,3.2596,3.3139,3.3617,3.4035,3.2978,3.1974,3.1111,2.9641,2.8288,2.7091,2.6762,2.6159,2.5303,2.5378,2.5429,2.5468,2.5554,2.5628,2.5662,2.5687,2.5697,2.57,2.5703,2.5703,2.5703,2.5703,2.5703,2.5703,2.5703,2.5703,2.5703,2.898,3.0468,3.1665,0.0,0.0,3.1302,3.0316,2.8775,2.7712,2.7651,2.6333,2.5379,2.5322,2.5313,2.5293,2.5222,2.516,2.5122,2.5106,2.5063,2.505,2.5113,2.5122,2.5573,2.6563,2.7526,2.8873,0.0,0.0,0.0,0.0,0.0,0.0,0.0,0.0,0.0,0.0,3.2717,3.1455,3.0524,2.9583,2.8714,2.7892,2.7022,2.6229,2.5576,2.5571,2.5632,2.5707,2.5696,2.5696,2.5691,2.5689,2.5683,2.5671,2.5613,2.5585,2.5571,2.5506,2.5495,2.5476,2.5421,2.5395,2.5369,2.5389,2.5292,2.5153,2.5019,2.4874,2.4714,2.4595,2.4643,0.0,0.0,0.0,0.0,2.7179,2.7415,2.7699,2.7754,2.7844,0.0,2.9232,3.0551,3.1579,3.2146,3.2978,3.3866,3.4813,3.3317,3.2463,3.2514,3.0232,2.8657,2.7984,2.7166,2.6332,2.5457,2.5416,2.5401,2.5406,2.5537,2.5591,2.5593,2.5651,2.5685,2.5691,2.5699,2.5702,2.5702,2.5703,2.5703,2.5703,2.5703,2.5703,2.5703,3.1689,3.2302,0.0,0.0,3.1737,3.1245,2.9705,2.8568,2.7634,2.6985,2.6028,2.5401,2.5378,2.5379,2.537,2.5292,2.5271,2.525,2.5195,2.5168,2.5168,2.518,2.5168,2.5595,2.6499,2.7489,2.8861,0.0,0.0,0.0,0.0,0.0,0.0,0.0,0.0,0.0,3.3483,3.2448,0.0,3.0524,2.9583,2.8676,2.7827,2.7006,2.6172,2.5432,2.5499,2.56,2.5693,2.5696,2.5696,2.5693,2.5639,2.5613,2.5601,2.5537,2.5529,2.5499,2.5437,2.541,2.5415,2.5397,2.537,2.5293,2.5243,2.522,2.5153,2.5019,2.5025,2.5005,2.493,2.5633,0.0,0.0,0.0,2.8038,2.8536,2.7988,2.7537,2.7547,2.8139,2.8638,2.8886,2.9649,3.0785,3.2397,3.2678,3.347,3.5047,3.3511,3.2599,3.2661,3.0892,2.9602,0.0,2.8071,2.7236,2.637,2.5717,2.5397,2.5404,2.5478,2.5525,2.5523,2.5589,2.5616,2.5626,2.5681,2.5691,2.5697,2.5702,2.5703,2.5703,2.5703,2.5703,2.5703,3.3892,0.0,0.0,0.0,3.251,3.1814,2.9712,2.9013,2.8268,2.696,2.6016,2.5437,2.541,2.5395,2.537,2.5312,2.5312,2.5475,2.5896,2.5926,2.6096,2.6542,2.6546,2.6749,2.7171,2.8135,2.9244,3.054,0.0,0.0,0.0,0.0,0.0,0.0,0.0,3.4577,0.0,0.0,3.1421,3.051,3.0027,2.9051,2.7856,2.747,2.6515,2.5398,2.543,2.5512,2.5609,2.5632,2.5632,2.558,2.5566,2.5546,2.5523,2.546,2.5459,2.543,2.5421,2.5406,2.5388,2.5361,2.5322,2.5293,2.5262,2.5212,2.5168,2.5118,2.5157,2.5234,2.5299,2.6093,2.6907,2.7362,2.776,2.7983,2.7925,2.7464,2.7123,2.7082,2.7397,2.7969,2.8868,2.9254,3.0352,3.2539,3.2703,3.3463,3.5165,3.4025,3.3131,3.2703,3.1541,3.012,2.8441,0.0,2.7236,2.5928,2.5572,2.5398,2.5397,2.5418,2.5456,2.5439,2.5529,2.5542,2.5556,2.5616,2.5679,2.5691,2.5699,2.5702,2.5703,2.5703,2.5703,2.5703,0.0,3.5463,0.0,0.0,3.307,3.2182,2.9842,2.9515,2.8953,2.7371,2.652,2.6029,2.5964,2.5934,2.5909,2.5851,2.5851,2.614,2.6832,2.689,2.7138,2.7777,2.7796,2.7785,2.7773,2.869,2.9602,3.05,3.2356,0.0,0.0,0.0,0.0,0.0,0.0,0.0,0.0,0.0,3.1359,3.0491,3.0428,2.9404,2.7902,2.7902,2.6844,2.5376,2.5385,2.544,2.5492,2.5544,2.5537,2.5499,2.548,2.5485,2.5461,2.5418,2.5401,2.5395,2.5379,2.5389,2.5361,2.5313,2.5303,2.5303,2.5292,2.5252,2.5212,2.5209,2.5253,2.5374,2.5571,2.6318,2.6926,2.6986,2.7524,2.7706,2.7024,2.6704,2.6528,2.6471,2.6571,2.7228,2.8717,2.9014,3.0163,3.2664,3.2823,3.3552,3.5228,3.4485,3.37,3.301,3.2095,3.0548,2.8365,0.0,2.7121,2.5572,2.5428,2.5389,2.5389,2.5387,2.5393,2.5398,2.5478,2.5518,2.5529,2.5589,2.5642,2.5703,2.5696,2.57,2.5702,2.5703,2.5703,2.5703,0.0,0.0,0.0,3.3437,3.2688,3.1581,2.9782,2.955,2.9224,2.8199,2.7954,2.7828,2.7752,2.77,2.7663,2.767,2.7659,2.7678,2.7775,2.7775,2.7772,2.7812,2.78,2.7776,2.7714,2.8574,2.9506,3.051,3.2268,3.3626,0.0,0.0,0.0,0.0,0.0,0.0,3.211,3.1961,3.1352,3.0491,3.0425,2.939,2.7901,2.7901,2.6823,2.5322,2.537,2.5407,2.5407,2.5423,2.5456,2.5499,2.5418,2.541,2.5421,2.5397,2.5407,2.5398,2.5322,2.5313,2.5313,2.5303,2.5303,2.5303,2.5292,2.5311,2.5282,2.5212,2.5312,2.5425,2.5566,2.6307,2.6913,2.6993,2.7064,2.7075,2.6997,2.624,2.5712,2.571,2.6333,2.7133,2.8027,2.8753,3.0248,3.2793,3.2923,3.3613,3.5302,3.4563,3.4045,3.3958,3.2436,3.1142,3.0167,2.8659,2.7409,2.6467,2.5678,2.5313,2.5313,2.537,2.5407,2.5388,2.5476,2.5524,2.5582,2.5591,2.564,2.5701,2.5707,2.5697,2.5701,2.5703,2.5703,2.5703,3.5794,3.5132,3.4306,3.3496,3.267,3.1702,3.052,3.0362,3.0235,2.9803,2.8783,2.8074,2.802,2.7932,2.7894,2.7901,2.789,2.8102,2.8582,2.9102,2.9598,3.0061,3.058,3.0593,3.0043,3.0414,3.1056,3.2006,3.2783,3.391,0.0,0.0,0.0,0.0,3.4078,3.3112,3.1909,3.1319,3.083,3.0439,3.0402,2.941,2.789,2.789,2.6813,2.5313,2.5322,2.5351,2.5351,2.5341,2.5388,2.5434,2.5406,2.5369,2.5331,2.5332,2.5351,2.5322,2.5313,2.5303,2.5303,2.5303,2.5303,2.5303,2.5293,2.5293,2.5293,2.5283,2.5339,2.5432,2.5581,2.5881,2.6131,2.6169,2.6162,2.6147,2.6116,2.5779,2.5543,2.5544,2.5822,2.6565,2.7927,2.8313,2.9738,3.2767,3.2979,3.3699,3.5364,3.5119,3.4697,3.4186,3.2994,3.1744,3.0398,2.8736,2.7467,2.6582,2.5717,2.5303,2.5303,2.5322,2.537,2.5397,2.544,2.5483,2.5531,2.5581,2.5632,2.5697,2.5705,2.5697,2.57,2.5703,2.6035,2.6484,3.5587,3.4843,3.3997,3.3154,3.2316,3.1558,3.0995,3.0895,3.0966,3.117,3.0076,2.9149,2.8811,2.8695,2.8665,2.8651,2.864,2.8986,2.9813,3.0448,3.1148,3.1949,3.2564,3.2609,3.2006,3.2051,3.2509,3.3418,3.3537,3.4384,3.5903,0.0,0.0,3.4276,3.3345,3.2402,3.1468,3.079,3.0462,3.0428,3.0414,2.9547,2.8259,2.7999,2.6997,2.5669,2.5428,2.5322,2.5341,2.5313,2.5322,2.5361,2.5361,2.5341,2.5303,2.5303,2.5303,2.5303,2.5303,2.5303,2.5303,2.5303,2.5303,2.5303,2.5303,2.5303,2.5313,2.5341,2.5367,2.5422,2.5517,2.554,2.5546,2.5537,2.5526,2.5498,2.5446,2.5453,2.5486,2.5499,2.5529,2.6207,2.797,2.8074,2.9411,3.2782,3.3018,3.373,3.5411,3.5493,3.5103,3.4218,3.3353,0.0,3.0417,2.8967,2.7698,2.6601,2.5986,2.5553,2.5303,2.5313,2.5351,2.5404,2.5418,2.5478,2.5523,2.5591,2.564,2.5707,2.5709,2.5698,2.572,2.5996,2.6465,2.7031,3.4875,3.401,3.3139,3.2264,3.1445,3.0918,3.0898,3.0898,3.1188,3.1975,3.2069,3.1679,3.0679,3.0511,3.0439,3.0371,3.0359,3.0737,3.1602,3.1679,3.2051,3.2858,3.2897,3.2897,3.2872,3.2947,3.3434,3.439,3.4447,3.4963,3.587,3.5095,3.425,3.3373,3.2425,3.1487,3.0621,3.053,3.0499,3.0479,3.0428,2.991,2.91,2.8232,2.7392,2.6569,2.5706,2.5398,2.5389,2.5322,2.5303,2.5303,2.5303,2.5303,2.5303,2.5303,2.5303,2.5303,2.5303,2.5303,2.5303,2.5303,2.5303,2.5303,2.5303,2.5303,2.5313,2.5389,2.5397,2.5404,2.5406,2.5395,2.5395,2.5395,2.5343,2.5299,2.529,2.5356,2.5434,2.5496,2.5563,2.6289,2.803,2.813,2.9499,3.2851,3.3053,3.3728,3.5411,3.5493,3.5103,3.4218,3.3353,3.2102,3.0417,2.9525,2.8255,2.6601,2.6582,2.614,2.5303,2.5361,2.5397,2.5401,2.5471,2.5537,2.5591,2.5601,2.5648,2.5707,2.5697,2.5701,2.58,2.668,2.6992,2.7129,3.5638,3.441,3.3318,3.3027,3.2324,3.1797,3.1797,3.2246,3.2692,3.2955,3.2996,3.2859,3.2474,3.2372,3.2319,3.2259,3.2229,3.2364,3.2634,3.3214,3.3658,3.3917,3.445,3.448,3.3931,3.3994,3.4167,3.447,3.4542,3.5056,3.596,3.5703,3.4798,3.3373,3.3049,3.2026,3.0607,3.0567,3.053,3.0501,3.053,3.0017,2.9242,2.8962,2.7956,2.6663,2.6379,2.5889,2.5389,2.5322,2.5303,2.5303,2.5303,2.5303,2.5303,2.5303,2.5303,2.5303,2.5303,2.5303,2.5303,2.5303,2.5303,2.5303,2.5302,2.5252,2.5241,2.5273,2.5262,2.5253,2.5265,2.5255,2.5265,2.5255,2.5254,2.5225,2.5224,2.534,2.5623,2.6234,2.6412,2.7166,2.8925,2.9026,3.0146,3.2959,3.3055,3.374,3.5411,3.4949,3.4487,3.4199,3.2814,3.1833,3.1295,2.9833,2.8832,2.8294,2.7755,2.7332,2.7044,2.6477,2.6246,2.6251,2.573,2.5549,2.5604,2.5642,2.5681,2.5693,2.57,2.5702,2.582,2.668,2.7383,2.8008,3.5585,3.4648,3.3789,3.3457,3.2988,3.2656,3.2656,3.3086,3.3514,3.3841,3.389,3.4007,3.4287,3.4244,3.393,3.32,3.3132,3.3268,3.3577,3.409,3.4555,3.4865,3.5388,3.5447,3.4942,3.4983,3.5028,3.5022,3.5084,3.543,3.5993,3.5663,3.4757,3.3375,3.2996,3.2,3.0637,3.061,3.0593,3.0574,3.061,3.0316,2.9788,2.9462,2.8652,2.7679,2.7323,2.6814,2.6275,2.5919,2.5793,2.5726,2.5399,2.5303,2.5303,2.5303,2.5303,2.5303,2.5293,2.5293,2.5293,2.5273,2.5262,2.5252,2.5228,2.5195,2.5153,2.5126,2.5134,2.5122,2.5118,2.5088,2.5096,2.5091,2.508,2.5091,2.5157,2.5274,2.5701,2.6636,2.6863,2.7612,2.9372,2.9478,3.0357,3.2545,3.2918,3.3627,3.4943,3.4814,3.4391,3.3718,3.2699,3.1852,3.1218,3.0121,2.941,2.9083,2.8275,2.789,2.7871,2.7335,2.6949,2.6674,2.6223,2.5862,2.5613,2.5671,2.5707,2.5694,2.57,2.5702,2.5858,2.705,2.7831,2.8476,3.4941,3.4746,3.4434,3.3633,3.3496,3.3496,3.3496,3.3535,3.3867,3.4686,3.4782,3.5109,3.5916,3.5949,3.5227,3.3538,3.3386,3.3708,3.4456,3.4495,3.4874,3.5688,3.5771,3.5807,3.5807,3.5866,3.5904,3.5919,3.596,3.5993,3.5976,3.5172,3.4285,3.3361,3.2489,3.1584,3.0704,3.0649,3.0649,3.0704,3.0704,3.0717,3.0625,2.9797,2.944,2.9276,2.8393,2.7991,2.7769,2.6968,2.6697,2.6544,2.5668,2.538,2.538,2.5322,2.5303,2.5303,2.5292,2.5311,2.5282,2.5228,2.5187,2.5164,2.5113,2.5101,2.5057,2.4994,2.4981,2.4981,2.4981,2.4929,2.4888,2.4888,2.4893,2.4947,2.5072,2.5265,2.5776,2.6782,2.7064,2.7832,2.9531,2.9628,3.0228,3.1799,3.2643,3.342,3.4173,3.5039,3.4699,3.2968,3.2852,3.2045,3.0417,3.0398,2.9987,2.9179,2.8429,2.8063,2.8063,2.8029,2.7585,2.6884,2.6942,2.6495,2.5699,2.5752,2.5746,2.5693,2.5697,2.5738,2.5991,2.767,2.8334,2.8626,3.5723,3.5156,3.4629,3.4434,3.4394,3.4394,3.4394,3.4961,3.5469,3.5663,3.5682,3.5777,3.5984,3.5982,3.5796,3.5362,3.5286,3.5349,3.5524,3.5543,3.5636,3.583,3.5875,3.5885,3.5875,3.5931,3.5971,3.5987,3.5993,3.5995,3.5996,3.5799,3.4879,3.3392,3.3161,3.2209,3.0771,3.0754,3.0765,3.0779,3.0779,3.0774,3.0759,3.049,2.9945,2.9292,2.9012,2.8483,2.7874,2.7651,2.7582,2.7448,2.6563,2.6294,2.6159,2.5495,2.5303,2.5303,2.5292,2.5311,2.5282,2.5228,2.5111,2.5031,2.5038,2.4947,2.4865,2.4851,2.476,2.4682,2.4682,2.4666,2.4685,2.4685,2.4804,2.4955,2.5077,2.5831,2.6728,2.7752,2.8489,2.9355,3.0487,3.0525,3.0897,3.1895,3.2668,3.343,3.4234,3.5046,3.4699,3.2968,3.2295,3.1468,3.0398,3.0398,3.0314,3.0102,2.991,2.9813,2.9794,2.9173,2.8801,2.8579,2.7997,2.731,2.6588,2.6615,2.6247,2.5696,2.5698,2.6088,2.6749,2.7822,2.8642,2.9364,3.5996,3.5625,3.5293,3.5293,3.5625,3.5898,3.5898,3.6621,3.7187,3.7187,3.7187,3.703,3.6637,3.6598,3.6597,3.6594,3.656,3.6547,3.6547,3.6879,3.6918,3.6567,3.6531,3.6537,3.654,3.6589,3.6596,3.6582,3.6582,3.6387,3.5996,3.5995,3.529,3.3979,3.3578,3.2651,3.1376,3.0977,3.0794,3.081,3.0802,3.0789,3.0745,3.0704,3.0358,2.9887,2.9825,2.9476,2.8981,2.8574,2.8448,2.8294,2.7467,2.7198,2.7024,2.6159,2.561,2.5303,2.5262,2.5252,2.5231,2.5172,2.5076,2.4993,2.4961,2.4893,2.4842,2.4817,2.4738,2.4673,2.4657,2.496,2.5204,2.5217,2.5687,2.6116,2.6304,2.6878,2.7659,2.8678,2.9231,2.9882,3.0762,3.0813,3.0963,3.1378,3.2466,3.3276,3.3685,3.4854,3.4699,3.2968,3.2487,3.166,3.0398,3.0398,3.0398,3.0398,3.0398,3.0398,3.039,2.9952,2.9552,2.9187,2.876,2.814,2.7414,2.7432,2.7181,2.6792,2.6805,2.7059,2.7546,2.8427,2.905,2.9576,3.5996,3.6113,3.6191,3.6191,3.6914,3.75,3.75,3.8125,3.8594,3.8594,3.8594,3.832,3.7578,3.75,3.75,3.75,3.7611,3.7641,3.7504,3.8149,3.8207,3.7524,3.7509,3.7493,3.7493,3.7498,3.7421,3.7305,3.7305,3.6855,3.5996,3.5993,3.5522,3.4661,3.3925,3.3038,3.204,3.1311,3.0918,3.0817,3.0938,3.0935,3.0884,3.1008,3.0928,3.0771,3.0693,3.0554,3.029,2.9555,2.9294,2.914,2.8332,2.8082,2.7909,2.7044,2.6274,2.562,2.531,2.5212,2.5198,2.5132,2.5063,2.4991,2.4926,2.4898,2.487,2.4832,2.4806,2.481,2.4873,2.5461,2.5986,2.6177,2.6915,2.7529,2.7785,2.8047,2.8524,2.94,2.9677,3.0055,3.0736,3.0799,3.0767,3.0709,3.2081,3.2889,3.2814,3.4263,3.4372,3.2776,3.2833,3.2102,3.0417,3.0398,3.0398,3.0398,3.0398,3.0398,3.041,3.0394,3.0032,2.9389,2.9448,2.8983,2.8197,2.8245,2.8189,2.808,2.8068,2.8178,2.8372,2.9117,2.9454,2.9661,3.5996,3.6582,3.7109,3.7109,3.7812,3.8398,3.8398,3.8516,3.8594,3.8594,3.8594,3.8555,3.8418,3.8398,3.8398,3.8398,3.9062,3.9179,3.8457,3.8515,3.8535,3.8398,3.8398,3.8398,3.8398,3.8398,3.8047,3.7305,3.7304,3.6855,3.5995,3.601,3.5537,3.4697,3.4549,3.3607,3.2085,3.1962,3.1468,3.0852,3.1539,3.1773,3.1778,3.2471,3.2232,3.1543,3.1518,3.1041,3.0371,3.0237,3.0198,3.0044,2.9179,2.8909,2.8736,2.7928,2.7601,2.7168,2.5695,2.5239,2.5203,2.5199,2.5076,2.4993,2.4987,2.4934,2.4898,2.4893,2.4794,2.4929,2.5653,2.5913,2.6246,2.7047,2.7439,2.772,2.7865,2.8636,2.9249,2.9476,3.0157,3.0654,3.0796,3.0747,3.0711,3.0703,3.151,3.199,3.1997,3.2825,3.2872,3.1929,3.2545,3.2102,3.0417,3.0398,3.0398,3.0398,3.0398,3.0398,3.0398,3.041,3.0337,3.0205,3.0216,2.9766,2.9023,2.9032,2.8635,2.8014,2.8023,2.8468,2.9126,2.9261,2.9754,3.0354,3.6601,3.7012,3.7441,3.793,3.8711,3.9297,3.9297,3.9707,4.0,4.0,4.0,3.9824,3.9355,3.9297,3.9297,3.9297,3.9668,3.9922,4.0,4.0,3.9785,3.9316,3.9297,3.9297,3.9297,3.9766,3.957,3.8691,3.8222,3.7557,3.6698,3.622,3.5784,3.5372,3.4866,3.4191,3.3411,3.2946,3.2504,3.2177,3.2513,3.2617,3.2587,3.2919,3.2778,3.2405,3.237,3.1807,3.1102,3.1102,3.0794,3.0321,2.9929,2.9794,2.964,2.8794,2.8206,2.758,2.6339,2.5959,2.5788,2.5329,2.5492,2.5749,2.5742,2.6104,2.6416,2.6416,2.6352,2.6434,2.6833,2.7266,2.7725,2.8179,2.8751,2.9193,2.9294,2.9761,3.0107,3.013,3.0492,3.0754,3.0755,3.0697,3.0639,3.0595,3.1303,3.1755,3.1753,3.2485,3.2526,3.1737,3.1602,3.1179,3.0398,3.0398,3.0398,3.0398,3.0398,3.0398,3.0398,3.0398,3.039,3.0402,3.0402,3.0194,2.985,2.9852,2.9631,2.9293,2.9332,2.9583,2.995,2.995,3.0192,3.0501,3.7422,3.7773,3.8125,3.8789,3.9629,4.0195,4.0195,4.0762,4.1191,4.1191,4.1191,4.0957,4.0273,4.0195,4.0195,4.0195,4.0195,4.0488,4.1152,4.1191,4.0898,4.0234,4.0195,4.0195,4.0195,4.0859,4.0664,3.9609,3.8925,3.8045,3.697,3.6311,3.6007,3.5968,3.5236,3.4789,3.4555,3.3874,3.3459,3.3296,3.34,3.3422,3.3402,3.3539,3.3453,3.3275,3.3231,3.2679,3.1948,3.1756,3.1256,3.0679,3.0456,3.0398,3.0275,2.9602,2.8937,2.8184,2.7166,2.6845,2.6638,2.5967,2.6259,2.6732,2.6725,2.724,2.7731,2.7738,2.7716,2.7788,2.8007,2.8537,2.9041,2.9305,2.9965,3.0462,3.052,3.0607,3.0671,3.0671,3.0671,3.0678,3.0676,3.0626,3.0565,3.0492,3.106,3.1403,3.1399,3.198,3.2141,3.1718,3.0852,3.0398,3.0398,3.0398,3.0398,3.0398,3.0398,3.0398,3.0398,3.0398,3.0398,3.0398,3.0398,3.0398,3.041,3.0394,3.0406,3.0406,3.0447,3.0477,3.0497,3.0689,3.0766,3.0805,3.832,3.9141,3.9726,3.9785,4.0527,4.1094,4.1094,4.1152,4.1191,4.1191,4.1191,4.1172,4.1113,4.1094,4.1094,4.1094,4.1094,4.1133,4.1191,4.1191,4.1172,4.1113,4.1094,4.1094,4.1094,4.1172,4.0371,3.8691,3.863,3.7749,3.6088,3.6024,3.5994,3.6001,3.587,3.5363,3.4583,3.4457,3.3946,3.3281,3.3944,3.4206,3.4299,3.5027,3.4815,3.4116,3.4103,3.3545,3.2699,3.1948,3.166,3.1468,3.0648,3.0398,3.0379,3.0321,3.0263,2.986,2.8236,2.7753,2.7692,2.7616,2.7651,2.7704,2.77,2.775,2.7819,2.7879,2.7832,2.8065,2.8934,2.9138,2.9438,3.0269,3.0491,3.0586,3.0595,3.0593,3.061,3.0613,3.0613,3.0613,3.0604,3.0559,3.0501,3.0501,3.0507,3.0494,3.0494,3.0556,3.0929,3.1679,3.0852,3.0398,3.0398,3.0398,3.0398,3.0398,3.0398,3.0398,3.0398,3.0398,3.0398,3.0398,3.0398,3.0398,3.0398,3.041,3.041,3.041,3.041,3.041,3.0506,3.1314,3.1602,3.1718,3.9121,3.9668,4.0078,4.0605,4.0976,4.1191,4.1191,4.1191,4.1191,4.1191,4.1191,4.1191,4.1191,4.1191,4.1191,4.1191,4.1191,4.1191,4.1191,4.1191,4.1191,4.1191,4.1191,4.1191,4.1191,4.1191,4.0879,4.0215,3.914,3.8259,3.7595,3.6509,3.5991,3.6007,3.5938,3.5694,3.5334,3.5274,3.503,3.472,3.4952,3.5027,3.5072,3.538,3.529,3.5007,3.5007,3.4449,3.366,3.3353,3.2564,3.1641,3.1314,3.0852,3.0398,3.0398,3.0398,3.0263,2.9621,2.9033,2.8494,2.7995,2.8233,2.8618,2.861,2.9066,2.9484,2.9503,2.9525,2.965,3.0007,3.0102,3.0244,3.0563,3.0615,3.0597,3.0597,3.0568,3.053,3.053,3.054,3.0521,3.0481,3.0441,3.0439,3.0436,3.0414,3.0402,3.0402,3.039,3.0814,3.1679,3.1391,3.1448,3.1948,3.1468,3.1218,3.1198,3.066,3.0398,3.0417,3.0968,3.1218,3.1237,3.1737,3.1948,3.1948,3.1948,3.1948,3.1948,3.1948,3.1948,3.1987,3.2314,3.2449,3.2487,4.0019,4.0312,4.0508,4.1094,4.1191,4.1191,4.1191,4.1191,4.1191,4.1191,4.1191,4.1191,4.1191,4.1191,4.1191,4.1191,4.1191,4.1191,4.1191,4.1191,4.1191,4.1191,4.1191,4.1191,4.1191,4.1191,4.1074,4.0781,3.9316,3.8455,3.8163,3.669,3.5999,3.5991,3.5923,3.5864,3.5801,3.5726,3.5669,3.5585,3.5528,3.5509,3.5509,3.5488,3.5493,3.5493,3.5493,3.5122,3.4564,3.4295,3.343,3.2391,3.1872,3.1102,3.0398,3.0398,3.0398,3.0398,3.0398,2.9967,2.9371,2.8813,2.9102,2.9506,2.9506,3.0012,3.0469,3.0469,3.0521,3.0576,3.0576,3.0613,3.0629,3.0629,3.0606,3.0559,3.0579,3.051,3.046,3.0477,3.0469,3.0439,3.0406,3.0394,3.0414,3.041,3.0398,3.0398,3.0398,3.066,3.1198,3.2045,3.2333,3.2872,3.3718,3.2622,3.2083,3.2064,3.1468,3.1198,3.1218,3.1795,3.2083,3.2102,3.266,3.2891,3.2891,3.2891,3.2891,3.2891,3.2891,3.2891,3.2929,3.3218,3.3314,3.3353,4.1035,4.1191,4.1191,4.1191,4.1191,4.1191,4.1191,4.1191,4.1191,4.1191,4.1191,4.1191,4.1191,4.1191,4.1191,4.1191,4.1191,4.1191,4.1191,4.1191,4.1191,4.1191,4.1191,4.1191,4.1191,4.1191,4.0781,3.9902,3.9043,3.8163,3.7303,3.6433,3.601,3.601,3.5934,3.5872,3.5794,3.5727,3.5657,3.5589,3.5528,3.5493,3.5493,3.5493,3.5493,3.5493,3.5493,3.5493,3.5372,3.4507,3.4199,3.391,3.2237,3.1121,3.0398,3.0417,3.0417,3.0398,3.0417,3.0417,3.0417,3.0398,3.0398,3.0398,3.0398,3.0414,3.0417,3.0417,3.0479,3.051,3.051,3.0521,3.052,3.0501,3.0511,3.051,3.0509,3.0458,3.0406,3.041,3.0398,3.0398,3.0398,3.0398,3.0398,3.0398,3.0398,3.0398,3.0398,3.1237,3.2083,3.2872,3.3737,3.4622,3.5474,3.3776,3.291,3.291,3.2891,3.2891,3.2891,3.291,3.291,3.291,3.291,3.291,3.291,3.291,3.291,3.291,3.291,3.291,3.3026,3.3891,3.4199,3.4334,4.1035,4.1191,4.1191,4.1191,4.1191,4.1191,4.1191,4.1191,4.1172,4.1132,4.1132,4.1131,4.113,4.1131,4.1132,4.1132,4.1172,4.1191,4.1191,4.1191,4.1191,4.1191,4.1191,4.1191,4.1191,4.1191,4.1074,4.0801,3.9941,3.9375,3.912,3.8235,3.7795,3.7737,3.7099,3.6748,3.6606,3.5911,3.5593,3.5528,3.5501,3.5493,3.5493,3.5493,3.5493,3.5493,3.5493,3.5493,3.5468,3.5199,3.4718,3.4007,3.2891,3.1987,3.1429,3.1987,3.1756,3.1448,3.2006,3.216,3.1872,3.0686,3.0398,3.0552,3.1179,3.1318,3.1496,3.2093,3.2235,3.2074,3.1514,3.1409,3.1207,3.0608,3.0972,3.1133,3.0524,3.0945,3.1095,3.0467,3.0398,3.0398,3.0398,3.0398,3.0398,3.0398,3.0968,3.1314,3.1314,3.2083,3.2929,3.3795,3.4064,3.4622,3.5474,3.4372,3.3814,3.3795,3.3179,3.2891,3.291,3.3526,3.3814,3.3853,3.4468,3.4718,3.4718,3.4718,3.4718,3.4718,3.4718,3.4718,3.4757,3.5026,3.5122,3.5161,4.1094,4.1191,4.1191,4.1191,4.1191,4.1191,4.1152,4.1152,4.1151,4.1108,4.1108,4.1108,4.1105,4.1108,4.1092,4.1092,4.1152,4.1191,4.1191,4.1191,4.1348,4.166,4.168,4.1523,4.1211,4.1191,4.1191,4.1152,4.0312,3.9881,3.9838,3.8973,3.8528,3.8434,3.7877,3.7397,3.6949,3.6342,3.6047,3.6003,3.6001,3.618,3.6449,3.6122,3.5968,3.593,3.5622,3.5493,3.5493,3.5493,3.493,3.4103,3.3583,3.2833,3.2275,3.2756,3.2564,3.2275,3.2776,3.2891,3.266,3.1641,3.1391,3.1525,3.2045,3.2172,3.2319,3.2851,3.2972,3.2821,3.232,3.2243,3.2069,3.1529,3.1862,3.1992,3.1453,3.1845,3.1987,3.1448,3.1391,3.1391,3.1391,3.1391,3.1391,3.1391,3.1891,3.2179,3.2179,3.2968,3.366,3.418,3.4526,3.4968,3.5474,3.4988,3.4718,3.4718,3.418,3.393,3.3949,3.4468,3.4718,3.4737,3.5276,3.5493,3.5493,3.5493,3.5493,3.5493,3.5493,3.5493,3.5493,3.5493,3.5493,3.5493,4.1308,4.1367,4.1406,4.1328,4.1308,4.1269,4.1112,4.1091,4.1108,4.1099,4.1103,4.1103,4.1097,4.1166,4.1228,4.1228,4.1347,4.1387,4.1308,4.1387,4.1719,4.2363,4.2461,4.2168,4.1445,4.1347,4.125,4.1091,4.0369,3.9973,3.9884,3.9087,3.8683,3.8611,3.8466,3.7958,3.7196,3.6986,3.6903,3.6895,3.6848,3.7296,3.7911,3.7123,3.6776,3.6603,3.5872,3.5565,3.5493,3.5493,3.4968,3.4314,3.4314,3.3718,3.3026,3.3103,3.3083,3.3026,3.3103,3.3122,3.3122,3.3122,3.3122,3.3103,3.3026,3.3026,3.3045,3.3122,3.3122,3.309,3.3013,3.2994,3.2974,3.2897,3.2955,3.2987,3.291,3.2968,3.2987,3.291,3.2891,3.2891,3.2891,3.2891,3.2891,3.2891,3.2968,3.3026,3.3026,3.3833,3.4314,3.4314,3.5084,3.5493,3.5493,3.5493,3.5493,3.5493,3.5493,3.5493,3.5493,3.5493,3.5493,3.5493,3.5493,3.5493,3.5493,3.5493,3.5493,3.5493,3.5493,3.5493,3.5493,3.5493,3.5493,3.5493,4.2148,4.2695,4.2949,4.2266,4.2148,4.1894,4.1209,4.109,4.1105,4.1094,4.1108,4.1101,4.1101,4.1699,4.2121,4.2124,4.2753,4.2871,4.2187,4.2773,4.293,4.2422,4.3046,4.3338,4.3159,4.2497,4.1793,4.1101,4.0923,4.0812,4.074,4.0557,4.0388,4.0257,3.9557,3.9112,3.882,3.8053,3.7742,3.7752,3.7719,3.7834,3.7988,3.7796,3.7296,3.668,3.6507,3.6045,3.5493,3.5493,3.5372,3.5218,3.5218,3.4622,3.4045,3.4737,3.4449,3.4064,3.4757,3.4949,3.4949,3.4949,3.4949,3.4757,3.4064,3.391,3.4103,3.4735,3.4856,3.463,3.3901,3.3801,3.3604,3.2867,3.335,3.3621,3.2987,3.3493,3.366,3.2987,3.2891,3.2891,3.2891,3.2891,3.2891,3.2891,3.3526,3.391,3.391,3.4737,3.5218,3.5218,3.5411,3.5493,3.5493,3.5493,3.5493,3.5493,3.5493,3.5493,3.5493,3.5493,3.5493,3.5493,3.5493,3.5493,3.5493,3.5493,3.5493,3.5493,3.5493,3.5493,3.5493,3.5493,3.5493,3.5493,4.3027,4.3398,4.3555,4.3105,4.2676,4.2246,4.1794,4.1361,4.1099,4.1097,4.1464,4.1718,4.1718,4.25,4.3021,4.3026,4.3437,4.3516,4.3047,4.3457,4.3672,4.3633,4.4081,4.4311,4.4262,4.3827,4.2962,4.1679,4.1261,4.1017,4.0953,4.0921,4.084,4.0726,4.0242,3.976,3.9326,3.8821,3.8618,3.8623,3.8623,3.8854,3.9142,3.8777,3.8334,3.7834,3.7007,3.618,3.5493,3.5493,3.5493,3.5493,3.5493,3.5199,3.4911,3.5372,3.518,3.493,3.5391,3.5493,3.5493,3.5493,3.5493,3.5391,3.493,3.4814,3.4936,3.5316,3.5364,3.5181,3.4668,3.4572,3.4419,3.3929,3.4282,3.4496,3.4103,3.4452,3.4614,3.4199,3.4141,3.4141,3.4141,3.4141,3.4141,3.4141,3.4564,3.4814,3.4814,3.5257,3.5493,3.5493,3.5493,3.5493,3.5493,3.5493,3.5493,3.5493,3.5493,3.5493,3.5493,3.5493,3.5493,3.5493,3.5493,3.5493,3.5493,3.5493,3.5493,3.5493,3.5493,3.5493,3.5493,3.5493,3.5493,3.5493,4.3926,4.4043,4.4101,4.3945,4.332,4.2792,4.2633,4.2002,4.154,4.1534,4.2163,4.2616,4.262,4.3403,4.3981,4.4121,4.4141,4.4082,4.3926,4.4062,4.4394,4.4961,4.5135,4.5186,4.5121,4.4952,4.4013,4.2286,4.1546,4.1085,4.0859,4.0809,4.0754,4.0688,4.0635,4.0193,3.9514,3.9503,3.9508,3.9508,3.9508,3.9892,4.0431,3.9758,3.9411,3.9104,3.7661,3.6526,3.568,3.5565,3.5493,3.5493,3.5493,3.5493,3.5493,3.5493,3.5603,3.5718,3.5718,3.5815,3.593,3.593,3.593,3.593,3.593,3.5718,3.5493,3.5398,3.535,3.527,3.5174,3.5124,3.507,3.507,3.5141,3.5207,3.5285,3.5364,3.5412,3.5493,3.5493,3.5493,3.5493,3.5493,3.5493,3.5493,3.5493,3.5493,3.5493,3.5493,3.5493,3.5493,3.5493,3.5493,3.5493,3.5493,3.5493,3.5493,3.5493,3.5493,3.5493,3.5493,3.5493,3.5493,3.5493,3.5493,3.5493,3.5493,3.5493,3.5493,3.5493,3.5493,3.5493,3.5493,3.5493,3.5493,4.4824,4.543,4.5703,4.4961,4.4726,4.4394,4.3631,4.3409,4.3342,4.3352,4.3455,4.3528,4.3525,4.4308,4.5136,4.5879,4.5957,4.5625,4.4863,4.5527,4.5664,4.5038,4.5716,4.6085,4.6039,4.5173,4.3897,4.2205,4.2044,4.1526,4.0718,4.072,4.0687,4.0617,4.0603,4.0496,4.035,4.035,4.0335,4.0335,4.0335,4.0392,4.0489,4.0373,3.9912,3.9258,3.9027,3.7911,3.643,3.5738,3.5493,3.5493,3.5493,3.5493,3.5493,3.5493,3.5988,3.6546,3.6546,3.7084,3.7661,3.7661,3.7661,3.7661,3.7661,3.6546,3.546,3.533,3.5304,3.5245,3.5056,3.502,3.4982,3.4945,3.5035,3.5157,3.5293,3.5354,3.5412,3.5493,3.5493,3.5493,3.5493,3.5493,3.5493,3.5493,3.5493,3.5493,3.5493,3.5493,3.5493,3.5493,3.5493,3.5493,3.5493,3.5493,3.5493,3.5493,3.5493,3.5493,3.5493,3.5493,3.5493,3.5493,3.5493,3.5493,3.5493,3.5493,3.5493,3.5493,3.5493,3.5493,3.5493,3.5493,3.5493,3.5493,4.5723,4.6035,4.6172,4.5781,4.5312,4.4863,4.4471,4.4018,4.37,4.3693,4.4117,4.4429,4.444,4.5193,4.5879,4.6269,4.6308,4.6133,4.5742,4.6093,4.6131,4.5735,4.6053,4.6221,4.6157,4.5638,4.476,4.3478,4.2524,4.1816,4.1354,4.0877,4.0603,4.0539,4.0539,4.0523,4.0489,4.0489,4.0489,4.0489,4.0489,4.0489,4.0489,4.0489,4.0277,3.9835,3.8911,3.7777,3.6584,3.5776,3.5493,3.5584,3.6045,3.618,3.6276,3.6757,3.7161,3.743,3.743,3.7719,3.8007,3.8007,3.8007,3.8007,3.8007,3.743,3.6743,3.6185,3.6029,3.5777,3.5166,3.5001,3.4945,3.4945,3.5001,3.5089,3.5277,3.5339,3.5379,3.5493,3.5493,3.5493,3.5493,3.5493,3.5493,3.5493,3.5493,3.5493,3.5493,3.5493,3.5493,3.5493,3.5493,3.5718,3.618,3.618,3.6411,3.6911,3.6911,3.6411,3.5493,3.5493,3.5493,3.5493,3.5493,3.5493,3.5493,3.5493,3.5493,3.5493,3.5493,3.5493,3.5493,3.5493,3.5493,3.5493]}]]